Wetterdaten: Dienstag, 03.01.2023
Datum Zeit Temp. 2m Temp +5 cm Feuchte A. Luftdruck Regen Wind Richtung Richtung Sonnenschein UV Solar Taupunkt Windchill Windben
03.01.2023 00:00 4,8 C 3,9 C 90 % 1027,2 hPa 0,0 l/m 6,4 km/h (2 Bft) S-SW 202 0 min 0,0 UV-I 0 W/m 3,3 C 4,8 C 9,7 km/h (2 Bft)
03.01.2023 00:01 4,8 C 3,9 C 90 % 1027,2 hPa 0,0 l/m 6,4 km/h (2 Bft) S-SW 202 0 min 0,0 UV-I 0 W/m 3,3 C 4,8 C 8,0 km/h (2 Bft)
03.01.2023 00:02 4,8 C 3,9 C 90 % 1027,3 hPa 0,0 l/m 4,8 km/h (1 Bft) S-SW 202 0 min 0,0 UV-I 0 W/m 3,3 C 4,8 C 8,0 km/h (2 Bft)
03.01.2023 00:03 4,8 C 3,9 C 90 % 1027,2 hPa 0,0 l/m 6,4 km/h (2 Bft) S-SW 202 0 min 0,0 UV-I 0 W/m 3,3 C 4,8 C 9,7 km/h (2 Bft)
03.01.2023 00:04 4,8 C 3,9 C 90 % 1027,3 hPa 0,0 l/m 9,7 km/h (2 Bft) S-SW 202 0 min 0,0 UV-I 0 W/m 3,3 C 2,1 C 16,1 km/h (3 Bft)
03.01.2023 00:05 4,8 C 4,4 C 90 % 1027,3 hPa 0,0 l/m 11,3 km/h (2 Bft) S-SW 202 0 min 0,0 UV-I 0 W/m 3,3 C 1,0 C 16,1 km/h (3 Bft)
03.01.2023 00:06 4,9 C 4,4 C 90 % 1027,3 hPa 0,0 l/m 11,3 km/h (2 Bft) S-SW 202 0 min 0,0 UV-I 0 W/m 3,4 C 1,1 C 14,5 km/h (3 Bft)
03.01.2023 00:07 4,9 C 4,4 C 90 % 1027,3 hPa 0,0 l/m 8,0 km/h (2 Bft) S-SW 202 0 min 0,0 UV-I 0 W/m 3,4 C 3,5 C 9,7 km/h (2 Bft)
03.01.2023 00:08 4,9 C 4,4 C 90 % 1027,2 hPa 0,0 l/m 8,0 km/h (2 Bft) S 180 0 min 0,0 UV-I 0 W/m 3,4 C 3,5 C 12,9 km/h (3 Bft)
03.01.2023 00:09 4,9 C 4,4 C 90 % 1027,2 hPa 0,0 l/m 8,0 km/h (2 Bft) S 180 0 min 0,0 UV-I 0 W/m 3,4 C 3,5 C 9,7 km/h (2 Bft)
03.01.2023 00:10 4,9 C 4,4 C 90 % 1027,3 hPa 0,0 l/m 9,7 km/h (2 Bft) S-SW 202 0 min 0,0 UV-I 0 W/m 3,4 C 2,2 C 12,9 km/h (3 Bft)
03.01.2023 00:11 4,9 C 4,4 C 90 % 1027,3 hPa 0,0 l/m 11,3 km/h (2 Bft) S-SW 202 0 min 0,0 UV-I 0 W/m 3,4 C 1,1 C 14,5 km/h (3 Bft)
03.01.2023 00:12 4,9 C 4,4 C 90 % 1027,3 hPa 0,0 l/m 9,7 km/h (2 Bft) S 180 0 min 0,0 UV-I 0 W/m 3,4 C 2,2 C 14,5 km/h (3 Bft)
03.01.2023 00:13 4,9 C 4,4 C 90 % 1027,2 hPa 0,0 l/m 9,7 km/h (2 Bft) S-SW 202 0 min 0,0 UV-I 0 W/m 3,4 C 2,2 C 16,1 km/h (3 Bft)
03.01.2023 00:14 4,9 C 4,4 C 90 % 1027,3 hPa 0,0 l/m 8,0 km/h (2 Bft) SW 225 0 min 0,0 UV-I 0 W/m 3,4 C 3,5 C 12,9 km/h (3 Bft)
03.01.2023 00:15 4,9 C 4,4 C 90 % 1027,3 hPa 0,0 l/m 9,7 km/h (2 Bft) S-SW 202 0 min 0,0 UV-I 0 W/m 3,4 C 2,2 C 12,9 km/h (3 Bft)
03.01.2023 00:16 4,9 C 4,4 C 90 % 1027,3 hPa 0,0 l/m 11,3 km/h (2 Bft) S-SW 202 0 min 0,0 UV-I 0 W/m 3,4 C 1,1 C 12,9 km/h (3 Bft)
03.01.2023 00:17 4,9 C 4,4 C 90 % 1027,3 hPa 0,0 l/m 9,7 km/h (2 Bft) S-SW 202 0 min 0,0 UV-I 0 W/m 3,4 C 2,2 C 14,5 km/h (3 Bft)
03.01.2023 00:18 4,9 C 4,4 C 90 % 1027,3 hPa 0,0 l/m 9,7 km/h (2 Bft) S-SW 202 0 min 0,0 UV-I 0 W/m 3,4 C 2,2 C 11,3 km/h (2 Bft)
03.01.2023 00:19 4,9 C 4,4 C 90 % 1027,3 hPa 0,0 l/m 8,0 km/h (2 Bft) S-SW 202 0 min 0,0 UV-I 0 W/m 3,4 C 3,5 C 12,9 km/h (3 Bft)
03.01.2023 00:20 4,9 C 4,4 C 90 % 1027,3 hPa 0,0 l/m 9,7 km/h (2 Bft) S-SW 202 0 min 0,0 UV-I 0 W/m 3,4 C 2,2 C 12,9 km/h (3 Bft)
03.01.2023 00:21 4,9 C 4,4 C 90 % 1027,2 hPa 0,0 l/m 6,4 km/h (2 Bft) S 180 0 min 0,0 UV-I 0 W/m 3,4 C 4,9 C 9,7 km/h (2 Bft)
03.01.2023 00:22 4,9 C 4,4 C 90 % 1027,3 hPa 0,0 l/m 9,7 km/h (2 Bft) S-SW 202 0 min 0,0 UV-I 0 W/m 3,4 C 2,2 C 12,9 km/h (3 Bft)
03.01.2023 00:23 5,0 C 4,4 C 90 % 1027,4 hPa 0,0 l/m 6,4 km/h (2 Bft) S 180 0 min 0,0 UV-I 0 W/m 3,5 C 5,0 C 11,3 km/h (2 Bft)
03.01.2023 00:24 4,9 C 4,4 C 90 % 1027,3 hPa 0,0 l/m 6,4 km/h (2 Bft) S 180 0 min 0,0 UV-I 0 W/m 3,4 C 4,9 C 8,0 km/h (2 Bft)
03.01.2023 00:25 4,9 C 4,4 C 90 % 1027,4 hPa 0,0 l/m 4,8 km/h (1 Bft) S 180 0 min 0,0 UV-I 0 W/m 3,4 C 4,9 C 6,4 km/h (2 Bft)
03.01.2023 00:26 4,9 C 4,4 C 90 % 1027,4 hPa 0,0 l/m 6,4 km/h (2 Bft) S 180 0 min 0,0 UV-I 0 W/m 3,4 C 4,9 C 9,7 km/h (2 Bft)
03.01.2023 00:27 4,9 C 4,4 C 90 % 1027,3 hPa 0,0 l/m 9,7 km/h (2 Bft) S 180 0 min 0,0 UV-I 0 W/m 3,4 C 2,2 C 12,9 km/h (3 Bft)
03.01.2023 00:28 5,0 C 4,4 C 90 % 1027,4 hPa 0,0 l/m 9,7 km/h (2 Bft) S-SW 202 0 min 0,0 UV-I 0 W/m 3,5 C 2,3 C 11,3 km/h (2 Bft)
03.01.2023 00:29 4,9 C 4,4 C 90 % 1027,4 hPa 0,0 l/m 8,0 km/h (2 Bft) S-SW 202 0 min 0,0 UV-I 0 W/m 3,4 C 3,5 C 11,3 km/h (2 Bft)
03.01.2023 00:30 5,0 C 4,4 C 90 % 1027,5 hPa 0,0 l/m 9,7 km/h (2 Bft) S 180 0 min 0,0 UV-I 0 W/m 3,5 C 2,3 C 12,9 km/h (3 Bft)
03.01.2023 00:31 5,0 C 4,4 C 90 % 1027,3 hPa 0,0 l/m 8,0 km/h (2 Bft) S 180 0 min 0,0 UV-I 0 W/m 3,5 C 3,6 C 11,3 km/h (2 Bft)
03.01.2023 00:32 4,9 C 4,4 C 90 % 1027,4 hPa 0,0 l/m 6,4 km/h (2 Bft) S-SW 202 0 min 0,0 UV-I 0 W/m 3,4 C 4,9 C 8,0 km/h (2 Bft)
03.01.2023 00:33 4,9 C 4,4 C 90 % 1027,4 hPa 0,0 l/m 8,0 km/h (2 Bft) S-SW 202 0 min 0,0 UV-I 0 W/m 3,4 C 3,5 C 9,7 km/h (2 Bft)
03.01.2023 00:34 4,9 C 4,4 C 90 % 1027,5 hPa 0,0 l/m 6,4 km/h (2 Bft) S-SW 202 0 min 0,0 UV-I 0 W/m 3,4 C 4,9 C 8,0 km/h (2 Bft)
03.01.2023 00:35 4,9 C 4,4 C 90 % 1027,4 hPa 0,0 l/m 6,4 km/h (2 Bft) S-SW 202 0 min 0,0 UV-I 0 W/m 3,4 C 4,9 C 8,0 km/h (2 Bft)
03.01.2023 00:36 5,0 C 4,4 C 90 % 1027,4 hPa 0,0 l/m 8,0 km/h (2 Bft) S-SW 202 0 min 0,0 UV-I 0 W/m 3,5 C 3,6 C 12,9 km/h (3 Bft)
03.01.2023 00:37 4,9 C 4,4 C 90 % 1027,5 hPa 0,0 l/m 6,4 km/h (2 Bft) S-SW 202 0 min 0,0 UV-I 0 W/m 3,4 C 4,9 C 9,7 km/h (2 Bft)
03.01.2023 00:38 4,9 C 4,4 C 90 % 1027,4 hPa 0,0 l/m 9,7 km/h (2 Bft) S-SW 202 0 min 0,0 UV-I 0 W/m 3,4 C 2,2 C 11,3 km/h (2 Bft)
03.01.2023 00:39 5,0 C 4,4 C 90 % 1027,4 hPa 0,0 l/m 8,0 km/h (2 Bft) S-SW 202 0 min 0,0 UV-I 0 W/m 3,5 C 3,6 C 11,3 km/h (2 Bft)
03.01.2023 00:40 4,9 C 4,4 C 90 % 1027,5 hPa 0,0 l/m 6,4 km/h (2 Bft) S-SW 202 0 min 0,0 UV-I 0 W/m 3,4 C 4,9 C 9,7 km/h (2 Bft)
03.01.2023 00:41 5,0 C 4,4 C 90 % 1027,4 hPa 0,0 l/m 6,4 km/h (2 Bft) S 180 0 min 0,0 UV-I 0 W/m 3,5 C 5,0 C 9,7 km/h (2 Bft)
03.01.2023 00:42 4,9 C 4,4 C 90 % 1027,5 hPa 0,0 l/m 6,4 km/h (2 Bft) S 180 0 min 0,0 UV-I 0 W/m 3,4 C 4,9 C 9,7 km/h (2 Bft)
03.01.2023 00:43 4,9 C 4,4 C 90 % 1027,5 hPa 0,0 l/m 3,2 km/h (1 Bft) S 180 0 min 0,0 UV-I 0 W/m 3,4 C 4,9 C 6,4 km/h (2 Bft)
03.01.2023 00:44 4,9 C 4,4 C 90 % 1027,5 hPa 0,0 l/m 3,2 km/h (1 Bft) S 180 0 min 0,0 UV-I 0 W/m 3,4 C 4,9 C 4,8 km/h (1 Bft)
03.01.2023 00:45 4,9 C 4,4 C 90 % 1027,6 hPa 0,0 l/m 4,8 km/h (1 Bft) S 180 0 min 0,0 UV-I 0 W/m 3,4 C 4,9 C 6,4 km/h (2 Bft)
03.01.2023 00:46 4,9 C 4,4 C 90 % 1027,4 hPa 0,0 l/m 4,8 km/h (1 Bft) S 180 0 min 0,0 UV-I 0 W/m 3,4 C 4,9 C 8,0 km/h (2 Bft)
03.01.2023 00:47 4,9 C 4,4 C 90 % 1027,5 hPa 0,0 l/m 3,2 km/h (1 Bft) S 180 0 min 0,0 UV-I 0 W/m 3,4 C 4,9 C 4,8 km/h (1 Bft)
03.01.2023 00:48 4,9 C 4,4 C 90 % 1027,6 hPa 0,0 l/m 4,8 km/h (1 Bft) S 180 0 min 0,0 UV-I 0 W/m 3,4 C 4,9 C 6,4 km/h (2 Bft)
03.01.2023 00:49 4,9 C 4,4 C 90 % 1027,6 hPa 0,0 l/m 9,7 km/h (2 Bft) S 180 0 min 0,0 UV-I 0 W/m 3,4 C 2,2 C 12,9 km/h (3 Bft)
03.01.2023 00:50 4,9 C 4,4 C 90 % 1027,6 hPa 0,0 l/m 8,0 km/h (2 Bft) S 180 0 min 0,0 UV-I 0 W/m 3,4 C 3,5 C 9,7 km/h (2 Bft)
03.01.2023 00:51 4,9 C 4,4 C 90 % 1027,6 hPa 0,0 l/m 8,0 km/h (2 Bft) S 180 0 min 0,0 UV-I 0 W/m 3,4 C 3,5 C 12,9 km/h (3 Bft)
03.01.2023 00:52 4,9 C 4,4 C 90 % 1027,5 hPa 0,0 l/m 8,0 km/h (2 Bft) S 180 0 min 0,0 UV-I 0 W/m 3,4 C 3,5 C 11,3 km/h (2 Bft)
03.01.2023 00:53 4,9 C 4,4 C 90 % 1027,5 hPa 0,0 l/m 8,0 km/h (2 Bft) W-SW 247 0 min 0,0 UV-I 0 W/m 3,4 C 3,5 C 11,3 km/h (2 Bft)
03.01.2023 00:54 4,9 C 4,4 C 90 % 1027,6 hPa 0,0 l/m 8,0 km/h (2 Bft) SW 225 0 min 0,0 UV-I 0 W/m 3,4 C 3,5 C 12,9 km/h (3 Bft)
03.01.2023 00:55 4,9 C 4,4 C 90 % 1027,7 hPa 0,0 l/m 9,7 km/h (2 Bft) SW 225 0 min 0,0 UV-I 0 W/m 3,4 C 2,2 C 12,9 km/h (3 Bft)
03.01.2023 00:56 4,9 C 4,4 C 90 % 1027,6 hPa 0,0 l/m 9,7 km/h (2 Bft) S-SW 202 0 min 0,0 UV-I 0 W/m 3,4 C 2,2 C 12,9 km/h (3 Bft)
03.01.2023 00:57 4,9 C 4,4 C 90 % 1027,7 hPa 0,0 l/m 11,3 km/h (2 Bft) S-SW 202 0 min 0,0 UV-I 0 W/m 3,4 C 1,1 C 16,1 km/h (3 Bft)
03.01.2023 00:58 4,9 C 4,4 C 90 % 1027,6 hPa 0,0 l/m 8,0 km/h (2 Bft) S-SW 202 0 min 0,0 UV-I 0 W/m 3,4 C 3,5 C 14,5 km/h (3 Bft)
03.01.2023 00:59 4,9 C 4,4 C 90 % 1027,6 hPa 0,0 l/m 8,0 km/h (2 Bft) SW 225 0 min 0,0 UV-I 0 W/m 3,4 C 3,5 C 11,3 km/h (2 Bft)
03.01.2023 01:00 4,9 C 4,4 C 90 % 1027,5 hPa 0,0 l/m 8,0 km/h (2 Bft) SW 225 0 min 0,0 UV-I 0 W/m 3,4 C 3,5 C 9,7 km/h (2 Bft)
03.01.2023 01:01 4,9 C 4,4 C 90 % 1027,6 hPa 0,0 l/m 9,7 km/h (2 Bft) SW 225 0 min 0,0 UV-I 0 W/m 3,4 C 2,2 C 9,7 km/h (2 Bft)
03.01.2023 01:02 4,9 C 4,4 C 90 % 1027,6 hPa 0,0 l/m 8,0 km/h (2 Bft) S-SW 202 0 min 0,0 UV-I 0 W/m 3,4 C 3,5 C 12,9 km/h (3 Bft)
03.01.2023 01:03 4,9 C 4,4 C 90 % 1027,7 hPa 0,0 l/m 8,0 km/h (2 Bft) S-SW 202 0 min 0,0 UV-I 0 W/m 3,4 C 3,5 C 9,7 km/h (2 Bft)
03.01.2023 01:04 4,9 C 4,4 C 90 % 1027,6 hPa 0,0 l/m 4,8 km/h (1 Bft) S-SW 202 0 min 0,0 UV-I 0 W/m 3,4 C 4,9 C 6,4 km/h (2 Bft)
03.01.2023 01:05 4,9 C 4,4 C 90 % 1027,7 hPa 0,0 l/m 6,4 km/h (2 Bft) S-SW 202 0 min 0,0 UV-I 0 W/m 3,4 C 4,9 C 9,7 km/h (2 Bft)
03.01.2023 01:06 4,9 C 4,4 C 90 % 1027,6 hPa 0,0 l/m 4,8 km/h (1 Bft) S-SW 202 0 min 0,0 UV-I 0 W/m 3,4 C 4,9 C 6,4 km/h (2 Bft)
03.01.2023 01:07 4,9 C 4,4 C 90 % 1027,6 hPa 0,0 l/m 6,4 km/h (2 Bft) SW 225 0 min 0,0 UV-I 0 W/m 3,4 C 4,9 C 8,0 km/h (2 Bft)
03.01.2023 01:08 4,9 C 4,4 C 90 % 1027,7 hPa 0,0 l/m 6,4 km/h (2 Bft) S-SW 202 0 min 0,0 UV-I 0 W/m 3,4 C 4,9 C 8,0 km/h (2 Bft)
03.01.2023 01:09 4,9 C 4,4 C 90 % 1027,7 hPa 0,0 l/m 6,4 km/h (2 Bft) S-SW 202 0 min 0,0 UV-I 0 W/m 3,4 C 4,9 C 11,3 km/h (2 Bft)
03.01.2023 01:10 4,9 C 4,4 C 90 % 1027,7 hPa 0,0 l/m 4,8 km/h (1 Bft) S-SW 202 0 min 0,0 UV-I 0 W/m 3,4 C 4,9 C 8,0 km/h (2 Bft)
03.01.2023 01:11 4,9 C 4,4 C 90 % 1027,8 hPa 0,0 l/m 6,4 km/h (2 Bft) S-SW 202 0 min 0,0 UV-I 0 W/m 3,4 C 4,9 C 8,0 km/h (2 Bft)
03.01.2023 01:12 4,9 C 4,4 C 90 % 1027,7 hPa 0,0 l/m 8,0 km/h (2 Bft) S-SW 202 0 min 0,0 UV-I 0 W/m 3,4 C 3,5 C 9,7 km/h (2 Bft)
03.01.2023 01:13 4,9 C 4,4 C 90 % 1027,7 hPa 0,0 l/m 6,4 km/h (2 Bft) S-SW 202 0 min 0,0 UV-I 0 W/m 3,4 C 4,9 C 8,0 km/h (2 Bft)
03.01.2023 01:14 4,9 C 4,4 C 90 % 1027,7 hPa 0,0 l/m 4,8 km/h (1 Bft) S-SW 202 0 min 0,0 UV-I 0 W/m 3,4 C 4,9 C 6,4 km/h (2 Bft)
03.01.2023 01:15 4,9 C 4,4 C 90 % 1027,6 hPa 0,0 l/m 8,0 km/h (2 Bft) S-SW 202 0 min 0,0 UV-I 0 W/m 3,4 C 3,5 C 9,7 km/h (2 Bft)
03.01.2023 01:16 4,9 C 4,4 C 90 % 1027,7 hPa 0,0 l/m 8,0 km/h (2 Bft) S 180 0 min 0,0 UV-I 0 W/m 3,4 C 3,5 C 11,3 km/h (2 Bft)
03.01.2023 01:17 4,9 C 4,4 C 90 % 1027,7 hPa 0,0 l/m 9,7 km/h (2 Bft) S-SW 202 0 min 0,0 UV-I 0 W/m 3,4 C 2,2 C 16,1 km/h (3 Bft)
03.01.2023 01:18 4,9 C 4,4 C 90 % 1027,7 hPa 0,0 l/m 12,9 km/h (3 Bft) S-SW 202 0 min 0,0 UV-I 0 W/m 3,4 C 0,1 C 14,5 km/h (3 Bft)
03.01.2023 01:19 4,9 C 4,4 C 90 % 1027,8 hPa 0,0 l/m 9,7 km/h (2 Bft) S-SW 202 0 min 0,0 UV-I 0 W/m 3,4 C 2,2 C 11,3 km/h (2 Bft)
03.01.2023 01:20 4,9 C 4,4 C 90 % 1027,8 hPa 0,0 l/m 9,7 km/h (2 Bft) S-SW 202 0 min 0,0 UV-I 0 W/m 3,4 C 2,2 C 14,5 km/h (3 Bft)
03.01.2023 01:21 4,9 C 4,4 C 90 % 1027,8 hPa 0,0 l/m 11,3 km/h (2 Bft) S-SW 202 0 min 0,0 UV-I 0 W/m 3,4 C 1,1 C 14,5 km/h (3 Bft)
03.01.2023 01:22 4,9 C 4,4 C 90 % 1027,8 hPa 0,0 l/m 9,7 km/h (2 Bft) S-SW 202 0 min 0,0 UV-I 0 W/m 3,4 C 2,2 C 12,9 km/h (3 Bft)
03.01.2023 01:23 4,9 C 4,4 C 90 % 1027,8 hPa 0,0 l/m 9,7 km/h (2 Bft) S-SW 202 0 min 0,0 UV-I 0 W/m 3,4 C 2,2 C 14,5 km/h (3 Bft)
03.01.2023 01:24 4,9 C 4,4 C 90 % 1027,8 hPa 0,0 l/m 8,0 km/h (2 Bft) S 180 0 min 0,0 UV-I 0 W/m 3,4 C 3,5 C 12,9 km/h (3 Bft)
03.01.2023 01:25 4,9 C 4,4 C 90 % 1027,8 hPa 0,0 l/m 8,0 km/h (2 Bft) S 180 0 min 0,0 UV-I 0 W/m 3,4 C 3,5 C 11,3 km/h (2 Bft)
03.01.2023 01:26 4,9 C 4,4 C 90 % 1027,9 hPa 0,0 l/m 8,0 km/h (2 Bft) S 180 0 min 0,0 UV-I 0 W/m 3,4 C 3,5 C 11,3 km/h (2 Bft)
03.01.2023 01:27 4,9 C 4,4 C 90 % 1027,9 hPa 0,0 l/m 8,0 km/h (2 Bft) S 180 0 min 0,0 UV-I 0 W/m 3,4 C 3,5 C 14,5 km/h (3 Bft)
03.01.2023 01:28 4,9 C 4,4 C 90 % 1027,8 hPa 0,0 l/m 9,7 km/h (2 Bft) S 180 0 min 0,0 UV-I 0 W/m 3,4 C 2,2 C 12,9 km/h (3 Bft)
03.01.2023 01:29 4,9 C 4,4 C 90 % 1027,8 hPa 0,0 l/m 11,3 km/h (2 Bft) S-SW 202 0 min 0,0 UV-I 0 W/m 3,4 C 1,1 C 12,9 km/h (3 Bft)
03.01.2023 01:30 4,9 C 4,4 C 90 % 1027,8 hPa 0,0 l/m 12,9 km/h (3 Bft) S 180 0 min 0,0 UV-I 0 W/m 3,4 C 0,1 C 19,3 km/h (3 Bft)
03.01.2023 01:31 4,8 C 4,4 C 90 % 1027,8 hPa 0,0 l/m 11,3 km/h (2 Bft) S-SW 202 0 min 0,0 UV-I 0 W/m 3,3 C 1,0 C 16,1 km/h (3 Bft)
03.01.2023 01:32 4,8 C 4,4 C 90 % 1027,8 hPa 0,0 l/m 9,7 km/h (2 Bft) S-SW 202 0 min 0,0 UV-I 0 W/m 3,3 C 2,1 C 19,3 km/h (3 Bft)
03.01.2023 01:33 4,9 C 4,4 C 90 % 1027,8 hPa 0,0 l/m 8,0 km/h (2 Bft) S 180 0 min 0,0 UV-I 0 W/m 3,4 C 3,5 C 11,3 km/h (2 Bft)
03.01.2023 01:34 4,8 C 3,9 C 90 % 1027,8 hPa 0,0 l/m 8,0 km/h (2 Bft) S-SW 202 0 min 0,0 UV-I 0 W/m 3,3 C 3,4 C 11,3 km/h (2 Bft)
03.01.2023 01:35 4,8 C 3,9 C 90 % 1027,9 hPa 0,0 l/m 11,3 km/h (2 Bft) S-SW 202 0 min 0,0 UV-I 0 W/m 3,3 C 1,0 C 16,1 km/h (3 Bft)
03.01.2023 01:36 4,8 C 3,9 C 90 % 1027,9 hPa 0,0 l/m 9,7 km/h (2 Bft) S 180 0 min 0,0 UV-I 0 W/m 3,3 C 2,1 C 12,9 km/h (3 Bft)
03.01.2023 01:37 4,8 C 3,9 C 90 % 1027,8 hPa 0,0 l/m 11,3 km/h (2 Bft) S 180 0 min 0,0 UV-I 0 W/m 3,3 C 1,0 C 17,7 km/h (3 Bft)
03.01.2023 01:38 4,8 C 4,4 C 90 % 1027,9 hPa 0,0 l/m 11,3 km/h (2 Bft) S 180 0 min 0,0 UV-I 0 W/m 3,3 C 1,0 C 16,1 km/h (3 Bft)
03.01.2023 01:39 4,8 C 4,4 C 90 % 1027,8 hPa 0,0 l/m 9,7 km/h (2 Bft) S-SW 202 0 min 0,0 UV-I 0 W/m 3,3 C 2,1 C 12,9 km/h (3 Bft)
03.01.2023 01:40 4,8 C 4,4 C 90 % 1027,9 hPa 0,0 l/m 14,5 km/h (3 Bft) S-SW 202 0 min 0,0 UV-I 0 W/m 3,3 C -0,9 C 19,3 km/h (3 Bft)
03.01.2023 01:41 4,8 C 4,4 C 90 % 1027,9 hPa 0,0 l/m 12,9 km/h (3 Bft) S 180 0 min 0,0 UV-I 0 W/m 3,3 C -0,0 C 22,5 km/h (4 Bft)
03.01.2023 01:42 4,8 C 4,4 C 90 % 1027,9 hPa 0,0 l/m 14,5 km/h (3 Bft) S-SW 202 0 min 0,0 UV-I 0 W/m 3,3 C -0,9 C 20,9 km/h (4 Bft)
03.01.2023 01:43 4,8 C 4,4 C 90 % 1027,9 hPa 0,0 l/m 11,3 km/h (2 Bft) S 180 0 min 0,0 UV-I 0 W/m 3,3 C 1,0 C 16,1 km/h (3 Bft)
03.01.2023 01:44 4,8 C 4,4 C 90 % 1027,9 hPa 0,0 l/m 11,3 km/h (2 Bft) S-SW 202 0 min 0,0 UV-I 0 W/m 3,3 C 1,0 C 14,5 km/h (3 Bft)
03.01.2023 01:45 4,8 C 4,4 C 90 % 1027,9 hPa 0,0 l/m 11,3 km/h (2 Bft) S-SW 202 0 min 0,0 UV-I 0 W/m 3,3 C 1,0 C 16,1 km/h (3 Bft)
03.01.2023 01:46 4,8 C 4,4 C 90 % 1028,0 hPa 0,0 l/m 9,7 km/h (2 Bft) S-SW 202 0 min 0,0 UV-I 0 W/m 3,3 C 2,1 C 14,5 km/h (3 Bft)
03.01.2023 01:47 4,8 C 4,4 C 90 % 1027,9 hPa 0,0 l/m 9,7 km/h (2 Bft) S-SW 202 0 min 0,0 UV-I 0 W/m 3,3 C 2,1 C 14,5 km/h (3 Bft)
03.01.2023 01:48 4,8 C 4,4 C 90 % 1027,9 hPa 0,0 l/m 12,9 km/h (3 Bft) S-SW 202 0 min 0,0 UV-I 0 W/m 3,3 C -0,0 C 14,5 km/h (3 Bft)
03.01.2023 01:49 4,8 C 4,4 C 90 % 1027,9 hPa 0,0 l/m 12,9 km/h (3 Bft) S-SW 202 0 min 0,0 UV-I 0 W/m 3,3 C -0,0 C 17,7 km/h (3 Bft)
03.01.2023 01:50 4,8 C 4,4 C 90 % 1027,8 hPa 0,0 l/m 14,5 km/h (3 Bft) S-SW 202 0 min 0,0 UV-I 0 W/m 3,3 C -0,9 C 20,9 km/h (4 Bft)
03.01.2023 01:51 4,8 C 4,4 C 90 % 1028,0 hPa 0,0 l/m 12,9 km/h (3 Bft) S-SW 202 0 min 0,0 UV-I 0 W/m 3,3 C -0,0 C 19,3 km/h (3 Bft)
03.01.2023 01:52 4,8 C 4,4 C 90 % 1027,9 hPa 0,0 l/m 9,7 km/h (2 Bft) S-SW 202 0 min 0,0 UV-I 0 W/m 3,3 C 2,1 C 11,3 km/h (2 Bft)
03.01.2023 01:53 4,8 C 4,4 C 90 % 1027,9 hPa 0,0 l/m 9,7 km/h (2 Bft) S-SW 202 0 min 0,0 UV-I 0 W/m 3,3 C 2,1 C 12,9 km/h (3 Bft)
03.01.2023 01:54 4,8 C 4,4 C 90 % 1028,0 hPa 0,0 l/m 9,7 km/h (2 Bft) S-SW 202 0 min 0,0 UV-I 0 W/m 3,3 C 2,1 C 14,5 km/h (3 Bft)
03.01.2023 01:55 4,8 C 4,4 C 90 % 1028,0 hPa 0,0 l/m 11,3 km/h (2 Bft) S-SW 202 0 min 0,0 UV-I 0 W/m 3,3 C 1,0 C 17,7 km/h (3 Bft)
03.01.2023 01:56 4,8 C 4,4 C 90 % 1028,0 hPa 0,0 l/m 11,3 km/h (2 Bft) S-SW 202 0 min 0,0 UV-I 0 W/m 3,3 C 1,0 C 14,5 km/h (3 Bft)
03.01.2023 01:57 4,8 C 4,4 C 90 % 1027,9 hPa 0,0 l/m 9,7 km/h (2 Bft) S 180 0 min 0,0 UV-I 0 W/m 3,3 C 2,1 C 14,5 km/h (3 Bft)
03.01.2023 01:58 4,8 C 4,4 C 90 % 1027,9 hPa 0,0 l/m 8,0 km/h (2 Bft) S 180 0 min 0,0 UV-I 0 W/m 3,3 C 3,4 C 12,9 km/h (3 Bft)
03.01.2023 01:59 4,8 C 4,4 C 90 % 1028,0 hPa 0,0 l/m 9,7 km/h (2 Bft) S 180 0 min 0,0 UV-I 0 W/m 3,3 C 2,1 C 16,1 km/h (3 Bft)
03.01.2023 02:00 4,8 C 3,9 C 90 % 1028,0 hPa 0,0 l/m 11,3 km/h (2 Bft) S 180 0 min 0,0 UV-I 0 W/m 3,3 C 1,0 C 17,7 km/h (3 Bft)
03.01.2023 02:01 4,8 C 3,9 C 90 % 1027,9 hPa 0,0 l/m 9,7 km/h (2 Bft) S 180 0 min 0,0 UV-I 0 W/m 3,3 C 2,1 C 17,7 km/h (3 Bft)
03.01.2023 02:02 4,8 C 3,9 C 90 % 1027,9 hPa 0,0 l/m 11,3 km/h (2 Bft) S-SO 157 0 min 0,0 UV-I 0 W/m 3,3 C 1,0 C 17,7 km/h (3 Bft)
03.01.2023 02:03 4,8 C 3,9 C 90 % 1028,0 hPa 0,0 l/m 11,3 km/h (2 Bft) S-SW 202 0 min 0,0 UV-I 0 W/m 3,3 C 1,0 C 16,1 km/h (3 Bft)
03.01.2023 02:04 4,8 C 3,9 C 90 % 1028,0 hPa 0,0 l/m 12,9 km/h (3 Bft) S-SW 202 0 min 0,0 UV-I 0 W/m 3,3 C -0,0 C 16,1 km/h (3 Bft)
03.01.2023 02:05 4,8 C 3,9 C 90 % 1028,0 hPa 0,0 l/m 11,3 km/h (2 Bft) S 180 0 min 0,0 UV-I 0 W/m 3,3 C 1,0 C 14,5 km/h (3 Bft)
03.01.2023 02:06 4,8 C 3,9 C 90 % 1028,0 hPa 0,0 l/m 8,0 km/h (2 Bft) S 180 0 min 0,0 UV-I 0 W/m 3,3 C 3,4 C 14,5 km/h (3 Bft)
03.01.2023 02:07 4,8 C 3,9 C 90 % 1028,0 hPa 0,0 l/m 12,9 km/h (3 Bft) S 180 0 min 0,0 UV-I 0 W/m 3,3 C -0,0 C 19,3 km/h (3 Bft)
03.01.2023 02:08 4,8 C 3,9 C 90 % 1028,1 hPa 0,0 l/m 14,5 km/h (3 Bft) S-SW 202 0 min 0,0 UV-I 0 W/m 3,3 C -0,9 C 17,7 km/h (3 Bft)
03.01.2023 02:09 4,8 C 3,9 C 90 % 1028,1 hPa 0,0 l/m 11,3 km/h (2 Bft) S-SW 202 0 min 0,0 UV-I 0 W/m 3,3 C 1,0 C 16,1 km/h (3 Bft)
03.01.2023 02:10 4,8 C 3,9 C 90 % 1028,0 hPa 0,0 l/m 11,3 km/h (2 Bft) S-SW 202 0 min 0,0 UV-I 0 W/m 3,3 C 1,0 C 16,1 km/h (3 Bft)
03.01.2023 02:11 4,8 C 3,9 C 90 % 1028,0 hPa 0,0 l/m 8,0 km/h (2 Bft) S-SW 202 0 min 0,0 UV-I 0 W/m 3,3 C 3,4 C 12,9 km/h (3 Bft)
03.01.2023 02:12 4,8 C 3,9 C 90 % 1028,0 hPa 0,0 l/m 9,7 km/h (2 Bft) S-SW 202 0 min 0,0 UV-I 0 W/m 3,3 C 2,1 C 12,9 km/h (3 Bft)
03.01.2023 02:13 4,8 C 3,9 C 90 % 1028,1 hPa 0,0 l/m 9,7 km/h (2 Bft) S-SW 202 0 min 0,0 UV-I 0 W/m 3,3 C 2,1 C 11,3 km/h (2 Bft)
03.01.2023 02:14 4,8 C 3,9 C 90 % 1028,1 hPa 0,0 l/m 8,0 km/h (2 Bft) S-SW 202 0 min 0,0 UV-I 0 W/m 3,3 C 3,4 C 9,7 km/h (2 Bft)
03.01.2023 02:15 4,8 C 3,9 C 90 % 1028,1 hPa 0,0 l/m 8,0 km/h (2 Bft) S 180 0 min 0,0 UV-I 0 W/m 3,3 C 3,4 C 16,1 km/h (3 Bft)
03.01.2023 02:16 4,8 C 3,9 C 90 % 1028,0 hPa 0,0 l/m 9,7 km/h (2 Bft) S 180 0 min 0,0 UV-I 0 W/m 3,3 C 2,1 C 12,9 km/h (3 Bft)
03.01.2023 02:17 4,7 C 3,9 C 90 % 1028,1 hPa 0,0 l/m 12,9 km/h (3 Bft) S-SW 202 0 min 0,0 UV-I 0 W/m 3,2 C -0,1 C 17,7 km/h (3 Bft)
03.01.2023 02:18 4,7 C 3,9 C 90 % 1028,2 hPa 0,0 l/m 12,9 km/h (3 Bft) S-SW 202 0 min 0,0 UV-I 0 W/m 3,2 C -0,1 C 16,1 km/h (3 Bft)
03.01.2023 02:19 4,7 C 3,9 C 90 % 1028,1 hPa 0,0 l/m 11,3 km/h (2 Bft) S-SW 202 0 min 0,0 UV-I 0 W/m 3,2 C 0,9 C 14,5 km/h (3 Bft)
03.01.2023 02:20 4,7 C 3,9 C 90 % 1028,1 hPa 0,0 l/m 11,3 km/h (2 Bft) S-SW 202 0 min 0,0 UV-I 0 W/m 3,2 C 0,9 C 14,5 km/h (3 Bft)
03.01.2023 02:21 4,7 C 3,9 C 90 % 1028,1 hPa 0,0 l/m 9,7 km/h (2 Bft) S-SW 202 0 min 0,0 UV-I 0 W/m 3,2 C 2,0 C 12,9 km/h (3 Bft)
03.01.2023 02:22 4,7 C 3,9 C 90 % 1028,2 hPa 0,0 l/m 8,0 km/h (2 Bft) S-SW 202 0 min 0,0 UV-I 0 W/m 3,2 C 3,3 C 11,3 km/h (2 Bft)
03.01.2023 02:23 4,8 C 3,9 C 90 % 1028,2 hPa 0,0 l/m 12,9 km/h (3 Bft) S-SW 202 0 min 0,0 UV-I 0 W/m 3,3 C -0,0 C 17,7 km/h (3 Bft)
03.01.2023 02:24 4,7 C 3,9 C 90 % 1028,2 hPa 0,0 l/m 11,3 km/h (2 Bft) S-SW 202 0 min 0,0 UV-I 0 W/m 3,2 C 0,9 C 16,1 km/h (3 Bft)
03.01.2023 02:25 4,7 C 3,9 C 90 % 1028,2 hPa 0,0 l/m 8,0 km/h (2 Bft) S 180 0 min 0,0 UV-I 0 W/m 3,2 C 3,3 C 12,9 km/h (3 Bft)
03.01.2023 02:26 4,7 C 3,9 C 90 % 1028,3 hPa 0,0 l/m 11,3 km/h (2 Bft) S-SW 202 0 min 0,0 UV-I 0 W/m 3,2 C 0,9 C 14,5 km/h (3 Bft)
03.01.2023 02:27 4,7 C 3,9 C 90 % 1028,3 hPa 0,0 l/m 11,3 km/h (2 Bft) S-SW 202 0 min 0,0 UV-I 0 W/m 3,2 C 0,9 C 16,1 km/h (3 Bft)
03.01.2023 02:28 4,7 C 3,9 C 90 % 1028,2 hPa 0,0 l/m 11,3 km/h (2 Bft) S-SW 202 0 min 0,0 UV-I 0 W/m 3,2 C 0,9 C 12,9 km/h (3 Bft)
03.01.2023 02:29 4,7 C 3,9 C 90 % 1028,3 hPa 0,0 l/m 9,7 km/h (2 Bft) S 180 0 min 0,0 UV-I 0 W/m 3,2 C 2,0 C 16,1 km/h (3 Bft)
03.01.2023 02:30 4,7 C 3,9 C 90 % 1028,3 hPa 0,0 l/m 9,7 km/h (2 Bft) S-SW 202 0 min 0,0 UV-I 0 W/m 3,2 C 2,0 C 14,5 km/h (3 Bft)
03.01.2023 02:31 4,7 C 3,9 C 90 % 1028,3 hPa 0,0 l/m 9,7 km/h (2 Bft) S-SW 202 0 min 0,0 UV-I 0 W/m 3,2 C 2,0 C 12,9 km/h (3 Bft)
03.01.2023 02:32 4,7 C 3,9 C 90 % 1028,2 hPa 0,0 l/m 11,3 km/h (2 Bft) S-SW 202 0 min 0,0 UV-I 0 W/m 3,2 C 0,9 C 16,1 km/h (3 Bft)
03.01.2023 02:33 4,7 C 3,9 C 90 % 1028,3 hPa 0,0 l/m 11,3 km/h (2 Bft) S-SW 202 0 min 0,0 UV-I 0 W/m 3,2 C 0,9 C 12,9 km/h (3 Bft)
03.01.2023 02:34 4,7 C 3,9 C 90 % 1028,3 hPa 0,0 l/m 11,3 km/h (2 Bft) S-SW 202 0 min 0,0 UV-I 0 W/m 3,2 C 0,9 C 14,5 km/h (3 Bft)
03.01.2023 02:35 4,7 C 3,9 C 90 % 1028,3 hPa 0,0 l/m 11,3 km/h (2 Bft) S-SW 202 0 min 0,0 UV-I 0 W/m 3,2 C 0,9 C 14,5 km/h (3 Bft)
03.01.2023 02:36 4,7 C 3,9 C 90 % 1028,3 hPa 0,0 l/m 8,0 km/h (2 Bft) SW 225 0 min 0,0 UV-I 0 W/m 3,2 C 3,3 C 11,3 km/h (2 Bft)
03.01.2023 02:37 4,7 C 3,9 C 90 % 1028,2 hPa 0,0 l/m 8,0 km/h (2 Bft) S 180 0 min 0,0 UV-I 0 W/m 3,2 C 3,3 C 11,3 km/h (2 Bft)
03.01.2023 02:38 4,7 C 3,9 C 90 % 1028,3 hPa 0,0 l/m 11,3 km/h (2 Bft) S 180 0 min 0,0 UV-I 0 W/m 3,2 C 0,9 C 16,1 km/h (3 Bft)
03.01.2023 02:39 4,7 C 3,9 C 90 % 1028,2 hPa 0,0 l/m 4,8 km/h (1 Bft) S-SW 202 0 min 0,0 UV-I 0 W/m 3,2 C 4,7 C 8,0 km/h (2 Bft)
03.01.2023 02:40 4,7 C 3,9 C 90 % 1028,3 hPa 0,0 l/m 8,0 km/h (2 Bft) S-SW 202 0 min 0,0 UV-I 0 W/m 3,2 C 3,3 C 12,9 km/h (3 Bft)
03.01.2023 02:41 4,7 C 3,9 C 90 % 1028,2 hPa 0,0 l/m 11,3 km/h (2 Bft) S-SW 202 0 min 0,0 UV-I 0 W/m 3,2 C 0,9 C 17,7 km/h (3 Bft)
03.01.2023 02:42 4,7 C 3,9 C 90 % 1028,3 hPa 0,0 l/m 14,5 km/h (3 Bft) S-SW 202 0 min 0,0 UV-I 0 W/m 3,2 C -1,0 C 19,3 km/h (3 Bft)
03.01.2023 02:43 4,7 C 3,9 C 90 % 1028,4 hPa 0,0 l/m 11,3 km/h (2 Bft) S-SW 202 0 min 0,0 UV-I 0 W/m 3,2 C 0,9 C 17,7 km/h (3 Bft)
03.01.2023 02:44 4,7 C 3,9 C 90 % 1028,4 hPa 0,0 l/m 12,9 km/h (3 Bft) S-SW 202 0 min 0,0 UV-I 0 W/m 3,2 C -0,1 C 17,7 km/h (3 Bft)
03.01.2023 02:45 4,7 C 3,9 C 90 % 1028,3 hPa 0,0 l/m 12,9 km/h (3 Bft) S-SW 202 0 min 0,0 UV-I 0 W/m 3,2 C -0,1 C 17,7 km/h (3 Bft)
03.01.2023 02:46 4,7 C 3,9 C 90 % 1028,3 hPa 0,0 l/m 9,7 km/h (2 Bft) S-SW 202 0 min 0,0 UV-I 0 W/m 3,2 C 2,0 C 12,9 km/h (3 Bft)
03.01.2023 02:47 4,7 C 3,9 C 90 % 1028,4 hPa 0,0 l/m 9,7 km/h (2 Bft) S-SW 202 0 min 0,0 UV-I 0 W/m 3,2 C 2,0 C 14,5 km/h (3 Bft)
03.01.2023 02:48 4,7 C 3,9 C 90 % 1028,4 hPa 0,0 l/m 9,7 km/h (2 Bft) S 180 0 min 0,0 UV-I 0 W/m 3,2 C 2,0 C 16,1 km/h (3 Bft)
03.01.2023 02:49 4,7 C 3,9 C 90 % 1028,4 hPa 0,0 l/m 11,3 km/h (2 Bft) S-SW 202 0 min 0,0 UV-I 0 W/m 3,2 C 0,9 C 14,5 km/h (3 Bft)
03.01.2023 02:50 4,7 C 3,9 C 90 % 1028,4 hPa 0,0 l/m 11,3 km/h (2 Bft) S-SW 202 0 min 0,0 UV-I 0 W/m 3,2 C 0,9 C 16,1 km/h (3 Bft)
03.01.2023 02:51 4,6 C 3,9 C 90 % 1028,3 hPa 0,0 l/m 9,7 km/h (2 Bft) S-SW 202 0 min 0,0 UV-I 0 W/m 3,1 C 1,8 C 12,9 km/h (3 Bft)
03.01.2023 02:52 4,6 C 3,9 C 90 % 1028,3 hPa 0,0 l/m 8,0 km/h (2 Bft) S-SW 202 0 min 0,0 UV-I 0 W/m 3,1 C 3,2 C 9,7 km/h (2 Bft)
03.01.2023 02:53 4,7 C 3,9 C 90 % 1028,3 hPa 0,0 l/m 6,4 km/h (2 Bft) S 180 0 min 0,0 UV-I 0 W/m 3,2 C 4,7 C 8,0 km/h (2 Bft)
03.01.2023 02:54 4,7 C 3,9 C 90 % 1028,4 hPa 0,0 l/m 8,0 km/h (2 Bft) SW 225 0 min 0,0 UV-I 0 W/m 3,2 C 3,3 C 14,5 km/h (3 Bft)
03.01.2023 02:55 4,6 C 3,9 C 90 % 1028,4 hPa 0,0 l/m 8,0 km/h (2 Bft) S-SW 202 0 min 0,0 UV-I 0 W/m 3,1 C 3,2 C 11,3 km/h (2 Bft)
03.01.2023 02:56 4,6 C 3,9 C 90 % 1028,5 hPa 0,0 l/m 8,0 km/h (2 Bft) S 180 0 min 0,0 UV-I 0 W/m 3,1 C 3,2 C 9,7 km/h (2 Bft)
03.01.2023 02:57 4,7 C 3,9 C 90 % 1028,5 hPa 0,0 l/m 11,3 km/h (2 Bft) S-SW 202 0 min 0,0 UV-I 0 W/m 3,2 C 0,9 C 17,7 km/h (3 Bft)
03.01.2023 02:58 4,6 C 3,9 C 90 % 1028,5 hPa 0,0 l/m 14,5 km/h (3 Bft) S 180 0 min 0,0 UV-I 0 W/m 3,1 C -1,1 C 17,7 km/h (3 Bft)
03.01.2023 02:59 4,6 C 3,9 C 90 % 1028,5 hPa 0,0 l/m 12,9 km/h (3 Bft) S 180 0 min 0,0 UV-I 0 W/m 3,1 C -0,2 C 20,9 km/h (4 Bft)
03.01.2023 03:00 4,6 C 3,9 C 90 % 1028,5 hPa 0,0 l/m 9,7 km/h (2 Bft) S 180 0 min 0,0 UV-I 0 W/m 3,1 C 1,8 C 16,1 km/h (3 Bft)
03.01.2023 03:01 4,6 C 3,9 C 90 % 1028,6 hPa 0,0 l/m 8,0 km/h (2 Bft) S-SW 202 0 min 0,0 UV-I 0 W/m 3,1 C 3,2 C 12,9 km/h (3 Bft)
03.01.2023 03:02 4,6 C 3,9 C 90 % 1028,5 hPa 0,0 l/m 11,3 km/h (2 Bft) S 180 0 min 0,0 UV-I 0 W/m 3,1 C 0,7 C 16,1 km/h (3 Bft)
03.01.2023 03:03 4,6 C 3,9 C 90 % 1028,5 hPa 0,0 l/m 8,0 km/h (2 Bft) S 180 0 min 0,0 UV-I 0 W/m 3,1 C 3,2 C 12,9 km/h (3 Bft)
03.01.2023 03:04 4,6 C 3,9 C 90 % 1028,5 hPa 0,0 l/m 8,0 km/h (2 Bft) S 180 0 min 0,0 UV-I 0 W/m 3,1 C 3,2 C 11,3 km/h (2 Bft)
03.01.2023 03:05 4,6 C 3,9 C 90 % 1028,6 hPa 0,0 l/m 9,7 km/h (2 Bft) S 180 0 min 0,0 UV-I 0 W/m 3,1 C 1,8 C 12,9 km/h (3 Bft)
03.01.2023 03:06 4,6 C 3,9 C 90 % 1028,6 hPa 0,0 l/m 11,3 km/h (2 Bft) S 180 0 min 0,0 UV-I 0 W/m 3,1 C 0,7 C 14,5 km/h (3 Bft)
03.01.2023 03:07 4,6 C 3,9 C 90 % 1028,6 hPa 0,0 l/m 9,7 km/h (2 Bft) S-SW 202 0 min 0,0 UV-I 0 W/m 3,1 C 1,8 C 14,5 km/h (3 Bft)
03.01.2023 03:08 4,6 C 3,9 C 90 % 1028,6 hPa 0,0 l/m 11,3 km/h (2 Bft) S-SW 202 0 min 0,0 UV-I 0 W/m 3,1 C 0,7 C 14,5 km/h (3 Bft)
03.01.2023 03:09 4,6 C 3,9 C 90 % 1028,6 hPa 0,0 l/m 9,7 km/h (2 Bft) S-SW 202 0 min 0,0 UV-I 0 W/m 3,1 C 1,8 C 12,9 km/h (3 Bft)
03.01.2023 03:10 4,6 C 3,9 C 90 % 1028,6 hPa 0,0 l/m 8,0 km/h (2 Bft) S-SW 202 0 min 0,0 UV-I 0 W/m 3,1 C 3,2 C 11,3 km/h (2 Bft)
03.01.2023 03:11 4,6 C 3,9 C 90 % 1028,6 hPa 0,0 l/m 6,4 km/h (2 Bft) S 180 0 min 0,0 UV-I 0 W/m 3,1 C 4,6 C 11,3 km/h (2 Bft)
03.01.2023 03:12 4,6 C 3,9 C 90 % 1028,7 hPa 0,0 l/m 6,4 km/h (2 Bft) SW 225 0 min 0,0 UV-I 0 W/m 3,1 C 4,6 C 9,7 km/h (2 Bft)
03.01.2023 03:13 4,6 C 3,9 C 90 % 1028,6 hPa 0,0 l/m 9,7 km/h (2 Bft) S 180 0 min 0,0 UV-I 0 W/m 3,1 C 1,8 C 12,9 km/h (3 Bft)
03.01.2023 03:14 4,6 C 3,9 C 90 % 1028,6 hPa 0,0 l/m 9,7 km/h (2 Bft) S-SW 202 0 min 0,0 UV-I 0 W/m 3,1 C 1,8 C 11,3 km/h (2 Bft)
03.01.2023 03:15 4,6 C 3,9 C 90 % 1028,6 hPa 0,0 l/m 9,7 km/h (2 Bft) S 180 0 min 0,0 UV-I 0 W/m 3,1 C 1,8 C 19,3 km/h (3 Bft)
03.01.2023 03:16 4,6 C 3,9 C 90 % 1028,8 hPa 0,0 l/m 11,3 km/h (2 Bft) S 180 0 min 0,0 UV-I 0 W/m 3,1 C 0,7 C 14,5 km/h (3 Bft)
03.01.2023 03:17 4,6 C 3,9 C 90 % 1028,7 hPa 0,0 l/m 6,4 km/h (2 Bft) S-SW 202 0 min 0,0 UV-I 0 W/m 3,1 C 4,6 C 11,3 km/h (2 Bft)
03.01.2023 03:18 4,6 C 3,9 C 90 % 1028,6 hPa 0,0 l/m 8,0 km/h (2 Bft) S 180 0 min 0,0 UV-I 0 W/m 3,1 C 3,2 C 12,9 km/h (3 Bft)
03.01.2023 03:19 4,6 C 3,9 C 90 % 1028,6 hPa 0,0 l/m 6,4 km/h (2 Bft) S-SW 202 0 min 0,0 UV-I 0 W/m 3,1 C 4,6 C 9,7 km/h (2 Bft)
03.01.2023 03:20 4,6 C 3,9 C 90 % 1028,7 hPa 0,0 l/m 4,8 km/h (1 Bft) S 180 0 min 0,0 UV-I 0 W/m 3,1 C 4,6 C 8,0 km/h (2 Bft)
03.01.2023 03:21 4,6 C 3,9 C 90 % 1028,7 hPa 0,0 l/m 6,4 km/h (2 Bft) S 180 0 min 0,0 UV-I 0 W/m 3,1 C 4,6 C 8,0 km/h (2 Bft)
03.01.2023 03:22 4,6 C 3,9 C 90 % 1028,7 hPa 0,0 l/m 8,0 km/h (2 Bft) S 180 0 min 0,0 UV-I 0 W/m 3,1 C 3,2 C 11,3 km/h (2 Bft)
03.01.2023 03:23 4,6 C 3,9 C 90 % 1028,8 hPa 0,0 l/m 8,0 km/h (2 Bft) S-SW 202 0 min 0,0 UV-I 0 W/m 3,1 C 3,2 C 11,3 km/h (2 Bft)
03.01.2023 03:24 4,6 C 3,9 C 90 % 1028,7 hPa 0,0 l/m 11,3 km/h (2 Bft) S 180 0 min 0,0 UV-I 0 W/m 3,1 C 0,7 C 16,1 km/h (3 Bft)
03.01.2023 03:25 4,6 C 3,9 C 90 % 1028,7 hPa 0,0 l/m 12,9 km/h (3 Bft) S 180 0 min 0,0 UV-I 0 W/m 3,1 C -0,2 C 17,7 km/h (3 Bft)
03.01.2023 03:26 4,6 C 3,9 C 90 % 1028,7 hPa 0,0 l/m 9,7 km/h (2 Bft) S 180 0 min 0,0 UV-I 0 W/m 3,1 C 1,8 C 14,5 km/h (3 Bft)
03.01.2023 03:27 4,6 C 3,9 C 90 % 1028,7 hPa 0,0 l/m 9,7 km/h (2 Bft) S-SW 202 0 min 0,0 UV-I 0 W/m 3,1 C 1,8 C 14,5 km/h (3 Bft)
03.01.2023 03:28 4,6 C 3,9 C 90 % 1028,7 hPa 0,0 l/m 9,7 km/h (2 Bft) S 180 0 min 0,0 UV-I 0 W/m 3,1 C 1,8 C 14,5 km/h (3 Bft)
03.01.2023 03:29 4,6 C 3,9 C 90 % 1028,8 hPa 0,0 l/m 6,4 km/h (2 Bft) S 180 0 min 0,0 UV-I 0 W/m 3,1 C 4,6 C 9,7 km/h (2 Bft)
03.01.2023 03:30 4,6 C 3,9 C 90 % 1028,7 hPa 0,0 l/m 9,7 km/h (2 Bft) S 180 0 min 0,0 UV-I 0 W/m 3,1 C 1,8 C 11,3 km/h (2 Bft)
03.01.2023 03:31 4,6 C 3,9 C 90 % 1028,7 hPa 0,0 l/m 6,4 km/h (2 Bft) S 180 0 min 0,0 UV-I 0 W/m 3,1 C 4,6 C 9,7 km/h (2 Bft)
03.01.2023 03:32 4,6 C 3,9 C 90 % 1028,8 hPa 0,0 l/m 9,7 km/h (2 Bft) S 180 0 min 0,0 UV-I 0 W/m 3,1 C 1,8 C 11,3 km/h (2 Bft)
03.01.2023 03:33 4,6 C 3,9 C 90 % 1028,6 hPa 0,0 l/m 8,0 km/h (2 Bft) S 180 0 min 0,0 UV-I 0 W/m 3,1 C 3,2 C 14,5 km/h (3 Bft)
03.01.2023 03:34 4,6 C 3,9 C 90 % 1028,8 hPa 0,0 l/m 9,7 km/h (2 Bft) S 180 0 min 0,0 UV-I 0 W/m 3,1 C 1,8 C 11,3 km/h (2 Bft)
03.01.2023 03:35 4,6 C 3,9 C 90 % 1028,7 hPa 0,0 l/m 11,3 km/h (2 Bft) S-SW 202 0 min 0,0 UV-I 0 W/m 3,1 C 0,7 C 17,7 km/h (3 Bft)
03.01.2023 03:36 4,6 C 3,9 C 90 % 1028,8 hPa 0,0 l/m 12,9 km/h (3 Bft) S-SW 202 0 min 0,0 UV-I 0 W/m 3,1 C -0,2 C 17,7 km/h (3 Bft)
03.01.2023 03:37 4,6 C 3,9 C 90 % 1028,8 hPa 0,0 l/m 11,3 km/h (2 Bft) S-SW 202 0 min 0,0 UV-I 0 W/m 3,1 C 0,7 C 19,3 km/h (3 Bft)
03.01.2023 03:38 4,6 C 3,9 C 90 % 1028,8 hPa 0,0 l/m 12,9 km/h (3 Bft) S-SW 202 0 min 0,0 UV-I 0 W/m 3,1 C -0,2 C 16,1 km/h (3 Bft)
03.01.2023 03:39 4,6 C 3,9 C 90 % 1028,8 hPa 0,0 l/m 11,3 km/h (2 Bft) S-SW 202 0 min 0,0 UV-I 0 W/m 3,1 C 0,7 C 17,7 km/h (3 Bft)
03.01.2023 03:40 4,6 C 3,9 C 90 % 1028,8 hPa 0,0 l/m 9,7 km/h (2 Bft) S 180 0 min 0,0 UV-I 0 W/m 3,1 C 1,8 C 14,5 km/h (3 Bft)
03.01.2023 03:41 4,6 C 3,9 C 90 % 1028,7 hPa 0,0 l/m 6,4 km/h (2 Bft) S 180 0 min 0,0 UV-I 0 W/m 3,1 C 4,6 C 12,9 km/h (3 Bft)
03.01.2023 03:42 4,6 C 3,9 C 90 % 1028,8 hPa 0,0 l/m 14,5 km/h (3 Bft) S 180 0 min 0,0 UV-I 0 W/m 3,1 C -1,1 C 17,7 km/h (3 Bft)
03.01.2023 03:43 4,6 C 3,9 C 90 % 1028,8 hPa 0,0 l/m 9,7 km/h (2 Bft) S-SW 202 0 min 0,0 UV-I 0 W/m 3,1 C 1,8 C 12,9 km/h (3 Bft)
03.01.2023 03:44 4,6 C 3,9 C 90 % 1028,8 hPa 0,0 l/m 9,7 km/h (2 Bft) S-SW 202 0 min 0,0 UV-I 0 W/m 3,1 C 1,8 C 14,5 km/h (3 Bft)
03.01.2023 03:45 4,6 C 3,9 C 90 % 1028,8 hPa 0,0 l/m 8,0 km/h (2 Bft) S-SW 202 0 min 0,0 UV-I 0 W/m 3,1 C 3,2 C 17,7 km/h (3 Bft)
03.01.2023 03:46 4,6 C 3,9 C 90 % 1028,8 hPa 0,0 l/m 14,5 km/h (3 Bft) S-SW 202 0 min 0,0 UV-I 0 W/m 3,1 C -1,1 C 19,3 km/h (3 Bft)
03.01.2023 03:47 4,5 C 3,9 C 90 % 1028,8 hPa 0,0 l/m 12,9 km/h (3 Bft) S-SW 202 0 min 0,0 UV-I 0 W/m 3,0 C -0,4 C 16,1 km/h (3 Bft)
03.01.2023 03:48 4,6 C 3,9 C 90 % 1028,8 hPa 0,0 l/m 11,3 km/h (2 Bft) S-SW 202 0 min 0,0 UV-I 0 W/m 3,1 C 0,7 C 14,5 km/h (3 Bft)
03.01.2023 03:49 4,5 C 3,9 C 90 % 1028,7 hPa 0,0 l/m 8,0 km/h (2 Bft) S 180 0 min 0,0 UV-I 0 W/m 3,0 C 3,1 C 9,7 km/h (2 Bft)
03.01.2023 03:50 4,5 C 3,9 C 90 % 1028,8 hPa 0,0 l/m 8,0 km/h (2 Bft) S 180 0 min 0,0 UV-I 0 W/m 3,0 C 3,1 C 11,3 km/h (2 Bft)
03.01.2023 03:51 4,5 C 3,9 C 90 % 1028,8 hPa 0,0 l/m 8,0 km/h (2 Bft) S 180 0 min 0,0 UV-I 0 W/m 3,0 C 3,1 C 11,3 km/h (2 Bft)
03.01.2023 03:52 4,6 C 3,9 C 90 % 1028,7 hPa 0,0 l/m 12,9 km/h (3 Bft) S 180 0 min 0,0 UV-I 0 W/m 3,1 C -0,2 C 19,3 km/h (3 Bft)
03.01.2023 03:53 4,5 C 3,9 C 90 % 1028,8 hPa 0,0 l/m 12,9 km/h (3 Bft) S 180 0 min 0,0 UV-I 0 W/m 3,0 C -0,4 C 25,7 km/h (4 Bft)
03.01.2023 03:54 4,5 C 3,9 C 90 % 1028,8 hPa 0,0 l/m 19,3 km/h (3 Bft) S 180 0 min 0,0 UV-I 0 W/m 3,0 C -3,5 C 24,1 km/h (4 Bft)
03.01.2023 03:55 4,5 C 3,9 C 90 % 1028,8 hPa 0,0 l/m 14,5 km/h (3 Bft) S 180 0 min 0,0 UV-I 0 W/m 3,0 C -1,3 C 19,3 km/h (3 Bft)
03.01.2023 03:56 4,5 C 3,9 C 90 % 1028,7 hPa 0,0 l/m 14,5 km/h (3 Bft) S-SW 202 0 min 0,0 UV-I 0 W/m 3,0 C -1,3 C 19,3 km/h (3 Bft)
03.01.2023 03:57 4,5 C 3,9 C 90 % 1028,7 hPa 0,0 l/m 12,9 km/h (3 Bft) S 180 0 min 0,0 UV-I 0 W/m 3,0 C -0,4 C 17,7 km/h (3 Bft)
03.01.2023 03:58 4,5 C 3,9 C 90 % 1028,8 hPa 0,0 l/m 8,0 km/h (2 Bft) S-SW 202 0 min 0,0 UV-I 0 W/m 3,0 C 3,1 C 16,1 km/h (3 Bft)
03.01.2023 03:59 4,5 C 3,9 C 90 % 1028,7 hPa 0,0 l/m 11,3 km/h (2 Bft) S 180 0 min 0,0 UV-I 0 W/m 3,0 C 0,6 C 12,9 km/h (3 Bft)
03.01.2023 04:00 4,4 C 3,9 C 90 % 1028,7 hPa 0,0 l/m 8,0 km/h (2 Bft) S-SW 202 0 min 0,0 UV-I 0 W/m 2,9 C 3,0 C 11,3 km/h (2 Bft)
03.01.2023 04:01 4,5 C 3,9 C 90 % 1028,7 hPa 0,0 l/m 8,0 km/h (2 Bft) S-SW 202 0 min 0,0 UV-I 0 W/m 3,0 C 3,1 C 12,9 km/h (3 Bft)
03.01.2023 04:02 4,5 C 3,9 C 90 % 1028,8 hPa 0,0 l/m 8,0 km/h (2 Bft) S 180 0 min 0,0 UV-I 0 W/m 3,0 C 3,1 C 11,3 km/h (2 Bft)
03.01.2023 04:03 4,5 C 3,9 C 90 % 1028,7 hPa 0,0 l/m 6,4 km/h (2 Bft) S 180 0 min 0,0 UV-I 0 W/m 3,0 C 4,5 C 8,0 km/h (2 Bft)
03.01.2023 04:04 4,5 C 3,9 C 90 % 1028,8 hPa 0,0 l/m 8,0 km/h (2 Bft) S 180 0 min 0,0 UV-I 0 W/m 3,0 C 3,1 C 11,3 km/h (2 Bft)
03.01.2023 04:05 4,5 C 3,9 C 90 % 1028,8 hPa 0,0 l/m 8,0 km/h (2 Bft) S-SW 202 0 min 0,0 UV-I 0 W/m 3,0 C 3,1 C 9,7 km/h (2 Bft)
03.01.2023 04:06 4,5 C 3,9 C 90 % 1028,7 hPa 0,0 l/m 8,0 km/h (2 Bft) S-SW 202 0 min 0,0 UV-I 0 W/m 3,0 C 3,1 C 9,7 km/h (2 Bft)
03.01.2023 04:07 4,4 C 3,9 C 90 % 1028,8 hPa 0,0 l/m 6,4 km/h (2 Bft) S 180 0 min 0,0 UV-I 0 W/m 2,9 C 4,4 C 9,7 km/h (2 Bft)
03.01.2023 04:08 4,4 C 3,9 C 90 % 1028,7 hPa 0,0 l/m 4,8 km/h (1 Bft) S 180 0 min 0,0 UV-I 0 W/m 2,9 C 4,4 C 6,4 km/h (2 Bft)
03.01.2023 04:09 4,5 C 3,9 C 90 % 1028,8 hPa 0,0 l/m 11,3 km/h (2 Bft) S 180 0 min 0,0 UV-I 0 W/m 3,0 C 0,6 C 17,7 km/h (3 Bft)
03.01.2023 04:10 4,4 C 3,9 C 90 % 1028,7 hPa 0,0 l/m 8,0 km/h (2 Bft) S-SW 202 0 min 0,0 UV-I 0 W/m 2,9 C 3,0 C 14,5 km/h (3 Bft)
03.01.2023 04:11 4,4 C 3,9 C 90 % 1028,7 hPa 0,0 l/m 6,4 km/h (2 Bft) S-SW 202 0 min 0,0 UV-I 0 W/m 2,9 C 4,4 C 11,3 km/h (2 Bft)
03.01.2023 04:12 4,4 C 3,9 C 90 % 1028,7 hPa 0,0 l/m 8,0 km/h (2 Bft) S-SW 202 0 min 0,0 UV-I 0 W/m 2,9 C 3,0 C 12,9 km/h (3 Bft)
03.01.2023 04:13 4,4 C 3,9 C 90 % 1028,8 hPa 0,0 l/m 9,7 km/h (2 Bft) S-SW 202 0 min 0,0 UV-I 0 W/m 2,9 C 1,6 C 14,5 km/h (3 Bft)
03.01.2023 04:14 4,4 C 3,9 C 90 % 1028,8 hPa 0,0 l/m 9,7 km/h (2 Bft) S 180 0 min 0,0 UV-I 0 W/m 2,9 C 1,6 C 12,9 km/h (3 Bft)
03.01.2023 04:15 4,4 C 3,9 C 90 % 1028,8 hPa 0,0 l/m 9,7 km/h (2 Bft) S 180 0 min 0,0 UV-I 0 W/m 2,9 C 1,6 C 12,9 km/h (3 Bft)
03.01.2023 04:16 4,4 C 3,9 C 90 % 1028,8 hPa 0,0 l/m 8,0 km/h (2 Bft) S-SW 202 0 min 0,0 UV-I 0 W/m 2,9 C 3,0 C 11,3 km/h (2 Bft)
03.01.2023 04:17 4,4 C 3,9 C 90 % 1028,8 hPa 0,0 l/m 9,7 km/h (2 Bft) S 180 0 min 0,0 UV-I 0 W/m 2,9 C 1,6 C 14,5 km/h (3 Bft)
03.01.2023 04:18 4,4 C 3,9 C 90 % 1028,8 hPa 0,0 l/m 9,7 km/h (2 Bft) S-SW 202 0 min 0,0 UV-I 0 W/m 2,9 C 1,6 C 12,9 km/h (3 Bft)
03.01.2023 04:19 4,4 C 3,9 C 90 % 1028,8 hPa 0,0 l/m 8,0 km/h (2 Bft) S-SW 202 0 min 0,0 UV-I 0 W/m 2,9 C 3,0 C 11,3 km/h (2 Bft)
03.01.2023 04:20 4,4 C 3,9 C 90 % 1028,8 hPa 0,0 l/m 11,3 km/h (2 Bft) S-SW 202 0 min 0,0 UV-I 0 W/m 2,9 C 0,5 C 14,5 km/h (3 Bft)
03.01.2023 04:21 4,4 C 3,9 C 90 % 1028,8 hPa 0,0 l/m 11,3 km/h (2 Bft) S-SW 202 0 min 0,0 UV-I 0 W/m 2,9 C 0,5 C 12,9 km/h (3 Bft)
03.01.2023 04:22 4,4 C 3,9 C 90 % 1028,8 hPa 0,0 l/m 9,7 km/h (2 Bft) S-SW 202 0 min 0,0 UV-I 0 W/m 2,9 C 1,6 C 11,3 km/h (2 Bft)
03.01.2023 04:23 4,4 C 3,9 C 90 % 1028,8 hPa 0,0 l/m 8,0 km/h (2 Bft) SW 225 0 min 0,0 UV-I 0 W/m 2,9 C 3,0 C 9,7 km/h (2 Bft)
03.01.2023 04:24 4,4 C 3,9 C 90 % 1028,8 hPa 0,0 l/m 6,4 km/h (2 Bft) S-SW 202 0 min 0,0 UV-I 0 W/m 2,9 C 4,4 C 9,7 km/h (2 Bft)
03.01.2023 04:25 4,4 C 3,9 C 90 % 1028,8 hPa 0,0 l/m 8,0 km/h (2 Bft) S-SW 202 0 min 0,0 UV-I 0 W/m 2,9 C 3,0 C 12,9 km/h (3 Bft)
03.01.2023 04:26 4,4 C 3,9 C 90 % 1028,8 hPa 0,0 l/m 9,7 km/h (2 Bft) S-SW 202 0 min 0,0 UV-I 0 W/m 2,9 C 1,6 C 11,3 km/h (2 Bft)
03.01.2023 04:27 4,4 C 3,9 C 90 % 1028,9 hPa 0,0 l/m 8,0 km/h (2 Bft) S-SW 202 0 min 0,0 UV-I 0 W/m 2,9 C 3,0 C 11,3 km/h (2 Bft)
03.01.2023 04:28 4,4 C 3,9 C 90 % 1028,8 hPa 0,0 l/m 6,4 km/h (2 Bft) S-SW 202 0 min 0,0 UV-I 0 W/m 2,9 C 4,4 C 6,4 km/h (2 Bft)
03.01.2023 04:29 4,4 C 3,9 C 90 % 1028,8 hPa 0,0 l/m 8,0 km/h (2 Bft) S-SW 202 0 min 0,0 UV-I 0 W/m 2,9 C 3,0 C 11,3 km/h (2 Bft)
03.01.2023 04:30 4,4 C 3,9 C 90 % 1028,8 hPa 0,0 l/m 8,0 km/h (2 Bft) SW 225 0 min 0,0 UV-I 0 W/m 2,9 C 3,0 C 12,9 km/h (3 Bft)
03.01.2023 04:31 4,4 C 3,9 C 90 % 1028,8 hPa 0,0 l/m 12,9 km/h (3 Bft) S 180 0 min 0,0 UV-I 0 W/m 2,9 C -0,5 C 16,1 km/h (3 Bft)
03.01.2023 04:32 4,4 C 3,9 C 90 % 1028,8 hPa 0,0 l/m 8,0 km/h (2 Bft) S 180 0 min 0,0 UV-I 0 W/m 2,9 C 3,0 C 11,3 km/h (2 Bft)
03.01.2023 04:33 4,4 C 3,9 C 90 % 1028,8 hPa 0,0 l/m 6,4 km/h (2 Bft) S-SW 202 0 min 0,0 UV-I 0 W/m 2,9 C 4,4 C 8,0 km/h (2 Bft)
03.01.2023 04:34 4,4 C 3,9 C 90 % 1028,8 hPa 0,0 l/m 8,0 km/h (2 Bft) S 180 0 min 0,0 UV-I 0 W/m 2,9 C 3,0 C 11,3 km/h (2 Bft)
03.01.2023 04:35 4,4 C 3,9 C 90 % 1028,9 hPa 0,0 l/m 9,7 km/h (2 Bft) SW 225 0 min 0,0 UV-I 0 W/m 2,9 C 1,6 C 12,9 km/h (3 Bft)
03.01.2023 04:36 4,4 C 3,9 C 90 % 1028,8 hPa 0,0 l/m 9,7 km/h (2 Bft) S 180 0 min 0,0 UV-I 0 W/m 2,9 C 1,6 C 12,9 km/h (3 Bft)
03.01.2023 04:37 4,4 C 3,9 C 90 % 1028,9 hPa 0,0 l/m 8,0 km/h (2 Bft) SW 225 0 min 0,0 UV-I 0 W/m 2,9 C 3,0 C 11,3 km/h (2 Bft)
03.01.2023 04:38 4,4 C 3,9 C 90 % 1028,8 hPa 0,0 l/m 9,7 km/h (2 Bft) S-SW 202 0 min 0,0 UV-I 0 W/m 2,9 C 1,6 C 12,9 km/h (3 Bft)
03.01.2023 04:39 4,4 C 3,9 C 90 % 1028,8 hPa 0,0 l/m 8,0 km/h (2 Bft) S-SW 202 0 min 0,0 UV-I 0 W/m 2,9 C 3,0 C 11,3 km/h (2 Bft)
03.01.2023 04:40 4,4 C 3,9 C 90 % 1028,9 hPa 0,0 l/m 11,3 km/h (2 Bft) S-SW 202 0 min 0,0 UV-I 0 W/m 2,9 C 0,5 C 12,9 km/h (3 Bft)
03.01.2023 04:41 4,4 C 3,9 C 90 % 1028,8 hPa 0,0 l/m 9,7 km/h (2 Bft) S-SW 202 0 min 0,0 UV-I 0 W/m 2,9 C 1,6 C 12,9 km/h (3 Bft)
03.01.2023 04:42 4,4 C 3,9 C 90 % 1028,8 hPa 0,0 l/m 8,0 km/h (2 Bft) S-SW 202 0 min 0,0 UV-I 0 W/m 2,9 C 3,0 C 11,3 km/h (2 Bft)
03.01.2023 04:43 4,4 C 3,9 C 90 % 1028,9 hPa 0,0 l/m 8,0 km/h (2 Bft) S 180 0 min 0,0 UV-I 0 W/m 2,9 C 3,0 C 9,7 km/h (2 Bft)
03.01.2023 04:44 4,4 C 3,9 C 90 % 1028,8 hPa 0,0 l/m 6,4 km/h (2 Bft) S 180 0 min 0,0 UV-I 0 W/m 2,9 C 4,4 C 8,0 km/h (2 Bft)
03.01.2023 04:45 4,4 C 3,9 C 91 % 1028,8 hPa 0,0 l/m 8,0 km/h (2 Bft) S 180 0 min 0,0 UV-I 0 W/m 3,1 C 3,0 C 11,3 km/h (2 Bft)
03.01.2023 04:46 4,4 C 3,9 C 90 % 1028,8 hPa 0,0 l/m 6,4 km/h (2 Bft) S 180 0 min 0,0 UV-I 0 W/m 2,9 C 4,4 C 9,7 km/h (2 Bft)
03.01.2023 04:47 4,4 C 3,9 C 90 % 1028,7 hPa 0,0 l/m 6,4 km/h (2 Bft) S 180 0 min 0,0 UV-I 0 W/m 2,9 C 4,4 C 11,3 km/h (2 Bft)
03.01.2023 04:48 4,4 C 3,9 C 90 % 1028,9 hPa 0,0 l/m 9,7 km/h (2 Bft) S 180 0 min 0,0 UV-I 0 W/m 2,9 C 1,6 C 14,5 km/h (3 Bft)
03.01.2023 04:49 4,4 C 3,9 C 90 % 1028,8 hPa 0,0 l/m 9,7 km/h (2 Bft) S-SO 157 0 min 0,0 UV-I 0 W/m 2,9 C 1,6 C 12,9 km/h (3 Bft)
03.01.2023 04:50 4,4 C 3,9 C 90 % 1028,8 hPa 0,0 l/m 8,0 km/h (2 Bft) S 180 0 min 0,0 UV-I 0 W/m 2,9 C 3,0 C 12,9 km/h (3 Bft)
03.01.2023 04:51 4,4 C 3,9 C 90 % 1028,7 hPa 0,0 l/m 6,4 km/h (2 Bft) S 180 0 min 0,0 UV-I 0 W/m 2,9 C 4,4 C 9,7 km/h (2 Bft)
03.01.2023 04:52 4,4 C 3,9 C 90 % 1028,8 hPa 0,0 l/m 6,4 km/h (2 Bft) S 180 0 min 0,0 UV-I 0 W/m 2,9 C 4,4 C 11,3 km/h (2 Bft)
03.01.2023 04:53 4,4 C 3,9 C 90 % 1028,8 hPa 0,0 l/m 6,4 km/h (2 Bft) S 180 0 min 0,0 UV-I 0 W/m 2,9 C 4,4 C 11,3 km/h (2 Bft)
03.01.2023 04:54 4,4 C 3,9 C 90 % 1028,8 hPa 0,0 l/m 9,7 km/h (2 Bft) S 180 0 min 0,0 UV-I 0 W/m 2,9 C 1,6 C 14,5 km/h (3 Bft)
03.01.2023 04:55 4,4 C 3,9 C 90 % 1028,8 hPa 0,0 l/m 9,7 km/h (2 Bft) S 180 0 min 0,0 UV-I 0 W/m 2,9 C 1,6 C 12,9 km/h (3 Bft)
03.01.2023 04:56 4,3 C 3,9 C 90 % 1028,8 hPa 0,0 l/m 9,7 km/h (2 Bft) S-SO 157 0 min 0,0 UV-I 0 W/m 2,8 C 1,5 C 16,1 km/h (3 Bft)
03.01.2023 04:57 4,3 C 3,9 C 90 % 1028,7 hPa 0,0 l/m 9,7 km/h (2 Bft) S 180 0 min 0,0 UV-I 0 W/m 2,8 C 1,5 C 12,9 km/h (3 Bft)
03.01.2023 04:58 4,3 C 3,9 C 90 % 1028,8 hPa 0,0 l/m 9,7 km/h (2 Bft) S 180 0 min 0,0 UV-I 0 W/m 2,8 C 1,5 C 14,5 km/h (3 Bft)
03.01.2023 04:59 4,3 C 3,3 C 90 % 1028,8 hPa 0,0 l/m 6,4 km/h (2 Bft) S 180 0 min 0,0 UV-I 0 W/m 2,8 C 4,3 C 11,3 km/h (2 Bft)
03.01.2023 05:00 4,3 C 3,3 C 90 % 1028,8 hPa 0,0 l/m 6,4 km/h (2 Bft) S 180 0 min 0,0 UV-I 0 W/m 2,8 C 4,3 C 9,7 km/h (2 Bft)
03.01.2023 05:01 4,3 C 3,3 C 90 % 1028,8 hPa 0,0 l/m 9,7 km/h (2 Bft) S 180 0 min 0,0 UV-I 0 W/m 2,8 C 1,5 C 9,7 km/h (2 Bft)
03.01.2023 05:02 4,3 C 3,3 C 90 % 1028,9 hPa 0,0 l/m 11,3 km/h (2 Bft) S 180 0 min 0,0 UV-I 0 W/m 2,8 C 0,4 C 19,3 km/h (3 Bft)
03.01.2023 05:03 4,3 C 3,9 C 90 % 1028,8 hPa 0,0 l/m 11,3 km/h (2 Bft) S 180 0 min 0,0 UV-I 0 W/m 2,8 C 0,4 C 14,5 km/h (3 Bft)
03.01.2023 05:04 4,2 C 3,9 C 91 % 1028,8 hPa 0,0 l/m 8,0 km/h (2 Bft) S 180 0 min 0,0 UV-I 0 W/m 2,9 C 2,8 C 12,9 km/h (3 Bft)
03.01.2023 05:05 4,2 C 3,9 C 91 % 1028,9 hPa 0,0 l/m 11,3 km/h (2 Bft) S 180 0 min 0,0 UV-I 0 W/m 2,9 C 0,3 C 14,5 km/h (3 Bft)
03.01.2023 05:06 4,2 C 3,9 C 91 % 1028,8 hPa 0,0 l/m 9,7 km/h (2 Bft) S-SW 202 0 min 0,0 UV-I 0 W/m 2,9 C 1,4 C 12,9 km/h (3 Bft)
03.01.2023 05:07 4,2 C 3,9 C 91 % 1028,9 hPa 0,0 l/m 12,9 km/h (3 Bft) S-SW 202 0 min 0,0 UV-I 0 W/m 2,9 C -0,7 C 16,1 km/h (3 Bft)
03.01.2023 05:08 4,2 C 3,9 C 91 % 1028,9 hPa 0,0 l/m 9,7 km/h (2 Bft) S 180 0 min 0,0 UV-I 0 W/m 2,9 C 1,4 C 12,9 km/h (3 Bft)
03.01.2023 05:09 4,2 C 3,9 C 91 % 1028,9 hPa 0,0 l/m 12,9 km/h (3 Bft) S-SW 202 0 min 0,0 UV-I 0 W/m 2,9 C -0,7 C 16,1 km/h (3 Bft)
03.01.2023 05:10 4,2 C 3,9 C 91 % 1029,0 hPa 0,0 l/m 12,9 km/h (3 Bft) S-SW 202 0 min 0,0 UV-I 0 W/m 2,9 C -0,7 C 16,1 km/h (3 Bft)
03.01.2023 05:11 4,2 C 3,9 C 91 % 1028,9 hPa 0,0 l/m 11,3 km/h (2 Bft) S-SW 202 0 min 0,0 UV-I 0 W/m 2,9 C 0,3 C 17,7 km/h (3 Bft)
03.01.2023 05:12 4,2 C 3,9 C 91 % 1028,9 hPa 0,0 l/m 9,7 km/h (2 Bft) S 180 0 min 0,0 UV-I 0 W/m 2,9 C 1,4 C 14,5 km/h (3 Bft)
03.01.2023 05:13 4,2 C 3,9 C 91 % 1028,9 hPa 0,0 l/m 14,5 km/h (3 Bft) S-SW 202 0 min 0,0 UV-I 0 W/m 2,9 C -1,6 C 16,1 km/h (3 Bft)
03.01.2023 05:14 4,2 C 3,9 C 91 % 1028,9 hPa 0,0 l/m 11,3 km/h (2 Bft) S-SW 202 0 min 0,0 UV-I 0 W/m 2,9 C 0,3 C 14,5 km/h (3 Bft)
03.01.2023 05:15 4,2 C 3,9 C 91 % 1028,9 hPa 0,0 l/m 12,9 km/h (3 Bft) S-SW 202 0 min 0,0 UV-I 0 W/m 2,9 C -0,7 C 17,7 km/h (3 Bft)
03.01.2023 05:16 4,2 C 3,9 C 91 % 1028,9 hPa 0,0 l/m 11,3 km/h (2 Bft) S-SW 202 0 min 0,0 UV-I 0 W/m 2,9 C 0,3 C 12,9 km/h (3 Bft)
03.01.2023 05:17 4,2 C 3,9 C 91 % 1028,8 hPa 0,0 l/m 11,3 km/h (2 Bft) S-SW 202 0 min 0,0 UV-I 0 W/m 2,9 C 0,3 C 14,5 km/h (3 Bft)
03.01.2023 05:18 4,2 C 3,9 C 91 % 1028,9 hPa 0,0 l/m 11,3 km/h (2 Bft) S-SW 202 0 min 0,0 UV-I 0 W/m 2,9 C 0,3 C 14,5 km/h (3 Bft)
03.01.2023 05:19 4,2 C 3,9 C 91 % 1028,9 hPa 0,0 l/m 9,7 km/h (2 Bft) S-SW 202 0 min 0,0 UV-I 0 W/m 2,9 C 1,4 C 12,9 km/h (3 Bft)
03.01.2023 05:20 4,2 C 3,9 C 91 % 1028,9 hPa 0,0 l/m 9,7 km/h (2 Bft) S-SW 202 0 min 0,0 UV-I 0 W/m 2,9 C 1,4 C 14,5 km/h (3 Bft)
03.01.2023 05:21 4,2 C 3,9 C 91 % 1028,9 hPa 0,0 l/m 11,3 km/h (2 Bft) S-SO 157 0 min 0,0 UV-I 0 W/m 2,9 C 0,3 C 17,7 km/h (3 Bft)
03.01.2023 05:22 4,2 C 3,9 C 91 % 1029,0 hPa 0,0 l/m 6,4 km/h (2 Bft) S-SW 202 0 min 0,0 UV-I 0 W/m 2,9 C 4,2 C 8,0 km/h (2 Bft)
03.01.2023 05:23 4,2 C 3,9 C 91 % 1029,0 hPa 0,0 l/m 9,7 km/h (2 Bft) S-SW 202 0 min 0,0 UV-I 0 W/m 2,9 C 1,4 C 12,9 km/h (3 Bft)
03.01.2023 05:24 4,2 C 3,9 C 91 % 1028,9 hPa 0,0 l/m 8,0 km/h (2 Bft) S-SW 202 0 min 0,0 UV-I 0 W/m 2,9 C 2,8 C 11,3 km/h (2 Bft)
03.01.2023 05:25 4,2 C 3,9 C 91 % 1028,9 hPa 0,0 l/m 8,0 km/h (2 Bft) S-SW 202 0 min 0,0 UV-I 0 W/m 2,9 C 2,8 C 12,9 km/h (3 Bft)
03.01.2023 05:26 4,2 C 3,9 C 91 % 1028,9 hPa 0,0 l/m 9,7 km/h (2 Bft) S-SW 202 0 min 0,0 UV-I 0 W/m 2,9 C 1,4 C 11,3 km/h (2 Bft)
03.01.2023 05:27 4,2 C 3,9 C 91 % 1028,9 hPa 0,0 l/m 9,7 km/h (2 Bft) S-SW 202 0 min 0,0 UV-I 0 W/m 2,9 C 1,4 C 11,3 km/h (2 Bft)
03.01.2023 05:28 4,2 C 3,9 C 91 % 1028,9 hPa 0,0 l/m 8,0 km/h (2 Bft) S-SW 202 0 min 0,0 UV-I 0 W/m 2,9 C 2,8 C 11,3 km/h (2 Bft)
03.01.2023 05:29 4,2 C 3,9 C 91 % 1028,9 hPa 0,0 l/m 6,4 km/h (2 Bft) S 180 0 min 0,0 UV-I 0 W/m 2,9 C 4,2 C 9,7 km/h (2 Bft)
03.01.2023 05:30 4,2 C 3,9 C 91 % 1029,0 hPa 0,0 l/m 6,4 km/h (2 Bft) S 180 0 min 0,0 UV-I 0 W/m 2,9 C 4,2 C 9,7 km/h (2 Bft)
03.01.2023 05:31 4,2 C 3,9 C 91 % 1029,0 hPa 0,0 l/m 6,4 km/h (2 Bft) S 180 0 min 0,0 UV-I 0 W/m 2,9 C 4,2 C 8,0 km/h (2 Bft)
03.01.2023 05:32 4,2 C 3,9 C 91 % 1029,0 hPa 0,0 l/m 8,0 km/h (2 Bft) S-SW 202 0 min 0,0 UV-I 0 W/m 2,9 C 2,8 C 9,7 km/h (2 Bft)
03.01.2023 05:33 4,2 C 3,9 C 91 % 1029,0 hPa 0,0 l/m 8,0 km/h (2 Bft) S-SW 202 0 min 0,0 UV-I 0 W/m 2,9 C 2,8 C 11,3 km/h (2 Bft)
03.01.2023 05:34 4,2 C 3,9 C 91 % 1029,0 hPa 0,0 l/m 8,0 km/h (2 Bft) S-SW 202 0 min 0,0 UV-I 0 W/m 2,9 C 2,8 C 9,7 km/h (2 Bft)
03.01.2023 05:35 4,2 C 3,9 C 91 % 1029,0 hPa 0,0 l/m 11,3 km/h (2 Bft) SW 225 0 min 0,0 UV-I 0 W/m 2,9 C 0,3 C 14,5 km/h (3 Bft)
03.01.2023 05:36 4,2 C 3,9 C 91 % 1029,0 hPa 0,0 l/m 11,3 km/h (2 Bft) S-SW 202 0 min 0,0 UV-I 0 W/m 2,9 C 0,3 C 12,9 km/h (3 Bft)
03.01.2023 05:37 4,2 C 3,9 C 91 % 1029,0 hPa 0,0 l/m 9,7 km/h (2 Bft) S-SW 202 0 min 0,0 UV-I 0 W/m 2,9 C 1,4 C 12,9 km/h (3 Bft)
03.01.2023 05:38 4,2 C 3,9 C 91 % 1028,9 hPa 0,0 l/m 6,4 km/h (2 Bft) S-SW 202 0 min 0,0 UV-I 0 W/m 2,9 C 4,2 C 9,7 km/h (2 Bft)
03.01.2023 05:39 4,2 C 3,9 C 91 % 1029,0 hPa 0,0 l/m 9,7 km/h (2 Bft) S 180 0 min 0,0 UV-I 0 W/m 2,9 C 1,4 C 16,1 km/h (3 Bft)
03.01.2023 05:40 4,2 C 3,9 C 91 % 1029,0 hPa 0,0 l/m 8,0 km/h (2 Bft) S-SW 202 0 min 0,0 UV-I 0 W/m 2,9 C 2,8 C 9,7 km/h (2 Bft)
03.01.2023 05:41 4,2 C 3,9 C 91 % 1029,0 hPa 0,0 l/m 8,0 km/h (2 Bft) S-SW 202 0 min 0,0 UV-I 0 W/m 2,9 C 2,8 C 12,9 km/h (3 Bft)
03.01.2023 05:42 4,2 C 3,9 C 91 % 1029,0 hPa 0,0 l/m 9,7 km/h (2 Bft) S-SW 202 0 min 0,0 UV-I 0 W/m 2,9 C 1,4 C 12,9 km/h (3 Bft)
03.01.2023 05:43 4,2 C 3,9 C 91 % 1029,0 hPa 0,0 l/m 8,0 km/h (2 Bft) S 180 0 min 0,0 UV-I 0 W/m 2,9 C 2,8 C 11,3 km/h (2 Bft)
03.01.2023 05:44 4,2 C 3,9 C 91 % 1029,0 hPa 0,0 l/m 9,7 km/h (2 Bft) S 180 0 min 0,0 UV-I 0 W/m 2,9 C 1,4 C 12,9 km/h (3 Bft)
03.01.2023 05:45 4,2 C 3,9 C 91 % 1029,0 hPa 0,0 l/m 9,7 km/h (2 Bft) S 180 0 min 0,0 UV-I 0 W/m 2,9 C 1,4 C 12,9 km/h (3 Bft)
03.01.2023 05:46 4,2 C 3,9 C 91 % 1029,0 hPa 0,0 l/m 6,4 km/h (2 Bft) S 180 0 min 0,0 UV-I 0 W/m 2,9 C 4,2 C 9,7 km/h (2 Bft)
03.01.2023 05:47 4,2 C 3,9 C 91 % 1029,0 hPa 0,0 l/m 6,4 km/h (2 Bft) S 180 0 min 0,0 UV-I 0 W/m 2,9 C 4,2 C 9,7 km/h (2 Bft)
03.01.2023 05:48 4,2 C 3,9 C 91 % 1028,9 hPa 0,0 l/m 6,4 km/h (2 Bft) S 180 0 min 0,0 UV-I 0 W/m 2,9 C 4,2 C 9,7 km/h (2 Bft)
03.01.2023 05:49 4,2 C 3,9 C 91 % 1029,0 hPa 0,0 l/m 6,4 km/h (2 Bft) S-SW 202 0 min 0,0 UV-I 0 W/m 2,9 C 4,2 C 11,3 km/h (2 Bft)
03.01.2023 05:50 4,2 C 3,9 C 91 % 1028,9 hPa 0,0 l/m 11,3 km/h (2 Bft) S-SW 202 0 min 0,0 UV-I 0 W/m 2,9 C 0,3 C 14,5 km/h (3 Bft)
03.01.2023 05:51 4,2 C 3,9 C 91 % 1029,0 hPa 0,0 l/m 12,9 km/h (3 Bft) S-SW 202 0 min 0,0 UV-I 0 W/m 2,9 C -0,7 C 17,7 km/h (3 Bft)
03.01.2023 05:52 4,2 C 3,9 C 91 % 1029,0 hPa 0,0 l/m 12,9 km/h (3 Bft) S-SW 202 0 min 0,0 UV-I 0 W/m 2,9 C -0,7 C 16,1 km/h (3 Bft)
03.01.2023 05:53 4,2 C 3,9 C 91 % 1029,0 hPa 0,0 l/m 8,0 km/h (2 Bft) S-SW 202 0 min 0,0 UV-I 0 W/m 2,9 C 2,8 C 9,7 km/h (2 Bft)
03.01.2023 05:54 4,2 C 3,9 C 91 % 1029,0 hPa 0,0 l/m 8,0 km/h (2 Bft) S-SW 202 0 min 0,0 UV-I 0 W/m 2,9 C 2,8 C 12,9 km/h (3 Bft)
03.01.2023 05:55 4,2 C 3,9 C 91 % 1029,0 hPa 0,0 l/m 9,7 km/h (2 Bft) S-SW 202 0 min 0,0 UV-I 0 W/m 2,9 C 1,4 C 14,5 km/h (3 Bft)
03.01.2023 05:56 4,2 C 3,9 C 91 % 1029,0 hPa 0,0 l/m 9,7 km/h (2 Bft) S-SW 202 0 min 0,0 UV-I 0 W/m 2,9 C 1,4 C 16,1 km/h (3 Bft)
03.01.2023 05:57 4,2 C 3,9 C 91 % 1029,1 hPa 0,0 l/m 11,3 km/h (2 Bft) S-SW 202 0 min 0,0 UV-I 0 W/m 2,9 C 0,3 C 14,5 km/h (3 Bft)
03.01.2023 05:58 4,2 C 3,9 C 91 % 1028,9 hPa 0,0 l/m 8,0 km/h (2 Bft) S-SW 202 0 min 0,0 UV-I 0 W/m 2,9 C 2,8 C 11,3 km/h (2 Bft)
03.01.2023 05:59 4,2 C 3,9 C 91 % 1029,0 hPa 0,0 l/m 9,7 km/h (2 Bft) S 180 0 min 0,0 UV-I 0 W/m 2,9 C 1,4 C 14,5 km/h (3 Bft)
03.01.2023 06:00 4,2 C 3,9 C 91 % 1029,1 hPa 0,0 l/m 8,0 km/h (2 Bft) S-SW 202 0 min 0,0 UV-I 0 W/m 2,9 C 2,8 C 11,3 km/h (2 Bft)
03.01.2023 06:01 4,2 C 3,9 C 91 % 1029,0 hPa 0,0 l/m 11,3 km/h (2 Bft) S 180 0 min 0,0 UV-I 0 W/m 2,9 C 0,3 C 16,1 km/h (3 Bft)
03.01.2023 06:02 4,2 C 3,9 C 91 % 1029,0 hPa 0,0 l/m 11,3 km/h (2 Bft) S-SW 202 0 min 0,0 UV-I 0 W/m 2,9 C 0,3 C 19,3 km/h (3 Bft)
03.01.2023 06:03 4,2 C 3,9 C 91 % 1029,0 hPa 0,0 l/m 14,5 km/h (3 Bft) S-SW 202 0 min 0,0 UV-I 0 W/m 2,9 C -1,6 C 19,3 km/h (3 Bft)
03.01.2023 06:04 4,2 C 3,9 C 91 % 1029,0 hPa 0,0 l/m 12,9 km/h (3 Bft) S 180 0 min 0,0 UV-I 0 W/m 2,9 C -0,7 C 17,7 km/h (3 Bft)
03.01.2023 06:05 4,2 C 3,9 C 91 % 1029,1 hPa 0,0 l/m 11,3 km/h (2 Bft) S 180 0 min 0,0 UV-I 0 W/m 2,9 C 0,3 C 17,7 km/h (3 Bft)
03.01.2023 06:06 4,2 C 3,9 C 91 % 1029,0 hPa 0,0 l/m 9,7 km/h (2 Bft) S-SW 202 0 min 0,0 UV-I 0 W/m 2,9 C 1,4 C 14,5 km/h (3 Bft)
03.01.2023 06:07 4,2 C 3,9 C 91 % 1029,0 hPa 0,0 l/m 14,5 km/h (3 Bft) S-SW 202 0 min 0,0 UV-I 0 W/m 2,9 C -1,6 C 17,7 km/h (3 Bft)
03.01.2023 06:08 4,2 C 3,9 C 91 % 1029,0 hPa 0,0 l/m 11,3 km/h (2 Bft) S-SO 157 0 min 0,0 UV-I 0 W/m 2,9 C 0,3 C 14,5 km/h (3 Bft)
03.01.2023 06:09 4,2 C 3,9 C 91 % 1029,0 hPa 0,0 l/m 9,7 km/h (2 Bft) S 180 0 min 0,0 UV-I 0 W/m 2,9 C 1,4 C 16,1 km/h (3 Bft)
03.01.2023 06:10 4,2 C 3,9 C 91 % 1029,0 hPa 0,0 l/m 4,8 km/h (1 Bft) S 180 0 min 0,0 UV-I 0 W/m 2,9 C 4,2 C 8,0 km/h (2 Bft)
03.01.2023 06:11 4,2 C 3,9 C 91 % 1029,0 hPa 0,0 l/m 8,0 km/h (2 Bft) S 180 0 min 0,0 UV-I 0 W/m 2,9 C 2,8 C 17,7 km/h (3 Bft)
03.01.2023 06:12 4,2 C 3,9 C 91 % 1028,9 hPa 0,0 l/m 9,7 km/h (2 Bft) S-SW 202 0 min 0,0 UV-I 0 W/m 2,9 C 1,4 C 14,5 km/h (3 Bft)
03.01.2023 06:13 4,2 C 3,9 C 91 % 1028,9 hPa 0,0 l/m 8,0 km/h (2 Bft) S-SW 202 0 min 0,0 UV-I 0 W/m 2,9 C 2,8 C 12,9 km/h (3 Bft)
03.01.2023 06:14 4,2 C 3,9 C 91 % 1028,9 hPa 0,0 l/m 11,3 km/h (2 Bft) S 180 0 min 0,0 UV-I 0 W/m 2,9 C 0,3 C 14,5 km/h (3 Bft)
03.01.2023 06:15 4,2 C 3,9 C 91 % 1029,0 hPa 0,0 l/m 12,9 km/h (3 Bft) S-SW 202 0 min 0,0 UV-I 0 W/m 2,9 C -0,7 C 17,7 km/h (3 Bft)
03.01.2023 06:16 4,2 C 3,9 C 91 % 1029,0 hPa 0,0 l/m 11,3 km/h (2 Bft) S-SW 202 0 min 0,0 UV-I 0 W/m 2,9 C 0,3 C 16,1 km/h (3 Bft)
03.01.2023 06:17 4,2 C 3,9 C 91 % 1028,9 hPa 0,0 l/m 12,9 km/h (3 Bft) S-SW 202 0 min 0,0 UV-I 0 W/m 2,9 C -0,7 C 17,7 km/h (3 Bft)
03.01.2023 06:18 4,2 C 3,9 C 91 % 1029,0 hPa 0,0 l/m 9,7 km/h (2 Bft) S 180 0 min 0,0 UV-I 0 W/m 2,9 C 1,4 C 14,5 km/h (3 Bft)
03.01.2023 06:19 4,2 C 3,9 C 91 % 1029,0 hPa 0,0 l/m 9,7 km/h (2 Bft) S 180 0 min 0,0 UV-I 0 W/m 2,9 C 1,4 C 14,5 km/h (3 Bft)
03.01.2023 06:20 4,2 C 3,9 C 91 % 1028,9 hPa 0,0 l/m 9,7 km/h (2 Bft) S 180 0 min 0,0 UV-I 0 W/m 2,9 C 1,4 C 14,5 km/h (3 Bft)
03.01.2023 06:21 4,2 C 3,9 C 91 % 1029,0 hPa 0,0 l/m 6,4 km/h (2 Bft) S 180 0 min 0,0 UV-I 0 W/m 2,9 C 4,2 C 12,9 km/h (3 Bft)
03.01.2023 06:22 4,2 C 3,3 C 91 % 1028,9 hPa 0,0 l/m 12,9 km/h (3 Bft) S-SW 202 0 min 0,0 UV-I 0 W/m 2,9 C -0,7 C 16,1 km/h (3 Bft)
03.01.2023 06:23 4,2 C 3,3 C 91 % 1028,9 hPa 0,0 l/m 12,9 km/h (3 Bft) S-SW 202 0 min 0,0 UV-I 0 W/m 2,9 C -0,7 C 16,1 km/h (3 Bft)
03.01.2023 06:24 4,2 C 3,3 C 91 % 1028,9 hPa 0,0 l/m 12,9 km/h (3 Bft) S-SW 202 0 min 0,0 UV-I 0 W/m 2,9 C -0,7 C 16,1 km/h (3 Bft)
03.01.2023 06:25 4,2 C 3,3 C 91 % 1028,9 hPa 0,0 l/m 11,3 km/h (2 Bft) S-SW 202 0 min 0,0 UV-I 0 W/m 2,9 C 0,3 C 16,1 km/h (3 Bft)
03.01.2023 06:26 4,2 C 3,3 C 91 % 1028,9 hPa 0,0 l/m 8,0 km/h (2 Bft) S 180 0 min 0,0 UV-I 0 W/m 2,9 C 2,8 C 11,3 km/h (2 Bft)
03.01.2023 06:27 4,2 C 3,9 C 91 % 1028,8 hPa 0,0 l/m 8,0 km/h (2 Bft) S 180 0 min 0,0 UV-I 0 W/m 2,9 C 2,8 C 11,3 km/h (2 Bft)
03.01.2023 06:28 4,2 C 3,3 C 91 % 1028,9 hPa 0,0 l/m 8,0 km/h (2 Bft) S-SW 202 0 min 0,0 UV-I 0 W/m 2,9 C 2,8 C 11,3 km/h (2 Bft)
03.01.2023 06:29 4,2 C 3,3 C 91 % 1028,9 hPa 0,0 l/m 9,7 km/h (2 Bft) S-SW 202 0 min 0,0 UV-I 0 W/m 2,9 C 1,4 C 11,3 km/h (2 Bft)
03.01.2023 06:30 4,2 C 3,9 C 91 % 1028,9 hPa 0,0 l/m 6,4 km/h (2 Bft) S 180 0 min 0,0 UV-I 0 W/m 2,9 C 4,2 C 9,7 km/h (2 Bft)
03.01.2023 06:31 4,2 C 3,9 C 91 % 1028,9 hPa 0,0 l/m 8,0 km/h (2 Bft) S-SW 202 0 min 0,0 UV-I 0 W/m 2,9 C 2,8 C 9,7 km/h (2 Bft)
03.01.2023 06:32 4,2 C 3,9 C 91 % 1028,9 hPa 0,0 l/m 8,0 km/h (2 Bft) S-SW 202 0 min 0,0 UV-I 0 W/m 2,9 C 2,8 C 9,7 km/h (2 Bft)
03.01.2023 06:33 4,2 C 3,9 C 91 % 1028,9 hPa 0,0 l/m 8,0 km/h (2 Bft) S-SW 202 0 min 0,0 UV-I 0 W/m 2,9 C 2,8 C 11,3 km/h (2 Bft)
03.01.2023 06:34 4,2 C 3,9 C 91 % 1028,9 hPa 0,0 l/m 9,7 km/h (2 Bft) S 180 0 min 0,0 UV-I 0 W/m 2,9 C 1,4 C 12,9 km/h (3 Bft)
03.01.2023 06:35 4,3 C 3,9 C 91 % 1029,0 hPa 0,0 l/m 8,0 km/h (2 Bft) S 180 0 min 0,0 UV-I 0 W/m 3,0 C 2,9 C 9,7 km/h (2 Bft)
03.01.2023 06:36 4,2 C 3,9 C 91 % 1028,9 hPa 0,0 l/m 6,4 km/h (2 Bft) S 180 0 min 0,0 UV-I 0 W/m 2,9 C 4,2 C 9,7 km/h (2 Bft)
03.01.2023 06:37 4,2 C 3,9 C 91 % 1028,9 hPa 0,0 l/m 4,8 km/h (1 Bft) S 180 0 min 0,0 UV-I 0 W/m 2,9 C 4,2 C 6,4 km/h (2 Bft)
03.01.2023 06:38 4,2 C 3,9 C 91 % 1028,9 hPa 0,0 l/m 9,7 km/h (2 Bft) S 180 0 min 0,0 UV-I 0 W/m 2,9 C 1,4 C 12,9 km/h (3 Bft)
03.01.2023 06:39 4,3 C 3,9 C 91 % 1028,9 hPa 0,0 l/m 8,0 km/h (2 Bft) S 180 0 min 0,0 UV-I 0 W/m 3,0 C 2,9 C 9,7 km/h (2 Bft)
03.01.2023 06:40 4,3 C 3,9 C 91 % 1028,9 hPa 0,0 l/m 8,0 km/h (2 Bft) S-SW 202 0 min 0,0 UV-I 0 W/m 3,0 C 2,9 C 9,7 km/h (2 Bft)
03.01.2023 06:41 4,3 C 3,9 C 91 % 1029,0 hPa 0,0 l/m 6,4 km/h (2 Bft) S 180 0 min 0,0 UV-I 0 W/m 3,0 C 4,3 C 9,7 km/h (2 Bft)
03.01.2023 06:42 4,3 C 3,9 C 91 % 1028,9 hPa 0,0 l/m 8,0 km/h (2 Bft) S-SW 202 0 min 0,0 UV-I 0 W/m 3,0 C 2,9 C 11,3 km/h (2 Bft)
03.01.2023 06:43 4,3 C 3,9 C 91 % 1028,9 hPa 0,0 l/m 6,4 km/h (2 Bft) S-SW 202 0 min 0,0 UV-I 0 W/m 3,0 C 4,3 C 11,3 km/h (2 Bft)
03.01.2023 06:44 4,3 C 3,9 C 91 % 1029,0 hPa 0,0 l/m 6,4 km/h (2 Bft) S 180 0 min 0,0 UV-I 0 W/m 3,0 C 4,3 C 9,7 km/h (2 Bft)
03.01.2023 06:45 4,3 C 3,9 C 91 % 1028,9 hPa 0,0 l/m 8,0 km/h (2 Bft) S 180 0 min 0,0 UV-I 0 W/m 3,0 C 2,9 C 11,3 km/h (2 Bft)
03.01.2023 06:46 4,3 C 3,9 C 91 % 1029,0 hPa 0,0 l/m 12,9 km/h (3 Bft) S 180 0 min 0,0 UV-I 0 W/m 3,0 C -0,6 C 16,1 km/h (3 Bft)
03.01.2023 06:47 4,3 C 3,9 C 91 % 1029,0 hPa 0,0 l/m 11,3 km/h (2 Bft) S 180 0 min 0,0 UV-I 0 W/m 3,0 C 0,4 C 16,1 km/h (3 Bft)
03.01.2023 06:48 4,3 C 3,9 C 91 % 1029,0 hPa 0,0 l/m 9,7 km/h (2 Bft) S 180 0 min 0,0 UV-I 0 W/m 3,0 C 1,5 C 11,3 km/h (2 Bft)
03.01.2023 06:49 4,3 C 3,9 C 91 % 1029,1 hPa 0,0 l/m 11,3 km/h (2 Bft) S 180 0 min 0,0 UV-I 0 W/m 3,0 C 0,4 C 20,9 km/h (4 Bft)
03.01.2023 06:50 4,4 C 3,9 C 91 % 1028,9 hPa 0,0 l/m 17,7 km/h (3 Bft) S 180 0 min 0,0 UV-I 0 W/m 3,1 C -3,0 C 25,7 km/h (4 Bft)
03.01.2023 06:51 4,4 C 3,9 C 91 % 1029,0 hPa 0,0 l/m 14,5 km/h (3 Bft) S 180 0 min 0,0 UV-I 0 W/m 3,1 C -1,4 C 25,7 km/h (4 Bft)
03.01.2023 06:52 4,4 C 3,9 C 91 % 1029,0 hPa 0,0 l/m 14,5 km/h (3 Bft) S 180 0 min 0,0 UV-I 0 W/m 3,1 C -1,4 C 17,7 km/h (3 Bft)
03.01.2023 06:53 4,4 C 3,9 C 91 % 1029,0 hPa 0,0 l/m 16,1 km/h (3 Bft) S-SW 202 0 min 0,0 UV-I 0 W/m 3,1 C -2,2 C 27,4 km/h (4 Bft)
03.01.2023 06:54 4,3 C 3,9 C 91 % 1029,0 hPa 0,0 l/m 14,5 km/h (3 Bft) S-SW 202 0 min 0,0 UV-I 0 W/m 3,0 C -1,5 C 20,9 km/h (4 Bft)
03.01.2023 06:55 4,4 C 3,9 C 91 % 1029,0 hPa 0,0 l/m 12,9 km/h (3 Bft) S-SW 202 0 min 0,0 UV-I 0 W/m 3,1 C -0,5 C 16,1 km/h (3 Bft)
03.01.2023 06:56 4,4 C 3,9 C 91 % 1029,1 hPa 0,0 l/m 11,3 km/h (2 Bft) S-SW 202 0 min 0,0 UV-I 0 W/m 3,1 C 0,5 C 16,1 km/h (3 Bft)
03.01.2023 06:57 4,4 C 3,9 C 91 % 1029,0 hPa 0,0 l/m 14,5 km/h (3 Bft) S-SW 202 0 min 0,0 UV-I 0 W/m 3,1 C -1,4 C 19,3 km/h (3 Bft)
03.01.2023 06:58 4,4 C 3,9 C 91 % 1029,1 hPa 0,0 l/m 9,7 km/h (2 Bft) S-SW 202 0 min 0,0 UV-I 0 W/m 3,1 C 1,6 C 12,9 km/h (3 Bft)
03.01.2023 06:59 4,4 C 3,9 C 91 % 1029,1 hPa 0,0 l/m 11,3 km/h (2 Bft) S-SW 202 0 min 0,0 UV-I 0 W/m 3,1 C 0,5 C 17,7 km/h (3 Bft)
03.01.2023 07:00 4,4 C 3,9 C 91 % 1029,1 hPa 0,0 l/m 12,9 km/h (3 Bft) S-SW 202 0 min 0,0 UV-I 0 W/m 3,1 C -0,5 C 17,7 km/h (3 Bft)
03.01.2023 07:01 4,4 C 3,9 C 91 % 1029,1 hPa 0,0 l/m 14,5 km/h (3 Bft) S 180 0 min 0,0 UV-I 0 W/m 3,1 C -1,4 C 20,9 km/h (4 Bft)
03.01.2023 07:02 4,4 C 3,9 C 91 % 1029,1 hPa 0,0 l/m 14,5 km/h (3 Bft) S 180 0 min 0,0 UV-I 0 W/m 3,1 C -1,4 C 19,3 km/h (3 Bft)
03.01.2023 07:03 4,4 C 3,9 C 91 % 1029,1 hPa 0,0 l/m 11,3 km/h (2 Bft) S 180 0 min 0,0 UV-I 0 W/m 3,1 C 0,5 C 16,1 km/h (3 Bft)
03.01.2023 07:04 4,4 C 3,9 C 91 % 1029,1 hPa 0,0 l/m 12,9 km/h (3 Bft) S 180 0 min 0,0 UV-I 0 W/m 3,1 C -0,5 C 20,9 km/h (4 Bft)
03.01.2023 07:05 4,4 C 3,9 C 91 % 1029,0 hPa 0,0 l/m 16,1 km/h (3 Bft) S-SW 202 0 min 0,0 UV-I 0 W/m 3,1 C -2,2 C 22,5 km/h (4 Bft)
03.01.2023 07:06 4,4 C 3,9 C 91 % 1029,1 hPa 0,0 l/m 14,5 km/h (3 Bft) S-SW 202 0 min 0,0 UV-I 0 W/m 3,1 C -1,4 C 16,1 km/h (3 Bft)
03.01.2023 07:07 4,4 C 3,9 C 91 % 1029,1 hPa 0,0 l/m 11,3 km/h (2 Bft) S-SW 202 0 min 0,0 UV-I 0 W/m 3,1 C 0,5 C 16,1 km/h (3 Bft)
03.01.2023 07:08 4,4 C 3,9 C 91 % 1029,1 hPa 0,0 l/m 9,7 km/h (2 Bft) S-SW 202 0 min 0,0 UV-I 0 W/m 3,1 C 1,6 C 12,9 km/h (3 Bft)
03.01.2023 07:09 4,4 C 3,9 C 91 % 1029,0 hPa 0,0 l/m 12,9 km/h (3 Bft) S 180 0 min 0,0 UV-I 0 W/m 3,1 C -0,5 C 16,1 km/h (3 Bft)
03.01.2023 07:10 4,4 C 3,9 C 91 % 1029,1 hPa 0,0 l/m 14,5 km/h (3 Bft) S 180 0 min 0,0 UV-I 0 W/m 3,1 C -1,4 C 17,7 km/h (3 Bft)
03.01.2023 07:11 4,4 C 3,9 C 91 % 1029,0 hPa 0,0 l/m 8,0 km/h (2 Bft) S 180 0 min 0,0 UV-I 0 W/m 3,1 C 3,0 C 12,9 km/h (3 Bft)
03.01.2023 07:12 4,4 C 3,9 C 91 % 1029,1 hPa 0,0 l/m 11,3 km/h (2 Bft) S-SW 202 0 min 0,0 UV-I 0 W/m 3,1 C 0,5 C 12,9 km/h (3 Bft)
03.01.2023 07:13 4,4 C 3,9 C 91 % 1029,0 hPa 0,0 l/m 9,7 km/h (2 Bft) S 180 0 min 0,0 UV-I 0 W/m 3,1 C 1,6 C 12,9 km/h (3 Bft)
03.01.2023 07:14 4,4 C 3,9 C 91 % 1029,1 hPa 0,0 l/m 11,3 km/h (2 Bft) S 180 0 min 0,0 UV-I 0 W/m 3,1 C 0,5 C 16,1 km/h (3 Bft)
03.01.2023 07:15 4,4 C 3,9 C 91 % 1029,0 hPa 0,0 l/m 9,7 km/h (2 Bft) S 180 0 min 0,0 UV-I 0 W/m 3,1 C 1,6 C 16,1 km/h (3 Bft)
03.01.2023 07:16 4,4 C 3,9 C 91 % 1029,1 hPa 0,0 l/m 12,9 km/h (3 Bft) S 180 0 min 0,0 UV-I 0 W/m 3,1 C -0,5 C 16,1 km/h (3 Bft)
03.01.2023 07:17 4,4 C 3,9 C 91 % 1029,1 hPa 0,0 l/m 12,9 km/h (3 Bft) S 180 0 min 0,0 UV-I 0 W/m 3,1 C -0,5 C 17,7 km/h (3 Bft)
03.01.2023 07:18 4,4 C 3,9 C 91 % 1029,0 hPa 0,0 l/m 9,7 km/h (2 Bft) S 180 0 min 0,0 UV-I 0 W/m 3,1 C 1,6 C 12,9 km/h (3 Bft)
03.01.2023 07:19 4,4 C 3,9 C 91 % 1029,1 hPa 0,0 l/m 9,7 km/h (2 Bft) S 180 0 min 0,0 UV-I 0 W/m 3,1 C 1,6 C 14,5 km/h (3 Bft)
03.01.2023 07:20 4,4 C 3,9 C 91 % 1029,1 hPa 0,0 l/m 6,4 km/h (2 Bft) S-SW 202 0 min 0,0 UV-I 0 W/m 3,1 C 4,4 C 9,7 km/h (2 Bft)
03.01.2023 07:21 4,4 C 3,9 C 91 % 1029,1 hPa 0,0 l/m 8,0 km/h (2 Bft) S 180 0 min 0,0 UV-I 0 W/m 3,1 C 3,0 C 11,3 km/h (2 Bft)
03.01.2023 07:22 4,4 C 3,9 C 91 % 1029,1 hPa 0,0 l/m 9,7 km/h (2 Bft) S 180 0 min 0,0 UV-I 0 W/m 3,1 C 1,6 C 16,1 km/h (3 Bft)
03.01.2023 07:23 4,4 C 3,9 C 91 % 1029,1 hPa 0,0 l/m 9,7 km/h (2 Bft) S 180 0 min 0,0 UV-I 0 W/m 3,1 C 1,6 C 12,9 km/h (3 Bft)
03.01.2023 07:24 4,4 C 3,9 C 91 % 1029,2 hPa 0,0 l/m 11,3 km/h (2 Bft) S 180 0 min 0,0 UV-I 0 W/m 3,1 C 0,5 C 16,1 km/h (3 Bft)
03.01.2023 07:25 4,4 C 3,9 C 91 % 1029,1 hPa 0,0 l/m 11,3 km/h (2 Bft) S 180 0 min 0,0 UV-I 0 W/m 3,1 C 0,5 C 17,7 km/h (3 Bft)
03.01.2023 07:26 4,4 C 3,9 C 91 % 1029,2 hPa 0,0 l/m 11,3 km/h (2 Bft) S 180 0 min 0,0 UV-I 0 W/m 3,1 C 0,5 C 20,9 km/h (4 Bft)
03.01.2023 07:27 4,4 C 3,9 C 91 % 1029,2 hPa 0,0 l/m 9,7 km/h (2 Bft) S 180 0 min 0,0 UV-I 0 W/m 3,1 C 1,6 C 16,1 km/h (3 Bft)
03.01.2023 07:28 4,5 C 3,9 C 91 % 1029,2 hPa 0,0 l/m 9,7 km/h (2 Bft) S 180 0 min 0,0 UV-I 0 W/m 3,2 C 1,7 C 12,9 km/h (3 Bft)
03.01.2023 07:29 4,5 C 3,9 C 91 % 1029,2 hPa 0,0 l/m 12,9 km/h (3 Bft) S 180 0 min 0,0 UV-I 0 W/m 3,2 C -0,4 C 16,1 km/h (3 Bft)
03.01.2023 07:30 4,6 C 3,9 C 91 % 1029,2 hPa 0,0 l/m 11,3 km/h (2 Bft) S 180 0 min 0,0 UV-I 0 W/m 3,3 C 0,7 C 16,1 km/h (3 Bft)
03.01.2023 07:31 4,5 C 3,9 C 91 % 1029,1 hPa 0,0 l/m 12,9 km/h (3 Bft) S-SW 202 0 min 0,0 UV-I 0 W/m 3,2 C -0,4 C 17,7 km/h (3 Bft)
03.01.2023 07:32 4,5 C 3,9 C 91 % 1029,2 hPa 0,0 l/m 12,9 km/h (3 Bft) S 180 0 min 0,0 UV-I 0 W/m 3,2 C -0,4 C 19,3 km/h (3 Bft)
03.01.2023 07:33 4,6 C 3,9 C 91 % 1029,2 hPa 0,0 l/m 11,3 km/h (2 Bft) S 180 0 min 0,0 UV-I 0 W/m 3,3 C 0,7 C 16,1 km/h (3 Bft)
03.01.2023 07:34 4,6 C 3,9 C 91 % 1029,1 hPa 0,0 l/m 11,3 km/h (2 Bft) S 180 0 min 0,0 UV-I 0 W/m 3,3 C 0,7 C 16,1 km/h (3 Bft)
03.01.2023 07:35 4,6 C 3,9 C 91 % 1029,2 hPa 0,0 l/m 12,9 km/h (3 Bft) S 180 0 min 0,0 UV-I 0 W/m 3,3 C -0,2 C 17,7 km/h (3 Bft)
03.01.2023 07:36 4,6 C 3,9 C 91 % 1029,2 hPa 0,0 l/m 11,3 km/h (2 Bft) S-SW 202 0 min 0,0 UV-I 0 W/m 3,3 C 0,7 C 16,1 km/h (3 Bft)
03.01.2023 07:37 4,6 C 3,9 C 91 % 1029,2 hPa 0,0 l/m 14,5 km/h (3 Bft) S 180 0 min 0,0 UV-I 0 W/m 3,3 C -1,1 C 17,7 km/h (3 Bft)
03.01.2023 07:38 4,6 C 3,9 C 91 % 1029,2 hPa 0,0 l/m 12,9 km/h (3 Bft) S 180 0 min 0,0 UV-I 0 W/m 3,3 C -0,2 C 16,1 km/h (3 Bft)
03.01.2023 07:39 4,6 C 3,9 C 91 % 1029,2 hPa 0,0 l/m 9,7 km/h (2 Bft) S 180 0 min 0,0 UV-I 0 W/m 3,3 C 1,8 C 16,1 km/h (3 Bft)
03.01.2023 07:40 4,6 C 3,9 C 91 % 1029,2 hPa 0,0 l/m 8,0 km/h (2 Bft) S-SW 202 0 min 0,0 UV-I 0 W/m 3,3 C 3,2 C 11,3 km/h (2 Bft)
03.01.2023 07:41 4,6 C 3,9 C 91 % 1029,2 hPa 0,0 l/m 9,7 km/h (2 Bft) S 180 0 min 0,0 UV-I 0 W/m 3,3 C 1,8 C 12,9 km/h (3 Bft)
03.01.2023 07:42 4,6 C 3,9 C 91 % 1029,2 hPa 0,0 l/m 6,4 km/h (2 Bft) S 180 0 min 0,0 UV-I 0 W/m 3,3 C 4,6 C 11,3 km/h (2 Bft)
03.01.2023 07:43 4,6 C 3,9 C 91 % 1029,2 hPa 0,0 l/m 9,7 km/h (2 Bft) S 180 0 min 0,0 UV-I 0 W/m 3,3 C 1,8 C 12,9 km/h (3 Bft)
03.01.2023 07:45 4,6 C 3,9 C 91 % 1029,2 hPa 0,0 l/m 13,0 km/h (3 Bft) SO 126 0 min 0,0 UV-I 0 W/m 3,3 C -0,3 C 17,7 km/h (3 Bft)
03.01.2023 07:48 4,6 C 3,9 C 91 % 1029,3 hPa 0,0 l/m 11,0 km/h (2 Bft) S 184 0 min 0,0 UV-I 0 W/m 3,3 C 0,9 C 20,9 km/h (4 Bft)
03.01.2023 07:51 4,7 C 3,9 C 91 % 1029,1 hPa 0,0 l/m 14,3 km/h (3 Bft) S 177 0 min 0,0 UV-I 0 W/m 3,4 C -0,9 C 27,4 km/h (4 Bft)
03.01.2023 07:54 4,7 C 3,9 C 91 % 1029,2 hPa 0,0 l/m 11,4 km/h (2 Bft) SW 220 0 min 0,0 UV-I 0 W/m 3,4 C 0,8 C 19,3 km/h (3 Bft)
03.01.2023 07:57 4,7 C 3,9 C 91 % 1029,3 hPa 0,0 l/m 12,4 km/h (3 Bft) SO 143 0 min 0,0 UV-I 0 W/m 3,4 C 0,2 C 19,3 km/h (3 Bft)
03.01.2023 08:00 4,7 C 3,9 C 91 % 1029,3 hPa 0,0 l/m 10,9 km/h (2 Bft) S 169 0 min 0,0 UV-I 0 W/m 3,4 C 1,1 C 20,9 km/h (4 Bft)
03.01.2023 08:03 4,7 C 3,9 C 91 % 1029,3 hPa 0,0 l/m 10,4 km/h (2 Bft) S 171 0 min 0,0 UV-I 0 W/m 3,4 C 1,5 C 19,3 km/h (3 Bft)
03.01.2023 08:06 4,7 C 4,4 C 91 % 1029,3 hPa 0,0 l/m 12,1 km/h (2 Bft) S-SW 200 0 min 0,0 UV-I 0 W/m 3,4 C 0,3 C 19,3 km/h (3 Bft)
03.01.2023 08:09 4,7 C 4,4 C 91 % 1029,3 hPa 0,0 l/m 12,5 km/h (3 Bft) S 169 0 min 0,0 UV-I 0 W/m 3,4 C 0,1 C 19,3 km/h (3 Bft)
03.01.2023 08:12 4,7 C 4,4 C 91 % 1029,2 hPa 0,0 l/m 10,3 km/h (2 Bft) S-SW 209 0 min 0,0 UV-I 0 W/m 3,4 C 1,5 C 16,1 km/h (3 Bft)
03.01.2023 08:15 4,7 C 4,4 C 91 % 1029,3 hPa 0,0 l/m 10,5 km/h (2 Bft) S-SO 163 0 min 0,0 UV-I 0 W/m 3,4 C 1,4 C 17,7 km/h (3 Bft)
03.01.2023 08:18 4,7 C 4,4 C 91 % 1029,4 hPa 0,0 l/m 10,8 km/h (2 Bft) S 172 0 min 0,0 UV-I 0 W/m 3,4 C 1,2 C 17,7 km/h (3 Bft)
03.01.2023 08:21 4,7 C 4,4 C 91 % 1029,3 hPa 0,0 l/m 11,4 km/h (2 Bft) S 170 0 min 0,0 UV-I 0 W/m 3,4 C 0,8 C 19,3 km/h (3 Bft)
03.01.2023 08:24 4,8 C 4,4 C 91 % 1029,4 hPa 0,0 l/m 10,2 km/h (2 Bft) S 172 0 min 0,0 UV-I 0 W/m 3,5 C 1,7 C 17,7 km/h (3 Bft)
03.01.2023 08:27 4,8 C 4,4 C 91 % 1029,5 hPa 0,0 l/m 11,3 km/h (2 Bft) S 178 0 min 0,0 UV-I 0 W/m 3,5 C 1,0 C 17,7 km/h (3 Bft)
03.01.2023 08:30 4,8 C 4,4 C 91 % 1029,5 hPa 0,0 l/m 12,6 km/h (3 Bft) SO 146 0 min 0,0 UV-I 0 W/m 3,5 C 0,2 C 24,1 km/h (4 Bft)
03.01.2023 08:33 4,8 C 4,4 C 91 % 1029,6 hPa 0,0 l/m 14,5 km/h (3 Bft) S-SW 192 0 min 0,0 UV-I 0 W/m 3,5 C -0,9 C 22,5 km/h (4 Bft)
03.01.2023 08:36 4,8 C 4,4 C 91 % 1029,6 hPa 0,0 l/m 15,2 km/h (3 Bft) S-SO 167 0 min 0,0 UV-I 0 W/m 3,5 C -1,3 C 25,7 km/h (4 Bft)
03.01.2023 08:39 4,8 C 4,4 C 91 % 1029,6 hPa 0,0 l/m 13,8 km/h (3 Bft) S 178 0 min 0,0 UV-I 0 W/m 3,5 C -0,5 C 24,1 km/h (4 Bft)
03.01.2023 08:42 4,8 C 4,4 C 91 % 1029,6 hPa 0,0 l/m 10,0 km/h (2 Bft) S 180 0 min 0,0 UV-I 0 W/m 3,5 C 1,9 C 17,7 km/h (3 Bft)
03.01.2023 08:45 4,8 C 4,4 C 91 % 1029,7 hPa 0,0 l/m 12,4 km/h (3 Bft) S-SW 192 0 min 0,0 UV-I 0 W/m 3,5 C 0,3 C 19,3 km/h (3 Bft)
03.01.2023 08:48 4,8 C 4,4 C 91 % 1029,8 hPa 0,0 l/m 11,2 km/h (2 Bft) S 184 0 min 0,0 UV-I 0 W/m 3,5 C 1,0 C 19,3 km/h (3 Bft)
03.01.2023 08:51 4,8 C 4,4 C 91 % 1029,7 hPa 0,0 l/m 12,7 km/h (3 Bft) S 172 0 min 0,0 UV-I 0 W/m 3,5 C 0,1 C 20,9 km/h (4 Bft)
03.01.2023 08:54 4,9 C 4,4 C 91 % 1029,7 hPa 0,0 l/m 13,5 km/h (3 Bft) S 175 0 min 0,0 UV-I 5 W/m 3,6 C -0,2 C 22,5 km/h (4 Bft)
03.01.2023 08:57 4,9 C 4,4 C 91 % 1029,8 hPa 0,0 l/m 10,5 km/h (2 Bft) S 190 0 min 0,0 UV-I 3 W/m 3,6 C 1,6 C 17,7 km/h (3 Bft)
03.01.2023 09:00 4,9 C 4,4 C 91 % 1029,8 hPa 0,0 l/m 10,7 km/h (2 Bft) S 172 0 min 0,0 UV-I 2 W/m 3,6 C 1,5 C 17,7 km/h (3 Bft)
03.01.2023 09:03 4,9 C 4,4 C 91 % 1029,8 hPa 0,0 l/m 12,1 km/h (2 Bft) S-SW 194 0 min 0,0 UV-I 9 W/m 3,6 C 0,6 C 20,9 km/h (4 Bft)
03.01.2023 09:06 4,9 C 5,0 C 91 % 1029,8 hPa 0,0 l/m 7,7 km/h (2 Bft) S 184 0 min 0,0 UV-I 14 W/m 3,6 C 3,8 C 11,3 km/h (2 Bft)
03.01.2023 09:09 5,0 C 5,0 C 91 % 1029,8 hPa 0,0 l/m 12,7 km/h (3 Bft) S-SO 168 0 min 0,0 UV-I 18 W/m 3,7 C 0,3 C 19,3 km/h (3 Bft)
03.01.2023 09:12 5,1 C 5,0 C 91 % 1029,8 hPa 0,0 l/m 11,9 km/h (2 Bft) S 182 0 min 0,0 UV-I 13 W/m 3,8 C 0,9 C 19,3 km/h (3 Bft)
03.01.2023 09:15 5,1 C 5,0 C 91 % 1029,9 hPa 0,0 l/m 12,7 km/h (3 Bft) S-SO 168 0 min 0,0 UV-I 10 W/m 3,8 C 0,5 C 22,5 km/h (4 Bft)
03.01.2023 09:18 5,1 C 5,0 C 91 % 1029,8 hPa 0,0 l/m 12,3 km/h (3 Bft) S-SO 168 0 min 0,0 UV-I 14 W/m 3,8 C 0,7 C 22,5 km/h (4 Bft)
03.01.2023 09:21 5,1 C 5,0 C 91 % 1029,8 hPa 0,0 l/m 13,0 km/h (3 Bft) S 178 0 min 0,0 UV-I 13 W/m 3,8 C 0,3 C 22,5 km/h (4 Bft)
03.01.2023 09:24 5,2 C 5,0 C 91 % 1029,8 hPa 0,0 l/m 13,5 km/h (3 Bft) S 176 0 min 0,0 UV-I 11 W/m 3,9 C 0,1 C 20,9 km/h (4 Bft)
03.01.2023 09:27 5,2 C 5,0 C 91 % 1029,8 hPa 0,0 l/m 14,4 km/h (3 Bft) S 176 0 min 0,0 UV-I 16 W/m 3,9 C -0,4 C 24,1 km/h (4 Bft)
03.01.2023 09:30 5,3 C 5,0 C 91 % 1029,9 hPa 0,0 l/m 12,9 km/h (3 Bft) S-SO 167 0 min 0,0 UV-I 17 W/m 4,0 C 0,6 C 22,5 km/h (4 Bft)
03.01.2023 09:33 5,2 C 5,0 C 91 % 1029,9 hPa 0,0 l/m 11,5 km/h (2 Bft) S-SW 192 0 min 0,0 UV-I 18 W/m 3,9 C 1,3 C 19,3 km/h (3 Bft)
03.01.2023 09:36 5,3 C 5,0 C 91 % 1029,9 hPa 0,0 l/m 13,2 km/h (3 Bft) S 186 0 min 0,0 UV-I 27 W/m 4,0 C 0,4 C 22,5 km/h (4 Bft)
03.01.2023 09:39 5,3 C 5,0 C 91 % 1029,9 hPa 0,0 l/m 15,1 km/h (3 Bft) S 184 0 min 0,0 UV-I 35 W/m 4,0 C -0,6 C 22,5 km/h (4 Bft)
03.01.2023 09:42 5,3 C 5,0 C 91 % 1029,9 hPa 0,0 l/m 13,1 km/h (3 Bft) S 177 0 min 0,0 UV-I 30 W/m 4,0 C 0,5 C 24,1 km/h (4 Bft)
03.01.2023 09:45 5,4 C 5,0 C 90 % 1029,9 hPa 0,0 l/m 10,0 km/h (2 Bft) S-SO 159 0 min 0,0 UV-I 21 W/m 3,9 C 2,5 C 17,7 km/h (3 Bft)
03.01.2023 09:48 5,4 C 5,0 C 90 % 1030,1 hPa 0,0 l/m 11,4 km/h (2 Bft) S 173 0 min 0,0 UV-I 24 W/m 3,9 C 1,6 C 19,3 km/h (3 Bft)
03.01.2023 09:51 5,4 C 5,0 C 90 % 1030,1 hPa 0,0 l/m 12,8 km/h (3 Bft) S 184 0 min 0,0 UV-I 17 W/m 3,9 C 0,7 C 25,7 km/h (4 Bft)
03.01.2023 09:54 5,4 C 5,6 C 90 % 1030,2 hPa 0,0 l/m 11,5 km/h (2 Bft) S 190 0 min 0,0 UV-I 27 W/m 3,9 C 1,5 C 19,3 km/h (3 Bft)
03.01.2023 09:57 5,5 C 5,6 C 90 % 1030,1 hPa 0,0 l/m 12,4 km/h (3 Bft) S 183 0 min 0,0 UV-I 50 W/m 4,0 C 1,1 C 20,9 km/h (4 Bft)
03.01.2023 10:00 5,5 C 5,6 C 90 % 1030,1 hPa 0,0 l/m 14,5 km/h (3 Bft) S-SW 207 0 min 0,0 UV-I 48 W/m 4,0 C -0,1 C 20,9 km/h (4 Bft)
03.01.2023 10:03 5,6 C 5,6 C 90 % 1030,1 hPa 0,0 l/m 12,5 km/h (3 Bft) S-SW 194 0 min 0,0 UV-I 61 W/m 4,1 C 1,2 C 22,5 km/h (4 Bft)
03.01.2023 10:06 5,6 C 5,6 C 90 % 1030,1 hPa 0,0 l/m 11,7 km/h (2 Bft) S-SO 163 0 min 0,0 UV-I 87 W/m 4,1 C 1,6 C 19,3 km/h (3 Bft)
03.01.2023 10:09 5,7 C 5,6 C 90 % 1030,2 hPa 0,0 l/m 15,5 km/h (3 Bft) S-SW 194 0 min 0,0 UV-I 86 W/m 4,2 C -0,3 C 32,2 km/h (5 Bft)
03.01.2023 10:12 5,6 C 5,6 C 90 % 1030,1 hPa 0,0 l/m 16,1 km/h (3 Bft) S-SO 164 0 min 0,0 UV-I 43 W/m 4,1 C -0,7 C 25,7 km/h (4 Bft)
03.01.2023 10:15 5,6 C 5,6 C 90 % 1030,1 hPa 0,0 l/m 16,7 km/h (3 Bft) S-SO 152 0 min 0,0 UV-I 31 W/m 4,1 C -1,0 C 30,6 km/h (5 Bft)
03.01.2023 10:18 5,6 C 5,6 C 90 % 1030,2 hPa 0,0 l/m 11,7 km/h (2 Bft) S 184 0 min 0,0 UV-I 22 W/m 4,1 C 1,6 C 24,1 km/h (4 Bft)
03.01.2023 10:21 5,6 C 5,6 C 90 % 1030,1 hPa 0,0 l/m 10,9 km/h (2 Bft) S-SW 194 0 min 0,0 UV-I 39 W/m 4,1 C 2,1 C 19,3 km/h (3 Bft)
03.01.2023 10:24 5,6 C 5,6 C 90 % 1030,1 hPa 0,0 l/m 11,1 km/h (2 Bft) S-SO 161 0 min 0,0 UV-I 38 W/m 4,1 C 2,0 C 17,7 km/h (3 Bft)
03.01.2023 10:27 5,6 C 5,6 C 90 % 1030,1 hPa 0,0 l/m 12,7 km/h (3 Bft) S 171 0 min 0,0 UV-I 70 W/m 4,1 C 1,0 C 20,9 km/h (4 Bft)
03.01.2023 10:30 5,6 C 5,6 C 90 % 1030,1 hPa 0,0 l/m 10,4 km/h (2 Bft) S-SW 200 0 min 0,0 UV-I 70 W/m 4,1 C 2,5 C 17,7 km/h (3 Bft)
03.01.2023 10:33 5,7 C 6,1 C 90 % 1030,1 hPa 0,0 l/m 11,8 km/h (2 Bft) S 176 0 min 0,0 UV-I 81 W/m 4,2 C 1,7 C 19,3 km/h (3 Bft)
03.01.2023 10:36 5,8 C 6,1 C 90 % 1030,1 hPa 0,0 l/m 10,1 km/h (2 Bft) S 175 0 min 0,0 UV-I 111 W/m 4,3 C 2,9 C 16,1 km/h (3 Bft)
03.01.2023 10:39 5,9 C 6,1 C 90 % 1030,1 hPa 0,0 l/m 14,7 km/h (3 Bft) S 191 0 min 0,0 UV-I 109 W/m 4,4 C 0,3 C 27,4 km/h (4 Bft)
03.01.2023 10:42 5,9 C 6,1 C 89 % 1030,1 hPa 0,0 l/m 15,2 km/h (3 Bft) S-SO 155 0 min 0,0 UV-I 95 W/m 4,2 C 0,1 C 24,1 km/h (4 Bft)
03.01.2023 10:45 5,9 C 6,1 C 89 % 1030,0 hPa 0,0 l/m 11,8 km/h (2 Bft) S 170 0 min 0,0 UV-I 88 W/m 4,2 C 1,9 C 20,9 km/h (4 Bft)
03.01.2023 10:48 5,9 C 6,1 C 89 % 1030,0 hPa 0,0 l/m 11,3 km/h (2 Bft) S 178 0 min 0,0 UV-I 105 W/m 4,2 C 2,2 C 19,3 km/h (3 Bft)
03.01.2023 10:51 6,1 C 9,4 C 89 % 1029,9 hPa 0,0 l/m 11,4 km/h (2 Bft) S-SO 165 0 min 0,6 UV-I 218 W/m 4,4 C 2,4 C 17,7 km/h (3 Bft)
03.01.2023 10:54 6,2 C 8,9 C 88 % 1030,1 hPa 0,0 l/m 15,8 km/h (3 Bft) S 182 0 min 0,5 UV-I 236 W/m 4,4 C 0,1 C 24,1 km/h (4 Bft)
03.01.2023 10:57 6,3 C 7,8 C 88 % 1030,0 hPa 0,0 l/m 14,2 km/h (3 Bft) S-SW 196 0 min 0,5 UV-I 128 W/m 4,5 C 1,1 C 24,1 km/h (4 Bft)
03.01.2023 11:00 6,2 C 7,2 C 88 % 1030,1 hPa 0,0 l/m 13,6 km/h (3 Bft) S 180 0 min 0,5 UV-I 149 W/m 4,4 C 1,2 C 20,9 km/h (4 Bft)
03.01.2023 11:03 6,2 C 7,8 C 87 % 1030,2 hPa 0,0 l/m 15,5 km/h (3 Bft) S 175 0 min 0,5 UV-I 197 W/m 4,2 C 0,3 C 24,1 km/h (4 Bft)
03.01.2023 11:06 6,3 C 10,0 C 88 % 1030,1 hPa 0,0 l/m 13,4 km/h (3 Bft) S 184 0 min 0,7 UV-I 196 W/m 4,5 C 1,5 C 19,3 km/h (3 Bft)
03.01.2023 11:09 6,4 C 8,9 C 87 % 1030,1 hPa 0,0 l/m 14,1 km/h (3 Bft) S-SO 156 0 min 0,6 UV-I 206 W/m 4,4 C 1,2 C 19,3 km/h (3 Bft)
03.01.2023 11:12 6,3 C 7,2 C 87 % 1030,1 hPa 0,0 l/m 12,7 km/h (3 Bft) S-SO 152 0 min 0,2 UV-I 115 W/m 4,3 C 1,9 C 17,7 km/h (3 Bft)
03.01.2023 11:15 6,2 C 6,7 C 87 % 1030,1 hPa 0,0 l/m 14,2 km/h (3 Bft) S-SW 192 0 min 0,5 UV-I 137 W/m 4,2 C 0,9 C 24,1 km/h (4 Bft)
03.01.2023 11:18 6,2 C 6,7 C 87 % 1030,0 hPa 0,0 l/m 17,5 km/h (3 Bft) S-SW 192 0 min 0,5 UV-I 152 W/m 4,2 C -0,6 C 25,7 km/h (4 Bft)
03.01.2023 11:21 6,2 C 6,7 C 87 % 1030,0 hPa 0,0 l/m 14,6 km/h (3 Bft) S-SW 211 0 min 0,1 UV-I 133 W/m 4,2 C 0,7 C 25,7 km/h (4 Bft)
03.01.2023 11:24 6,2 C 7,8 C 87 % 1030,0 hPa 0,0 l/m 14,7 km/h (3 Bft) S-SW 193 0 min 0,0 UV-I 143 W/m 4,2 C 0,7 C 24,1 km/h (4 Bft)
03.01.2023 11:27 6,3 C 7,2 C 87 % 1030,0 hPa 0,0 l/m 17,2 km/h (3 Bft) S 176 0 min 0,1 UV-I 128 W/m 4,3 C -0,4 C 29,0 km/h (5 Bft)
03.01.2023 11:30 6,2 C 7,8 C 87 % 1030,1 hPa 0,0 l/m 17,3 km/h (3 Bft) S 188 0 min 0,5 UV-I 100 W/m 4,2 C -0,5 C 29,0 km/h (5 Bft)
03.01.2023 11:33 6,2 C 6,7 C 87 % 1030,1 hPa 0,0 l/m 19,0 km/h (3 Bft) S-SW 205 0 min 0,2 UV-I 99 W/m 4,2 C -1,2 C 33,8 km/h (5 Bft)
03.01.2023 11:36 6,2 C 6,7 C 87 % 1030,1 hPa 0,0 l/m 19,4 km/h (3 Bft) S 175 0 min 0,5 UV-I 151 W/m 4,2 C -1,4 C 30,6 km/h (5 Bft)
03.01.2023 11:39 6,2 C 6,7 C 87 % 1030,1 hPa 0,0 l/m 16,9 km/h (3 Bft) SW 214 0 min 0,5 UV-I 183 W/m 4,2 C -0,4 C 27,4 km/h (4 Bft)
03.01.2023 11:42 6,3 C 7,2 C 87 % 1030,0 hPa 0,0 l/m 21,3 km/h (4 Bft) S-SO 161 0 min 0,6 UV-I 223 W/m 4,3 C -2,0 C 41,8 km/h (6 Bft)
03.01.2023 11:45 6,3 C 6,7 C 86 % 1030,0 hPa 0,0 l/m 18,0 km/h (3 Bft) S-SO 159 0 min 0,1 UV-I 141 W/m 4,1 C -0,7 C 35,4 km/h (5 Bft)
03.01.2023 11:48 6,3 C 6,7 C 87 % 1030,0 hPa 0,0 l/m 17,9 km/h (3 Bft) S-SW 208 0 min 0,0 UV-I 104 W/m 4,3 C -0,7 C 33,8 km/h (5 Bft)
03.01.2023 11:51 6,2 C 6,1 C 87 % 1029,9 hPa 0,0 l/m 19,1 km/h (3 Bft) S-SW 195 0 min 0,0 UV-I 64 W/m 4,2 C -1,3 C 29,0 km/h (5 Bft)
03.01.2023 11:54 6,2 C 6,1 C 87 % 1029,9 hPa 0,0 l/m 14,3 km/h (3 Bft) S 177 0 min 0,0 UV-I 48 W/m 4,2 C 0,9 C 22,5 km/h (4 Bft)
03.01.2023 11:57 6,1 C 6,1 C 87 % 1029,9 hPa 0,0 l/m 14,9 km/h (3 Bft) S-SW 198 0 min 0,0 UV-I 90 W/m 4,1 C 0,5 C 32,2 km/h (5 Bft)
03.01.2023 12:00 6,2 C 6,7 C 87 % 1030,0 hPa 0,0 l/m 15,6 km/h (3 Bft) S 177 0 min 0,0 UV-I 124 W/m 4,2 C 0,2 C 24,1 km/h (4 Bft)
03.01.2023 12:03 6,2 C 6,7 C 87 % 1029,8 hPa 0,0 l/m 15,0 km/h (3 Bft) O-SO 121 0 min 0,4 UV-I 145 W/m 4,2 C 0,5 C 24,1 km/h (4 Bft)
03.01.2023 12:06 6,3 C 7,2 C 87 % 1029,8 hPa 0,0 l/m 15,0 km/h (3 Bft) S 187 0 min 0,6 UV-I 174 W/m 4,3 C 0,7 C 27,4 km/h (4 Bft)
03.01.2023 12:09 6,4 C 7,2 C 87 % 1029,9 hPa 0,0 l/m 16,0 km/h (3 Bft) S-SW 192 0 min 0,5 UV-I 172 W/m 4,4 C 0,3 C 22,5 km/h (4 Bft)
03.01.2023 12:12 6,4 C 7,2 C 87 % 1029,7 hPa 0,0 l/m 16,6 km/h (3 Bft) S 178 0 min 0,3 UV-I 146 W/m 4,4 C 0,0 C 27,4 km/h (4 Bft)
03.01.2023 12:15 6,5 C 7,2 C 87 % 1029,8 hPa 0,0 l/m 13,5 km/h (3 Bft) S-SW 196 0 min 0,0 UV-I 125 W/m 4,5 C 1,7 C 20,9 km/h (4 Bft)
03.01.2023 12:18 6,6 C 7,2 C 87 % 1029,8 hPa 0,0 l/m 14,4 km/h (3 Bft) S 179 0 min 0,3 UV-I 126 W/m 4,6 C 1,3 C 29,0 km/h (5 Bft)
03.01.2023 12:21 6,5 C 6,7 C 87 % 1029,8 hPa 0,0 l/m 17,8 km/h (3 Bft) S-SO 166 0 min 0,0 UV-I 96 W/m 4,5 C -0,4 C 32,2 km/h (5 Bft)
03.01.2023 12:24 6,4 C 6,7 C 87 % 1029,9 hPa 0,0 l/m 16,7 km/h (3 Bft) S 174 0 min 0,0 UV-I 93 W/m 4,4 C -0,0 C 27,4 km/h (4 Bft)
03.01.2023 12:27 6,4 C 6,1 C 87 % 1029,9 hPa 0,0 l/m 18,7 km/h (3 Bft) S-SW 203 0 min 0,3 UV-I 82 W/m 4,4 C -0,9 C 37,0 km/h (5 Bft)
03.01.2023 12:30 6,3 C 6,1 C 87 % 1029,8 hPa 0,0 l/m 15,0 km/h (3 Bft) SO 136 0 min 0,5 UV-I 79 W/m 4,3 C 0,7 C 30,6 km/h (5 Bft)
03.01.2023 12:33 6,3 C 7,2 C 87 % 1029,8 hPa 0,0 l/m 15,7 km/h (3 Bft) S-SO 155 0 min 0,8 UV-I 179 W/m 4,3 C 0,3 C 25,7 km/h (4 Bft)
03.01.2023 12:36 6,5 C 8,9 C 87 % 1029,8 hPa 0,0 l/m 14,0 km/h (3 Bft) S-SW 193 3 min 0,8 UV-I 289 W/m 4,5 C 1,4 C 32,2 km/h (5 Bft)
03.01.2023 12:39 6,7 C 9,4 C 86 % 1029,8 hPa 0,0 l/m 15,7 km/h (3 Bft) S-SO 162 0 min 0,8 UV-I 166 W/m 4,5 C 0,8 C 30,6 km/h (5 Bft)
03.01.2023 12:42 6,6 C 10,0 C 86 % 1029,8 hPa 0,0 l/m 17,3 km/h (3 Bft) S 173 3 min 0,8 UV-I 249 W/m 4,4 C -0,0 C 30,6 km/h (5 Bft)
03.01.2023 12:45 6,8 C 8,9 C 86 % 1029,8 hPa 0,0 l/m 13,6 km/h (3 Bft) SW 223 0 min 0,7 UV-I 196 W/m 4,6 C 2,0 C 20,9 km/h (4 Bft)
03.01.2023 12:48 6,8 C 8,3 C 86 % 1029,8 hPa 0,0 l/m 13,4 km/h (3 Bft) S 191 0 min 0,7 UV-I 211 W/m 4,6 C 2,1 C 20,9 km/h (4 Bft)
03.01.2023 12:51 6,8 C 7,8 C 85 % 1029,9 hPa 0,0 l/m 18,1 km/h (3 Bft) S-SW 192 0 min 0,5 UV-I 135 W/m 4,5 C -0,1 C 30,6 km/h (5 Bft)
03.01.2023 12:54 6,7 C 7,2 C 85 % 1029,8 hPa 0,0 l/m 20,0 km/h (4 Bft) S-SW 208 0 min 0,5 UV-I 113 W/m 4,4 C -1,0 C 30,6 km/h (5 Bft)
03.01.2023 12:57 6,6 C 6,7 C 85 % 1029,9 hPa 0,0 l/m 18,6 km/h (3 Bft) S-SW 200 0 min 0,6 UV-I 85 W/m 4,3 C -0,6 C 27,4 km/h (4 Bft)
03.01.2023 13:00 6,6 C 6,7 C 85 % 1029,8 hPa 0,0 l/m 16,4 km/h (3 Bft) S 169 0 min 0,5 UV-I 106 W/m 4,3 C 0,4 C 27,4 km/h (4 Bft)
03.01.2023 13:03 6,4 C 6,7 C 84 % 1029,7 hPa 0,0 l/m 21,7 km/h (4 Bft) S 191 0 min 0,6 UV-I 94 W/m 3,9 C -2,0 C 40,2 km/h (6 Bft)
03.01.2023 13:06 6,4 C 6,1 C 84 % 1029,8 hPa 0,0 l/m 16,2 km/h (3 Bft) S 169 0 min 0,6 UV-I 70 W/m 3,9 C 0,2 C 24,1 km/h (4 Bft)
03.01.2023 13:09 6,3 C 6,1 C 85 % 1029,7 hPa 0,0 l/m 14,2 km/h (3 Bft) S 184 0 min 0,6 UV-I 58 W/m 4,0 C 1,1 C 22,5 km/h (4 Bft)
03.01.2023 13:12 6,2 C 6,1 C 85 % 1029,6 hPa 0,0 l/m 13,3 km/h (3 Bft) S 178 0 min 0,6 UV-I 70 W/m 3,9 C 1,4 C 25,7 km/h (4 Bft)
03.01.2023 13:15 6,2 C 6,7 C 85 % 1029,6 hPa 0,0 l/m 19,2 km/h (3 Bft) S-SW 213 0 min 0,7 UV-I 76 W/m 3,9 C -1,3 C 37,0 km/h (5 Bft)
03.01.2023 13:18 6,3 C 7,2 C 85 % 1029,6 hPa 0,0 l/m 14,8 km/h (3 Bft) SW 221 0 min 0,7 UV-I 97 W/m 4,0 C 0,7 C 24,1 km/h (4 Bft)
03.01.2023 13:21 6,3 C 6,7 C 85 % 1029,5 hPa 0,0 l/m 15,5 km/h (3 Bft) S 182 0 min 0,2 UV-I 55 W/m 4,0 C 0,4 C 20,9 km/h (4 Bft)
03.01.2023 13:24 6,2 C 6,7 C 85 % 1029,5 hPa 0,0 l/m 14,5 km/h (3 Bft) S-SW 193 0 min 0,5 UV-I 95 W/m 3,9 C 0,8 C 29,0 km/h (5 Bft)
03.01.2023 13:27 6,4 C 7,2 C 85 % 1029,5 hPa 0,0 l/m 11,1 km/h (2 Bft) S-SW 202 0 min 0,6 UV-I 188 W/m 4,1 C 2,9 C 20,9 km/h (4 Bft)
03.01.2023 13:30 6,4 C 6,7 C 85 % 1029,4 hPa 0,0 l/m 15,0 km/h (3 Bft) S-SW 195 0 min 0,0 UV-I 75 W/m 4,1 C 0,8 C 20,9 km/h (4 Bft)
03.01.2023 13:33 6,3 C 6,1 C 85 % 1029,5 hPa 0,0 l/m 14,1 km/h (3 Bft) S-SW 198 0 min 0,0 UV-I 45 W/m 4,0 C 1,1 C 22,5 km/h (4 Bft)
03.01.2023 13:36 6,3 C 6,1 C 85 % 1029,5 hPa 0,0 l/m 11,6 km/h (2 Bft) SW 226 0 min 0,0 UV-I 39 W/m 4,0 C 2,5 C 17,7 km/h (3 Bft)
03.01.2023 13:39 6,1 C 5,6 C 85 % 1029,6 hPa 0,0 l/m 15,8 km/h (3 Bft) SW 214 0 min 0,0 UV-I 34 W/m 3,8 C 0,0 C 25,7 km/h (4 Bft)
03.01.2023 13:42 6,0 C 5,6 C 85 % 1029,4 hPa 0,0 l/m 16,3 km/h (3 Bft) S-SW 209 0 min 0,0 UV-I 39 W/m 3,7 C -0,3 C 25,7 km/h (4 Bft)
03.01.2023 13:45 5,9 C 5,6 C 86 % 1029,5 hPa 0,0 l/m 14,3 km/h (3 Bft) S-SW 211 0 min 0,0 UV-I 47 W/m 3,7 C 0,5 C 20,9 km/h (4 Bft)
03.01.2023 13:48 5,8 C 6,1 C 86 % 1029,4 hPa 0,0 l/m 11,2 km/h (2 Bft) S-SW 197 0 min 0,1 UV-I 38 W/m 3,6 C 2,2 C 16,1 km/h (3 Bft)
03.01.2023 13:51 5,8 C 6,7 C 86 % 1029,4 hPa 0,0 l/m 18,5 km/h (3 Bft) S-SW 192 0 min 0,6 UV-I 113 W/m 3,6 C -1,5 C 29,0 km/h (5 Bft)
03.01.2023 13:54 6,1 C 9,4 C 85 % 1029,5 hPa 0,0 l/m 18,6 km/h (3 Bft) S-SW 192 0 min 0,7 UV-I 186 W/m 3,8 C -1,2 C 27,4 km/h (4 Bft)
03.01.2023 13:57 6,3 C 10,0 C 85 % 1029,5 hPa 0,0 l/m 18,5 km/h (3 Bft) S 189 3 min 0,8 UV-I 284 W/m 4,0 C -0,9 C 27,4 km/h (4 Bft)
03.01.2023 14:00 6,4 C 8,9 C 84 % 1029,5 hPa 0,0 l/m 16,4 km/h (3 Bft) S-SW 201 0 min 0,6 UV-I 190 W/m 3,9 C 0,1 C 24,1 km/h (4 Bft)
03.01.2023 14:03 6,4 C 7,8 C 83 % 1029,4 hPa 0,0 l/m 20,7 km/h (4 Bft) SW 214 0 min 0,6 UV-I 153 W/m 3,7 C -1,6 C 30,6 km/h (5 Bft)
03.01.2023 14:06 6,5 C 7,8 C 82 % 1029,4 hPa 0,0 l/m 18,0 km/h (3 Bft) S-SW 203 0 min 0,5 UV-I 192 W/m 3,7 C -0,4 C 29,0 km/h (5 Bft)
03.01.2023 14:09 6,6 C 7,8 C 81 % 1029,5 hPa 0,0 l/m 21,1 km/h (4 Bft) S-SW 194 0 min 0,5 UV-I 156 W/m 3,6 C -1,5 C 38,6 km/h (5 Bft)
03.01.2023 14:12 6,5 C 7,2 C 81 % 1029,4 hPa 0,0 l/m 22,2 km/h (4 Bft) S-SW 199 0 min 0,5 UV-I 137 W/m 3,5 C -2,0 C 37,0 km/h (5 Bft)
03.01.2023 14:15 6,4 C 7,2 C 81 % 1029,4 hPa 0,0 l/m 21,5 km/h (4 Bft) SW 227 0 min 0,5 UV-I 130 W/m 3,4 C -1,9 C 32,2 km/h (5 Bft)
03.01.2023 14:18 6,4 C 7,2 C 81 % 1029,4 hPa 0,0 l/m 21,1 km/h (4 Bft) S-SO 166 0 min 0,5 UV-I 131 W/m 3,4 C -1,8 C 30,6 km/h (5 Bft)
03.01.2023 14:21 6,3 C 6,7 C 81 % 1029,4 hPa 0,0 l/m 20,1 km/h (4 Bft) S-SW 192 0 min 0,5 UV-I 101 W/m 3,3 C -1,5 C 32,2 km/h (5 Bft)
03.01.2023 14:24 6,3 C 6,7 C 81 % 1029,4 hPa 0,0 l/m 18,2 km/h (3 Bft) S-SW 200 0 min 0,5 UV-I 107 W/m 3,3 C -0,8 C 25,7 km/h (4 Bft)
03.01.2023 14:27 6,3 C 6,7 C 81 % 1029,4 hPa 0,0 l/m 22,6 km/h (4 Bft) S 185 0 min 0,0 UV-I 107 W/m 3,3 C -2,4 C 33,8 km/h (5 Bft)
03.01.2023 14:30 6,3 C 6,7 C 81 % 1029,4 hPa 0,0 l/m 20,6 km/h (4 Bft) S 187 0 min 0,0 UV-I 94 W/m 3,3 C -1,7 C 40,2 km/h (6 Bft)
03.01.2023 14:33 6,3 C 7,8 C 81 % 1029,4 hPa 0,0 l/m 23,2 km/h (4 Bft) S 188 0 min 0,5 UV-I 176 W/m 3,3 C -2,6 C 30,6 km/h (5 Bft)
03.01.2023 14:36 6,4 C 7,8 C 81 % 1029,4 hPa 0,0 l/m 20,3 km/h (4 Bft) S-SW 192 0 min 0,4 UV-I 174 W/m 3,4 C -1,5 C 38,6 km/h (5 Bft)
03.01.2023 14:39 6,3 C 7,2 C 81 % 1029,3 hPa 0,0 l/m 21,2 km/h (4 Bft) S 186 0 min 0,4 UV-I 123 W/m 3,3 C -1,9 C 29,0 km/h (5 Bft)
03.01.2023 14:42 6,2 C 7,2 C 81 % 1029,4 hPa 0,0 l/m 19,2 km/h (3 Bft) S-SW 193 0 min 0,1 UV-I 145 W/m 3,2 C -1,3 C 27,4 km/h (4 Bft)
03.01.2023 14:45 6,2 C 6,7 C 81 % 1029,4 hPa 0,0 l/m 18,6 km/h (3 Bft) S-SW 204 0 min 0,0 UV-I 105 W/m 3,2 C -1,1 C 32,2 km/h (5 Bft)
03.01.2023 14:48 6,1 C 6,1 C 81 % 1029,4 hPa 0,0 l/m 19,4 km/h (3 Bft) S 187 0 min 0,0 UV-I 64 W/m 3,1 C -1,5 C 29,0 km/h (5 Bft)
03.01.2023 14:51 6,1 C 6,1 C 82 % 1029,5 hPa 0,0 l/m 18,0 km/h (3 Bft) S 169 0 min 0,0 UV-I 86 W/m 3,3 C -1,0 C 27,4 km/h (4 Bft)
03.01.2023 14:54 6,0 C 6,1 C 82 % 1029,5 hPa 0,0 l/m 15,2 km/h (3 Bft) S 182 0 min 0,0 UV-I 85 W/m 3,2 C 0,2 C 22,5 km/h (4 Bft)
03.01.2023 14:57 5,9 C 5,6 C 82 % 1029,4 hPa 0,0 l/m 20,8 km/h (4 Bft) S-SW 203 0 min 0,0 UV-I 64 W/m 3,1 C -2,3 C 30,6 km/h (5 Bft)
03.01.2023 15:00 5,8 C 5,6 C 83 % 1029,5 hPa 0,0 l/m 19,4 km/h (3 Bft) S 190 0 min 0,0 UV-I 41 W/m 3,1 C -1,9 C 27,4 km/h (4 Bft)
03.01.2023 15:03 5,7 C 5,6 C 83 % 1029,4 hPa 0,0 l/m 21,6 km/h (4 Bft) S 182 0 min 0,0 UV-I 58 W/m 3,0 C -2,9 C 33,8 km/h (5 Bft)
03.01.2023 15:06 5,7 C 5,6 C 83 % 1029,5 hPa 0,0 l/m 18,1 km/h (3 Bft) S-SW 196 0 min 0,0 UV-I 68 W/m 3,0 C -1,5 C 25,7 km/h (4 Bft)
03.01.2023 15:09 5,7 C 5,6 C 84 % 1029,4 hPa 0,0 l/m 16,5 km/h (3 Bft) S 175 0 min 0,0 UV-I 72 W/m 3,2 C -0,8 C 24,1 km/h (4 Bft)
03.01.2023 15:12 5,7 C 5,6 C 84 % 1029,4 hPa 0,0 l/m 17,9 km/h (3 Bft) S 183 0 min 0,0 UV-I 53 W/m 3,2 C -1,4 C 29,0 km/h (5 Bft)
03.01.2023 15:15 5,7 C 5,6 C 84 % 1029,4 hPa 0,0 l/m 16,7 km/h (3 Bft) S-SW 208 0 min 0,0 UV-I 64 W/m 3,2 C -0,9 C 27,4 km/h (4 Bft)
03.01.2023 15:18 5,7 C 5,6 C 84 % 1029,4 hPa 0,0 l/m 19,5 km/h (3 Bft) SW 215 0 min 0,0 UV-I 54 W/m 3,2 C -2,1 C 29,0 km/h (5 Bft)
03.01.2023 15:21 5,7 C 5,6 C 83 % 1029,3 hPa 0,0 l/m 18,0 km/h (3 Bft) S-SW 192 0 min 0,0 UV-I 43 W/m 3,0 C -1,5 C 27,4 km/h (4 Bft)
03.01.2023 15:24 5,7 C 5,6 C 83 % 1029,4 hPa 0,0 l/m 15,6 km/h (3 Bft) S-SW 198 0 min 0,0 UV-I 52 W/m 3,0 C -0,4 C 24,1 km/h (4 Bft)
03.01.2023 15:27 5,6 C 5,0 C 83 % 1029,4 hPa 0,0 l/m 12,8 km/h (3 Bft) S-SW 209 0 min 0,0 UV-I 48 W/m 2,9 C 1,0 C 17,7 km/h (3 Bft)
03.01.2023 15:30 5,6 C 5,0 C 84 % 1029,5 hPa 0,0 l/m 15,0 km/h (3 Bft) S-SW 194 0 min 0,0 UV-I 51 W/m 3,1 C -0,2 C 24,1 km/h (4 Bft)
03.01.2023 15:33 5,6 C 5,6 C 84 % 1029,4 hPa 0,0 l/m 14,5 km/h (3 Bft) S 190 0 min 0,0 UV-I 58 W/m 3,1 C 0,1 C 19,3 km/h (3 Bft)
03.01.2023 15:36 5,7 C 5,6 C 84 % 1029,6 hPa 0,0 l/m 11,3 km/h (2 Bft) S-SW 200 0 min 0,0 UV-I 75 W/m 3,2 C 2,0 C 16,1 km/h (3 Bft)
03.01.2023 15:39 5,6 C 5,6 C 84 % 1029,5 hPa 0,0 l/m 8,0 km/h (2 Bft) S 181 0 min 0,0 UV-I 45 W/m 3,1 C 4,2 C 14,5 km/h (3 Bft)
03.01.2023 15:42 5,6 C 5,0 C 84 % 1029,5 hPa 0,0 l/m 10,5 km/h (2 Bft) S-SW 196 0 min 0,0 UV-I 34 W/m 3,1 C 2,4 C 19,3 km/h (3 Bft)
03.01.2023 15:45 5,5 C 5,0 C 84 % 1029,4 hPa 0,0 l/m 12,6 km/h (3 Bft) S 171 0 min 0,0 UV-I 35 W/m 3,0 C 1,0 C 22,5 km/h (4 Bft)
03.01.2023 15:48 5,4 C 5,0 C 85 % 1029,5 hPa 0,0 l/m 11,7 km/h (2 Bft) S 188 0 min 0,0 UV-I 31 W/m 3,1 C 1,4 C 17,7 km/h (3 Bft)
03.01.2023 15:51 5,4 C 5,0 C 85 % 1029,5 hPa 0,0 l/m 16,3 km/h (3 Bft) S 173 0 min 0,0 UV-I 24 W/m 3,1 C -1,1 C 25,7 km/h (4 Bft)
03.01.2023 15:54 5,5 C 5,0 C 85 % 1029,4 hPa 0,0 l/m 14,4 km/h (3 Bft) S 190 0 min 0,0 UV-I 30 W/m 3,2 C -0,0 C 22,5 km/h (4 Bft)
03.01.2023 15:57 5,6 C 5,0 C 85 % 1029,5 hPa 0,0 l/m 10,7 km/h (2 Bft) S 188 0 min 0,0 UV-I 31 W/m 3,3 C 2,3 C 17,7 km/h (3 Bft)
03.01.2023 16:00 5,6 C 5,6 C 85 % 1029,6 hPa 0,0 l/m 8,4 km/h (2 Bft) S-SW 192 0 min 0,0 UV-I 31 W/m 3,3 C 3,9 C 14,5 km/h (3 Bft)
03.01.2023 16:03 5,6 C 6,7 C 85 % 1029,6 hPa 0,0 l/m 13,8 km/h (3 Bft) W-SW 250 0 min 0,0 UV-I 41 W/m 3,3 C 0,4 C 20,9 km/h (4 Bft)
03.01.2023 16:06 5,7 C 6,1 C 85 % 1029,5 hPa 0,0 l/m 15,0 km/h (3 Bft) S-SW 203 0 min 0,0 UV-I 33 W/m 3,4 C -0,1 C 27,4 km/h (4 Bft)
03.01.2023 16:09 5,8 C 5,6 C 85 % 1029,7 hPa 0,0 l/m 13,5 km/h (3 Bft) S-SW 200 0 min 0,0 UV-I 38 W/m 3,5 C 0,8 C 20,9 km/h (4 Bft)
03.01.2023 16:12 5,8 C 5,6 C 84 % 1029,6 hPa 0,0 l/m 14,5 km/h (3 Bft) S-SW 194 0 min 0,0 UV-I 38 W/m 3,3 C 0,3 C 29,0 km/h (5 Bft)
03.01.2023 16:15 5,7 C 5,0 C 83 % 1029,5 hPa 0,0 l/m 18,2 km/h (3 Bft) S 180 0 min 0,0 UV-I 20 W/m 3,0 C -1,5 C 30,6 km/h (5 Bft)
03.01.2023 16:18 5,6 C 5,0 C 83 % 1029,5 hPa 0,0 l/m 17,2 km/h (3 Bft) S-SW 204 0 min 0,0 UV-I 15 W/m 2,9 C -1,2 C 32,2 km/h (5 Bft)
03.01.2023 16:21 5,4 C 4,4 C 83 % 1029,5 hPa 0,0 l/m 19,2 km/h (3 Bft) S 175 0 min 0,0 UV-I 12 W/m 2,7 C -2,3 C 29,0 km/h (5 Bft)
03.01.2023 16:24 5,3 C 4,4 C 83 % 1029,5 hPa 0,0 l/m 15,2 km/h (3 Bft) S 177 0 min 0,0 UV-I 11 W/m 2,7 C -0,7 C 22,5 km/h (4 Bft)
03.01.2023 16:27 5,2 C 4,4 C 83 % 1029,5 hPa 0,0 l/m 13,7 km/h (3 Bft) S 175 0 min 0,0 UV-I 10 W/m 2,6 C 0,0 C 24,1 km/h (4 Bft)
03.01.2023 16:30 5,1 C 4,4 C 83 % 1029,4 hPa 0,0 l/m 12,6 km/h (3 Bft) S-SW 192 0 min 0,0 UV-I 9 W/m 2,5 C 0,5 C 22,5 km/h (4 Bft)
03.01.2023 16:33 5,0 C 3,9 C 83 % 1029,5 hPa 0,0 l/m 9,0 km/h (2 Bft) S-SO 163 0 min 0,0 UV-I 7 W/m 2,4 C 2,8 C 16,1 km/h (3 Bft)
03.01.2023 16:36 4,9 C 3,3 C 84 % 1029,5 hPa 0,0 l/m 8,7 km/h (2 Bft) S 188 0 min 0,0 UV-I 7 W/m 2,4 C 2,9 C 14,5 km/h (3 Bft)
03.01.2023 16:39 4,9 C 3,9 C 84 % 1029,4 hPa 0,0 l/m 14,7 km/h (3 Bft) S 180 0 min 0,0 UV-I 5 W/m 2,4 C -0,9 C 27,4 km/h (4 Bft)
03.01.2023 16:42 4,9 C 3,9 C 84 % 1029,4 hPa 0,0 l/m 11,8 km/h (2 Bft) S-SO 165 0 min 0,0 UV-I 3 W/m 2,4 C 0,8 C 19,3 km/h (3 Bft)
03.01.2023 16:45 4,8 C 3,9 C 85 % 1029,5 hPa 0,0 l/m 13,4 km/h (3 Bft) S-SO 164 0 min 0,0 UV-I 0 W/m 2,5 C -0,3 C 22,5 km/h (4 Bft)
03.01.2023 16:48 4,8 C 3,9 C 85 % 1029,6 hPa 0,0 l/m 11,5 km/h (2 Bft) S 176 0 min 0,0 UV-I 0 W/m 2,5 C 0,8 C 17,7 km/h (3 Bft)
03.01.2023 16:51 4,7 C 3,3 C 85 % 1029,5 hPa 0,0 l/m 13,5 km/h (3 Bft) S 170 0 min 0,0 UV-I 0 W/m 2,4 C -0,5 C 25,7 km/h (4 Bft)
03.01.2023 16:54 4,7 C 3,3 C 85 % 1029,5 hPa 0,0 l/m 11,8 km/h (2 Bft) S 175 0 min 0,0 UV-I 0 W/m 2,4 C 0,5 C 19,3 km/h (3 Bft)
03.01.2023 16:57 4,6 C 3,3 C 86 % 1029,5 hPa 0,0 l/m 12,6 km/h (3 Bft) S 191 0 min 0,0 UV-I 0 W/m 2,5 C -0,1 C 20,9 km/h (4 Bft)
03.01.2023 17:00 4,6 C 3,3 C 86 % 1029,5 hPa 0,0 l/m 11,9 km/h (2 Bft) S-SO 156 0 min 0,0 UV-I 0 W/m 2,5 C 0,4 C 19,3 km/h (3 Bft)
03.01.2023 17:03 4,6 C 3,3 C 86 % 1029,6 hPa 0,0 l/m 14,0 km/h (3 Bft) S 187 0 min 0,0 UV-I 0 W/m 2,5 C -0,9 C 22,5 km/h (4 Bft)
03.01.2023 17:06 4,6 C 3,3 C 86 % 1029,6 hPa 0,0 l/m 15,3 km/h (3 Bft) S 178 0 min 0,0 UV-I 0 W/m 2,5 C -1,6 C 24,1 km/h (4 Bft)
03.01.2023 17:09 4,6 C 3,3 C 86 % 1029,6 hPa 0,0 l/m 14,2 km/h (3 Bft) S 186 0 min 0,0 UV-I 0 W/m 2,5 C -1,0 C 20,9 km/h (4 Bft)
03.01.2023 17:12 4,6 C 3,3 C 86 % 1029,6 hPa 0,0 l/m 14,0 km/h (3 Bft) S 170 0 min 0,0 UV-I 0 W/m 2,5 C -0,9 C 24,1 km/h (4 Bft)
03.01.2023 17:15 4,6 C 3,9 C 86 % 1029,8 hPa 0,0 l/m 13,8 km/h (3 Bft) S 177 0 min 0,0 UV-I 0 W/m 2,5 C -0,8 C 20,9 km/h (4 Bft)
03.01.2023 17:18 4,7 C 3,9 C 86 % 1029,6 hPa 0,0 l/m 17,6 km/h (3 Bft) S 189 0 min 0,0 UV-I 0 W/m 2,6 C -2,5 C 25,7 km/h (4 Bft)
03.01.2023 17:21 4,8 C 4,4 C 86 % 1029,5 hPa 0,0 l/m 20,3 km/h (4 Bft) S 175 0 min 0,0 UV-I 0 W/m 2,7 C -3,5 C 29,0 km/h (5 Bft)
03.01.2023 17:24 4,8 C 3,9 C 85 % 1029,4 hPa 0,0 l/m 15,7 km/h (3 Bft) SW 216 0 min 0,0 UV-I 0 W/m 2,5 C -1,5 C 27,4 km/h (4 Bft)
03.01.2023 17:27 4,8 C 4,4 C 85 % 1029,4 hPa 0,0 l/m 17,1 km/h (3 Bft) S-SW 198 0 min 0,0 UV-I 0 W/m 2,5 C -2,2 C 29,0 km/h (5 Bft)
03.01.2023 17:30 4,9 C 4,4 C 85 % 1029,5 hPa 0,0 l/m 16,9 km/h (3 Bft) S 178 0 min 0,0 UV-I 0 W/m 2,6 C -2,0 C 25,7 km/h (4 Bft)
03.01.2023 17:33 4,8 C 3,9 C 85 % 1029,6 hPa 0,0 l/m 14,3 km/h (3 Bft) SW 217 0 min 0,0 UV-I 0 W/m 2,5 C -0,8 C 20,9 km/h (4 Bft)
03.01.2023 17:36 4,8 C 3,9 C 85 % 1029,5 hPa 0,0 l/m 12,8 km/h (3 Bft) S-SW 203 0 min 0,0 UV-I 0 W/m 2,5 C 0,0 C 22,5 km/h (4 Bft)
03.01.2023 17:39 4,8 C 3,9 C 85 % 1029,6 hPa 0,0 l/m 14,2 km/h (3 Bft) S-SO 167 0 min 0,0 UV-I 0 W/m 2,5 C -0,7 C 25,7 km/h (4 Bft)
03.01.2023 17:42 4,8 C 3,9 C 85 % 1029,6 hPa 0,0 l/m 14,2 km/h (3 Bft) S 180 0 min 0,0 UV-I 0 W/m 2,5 C -0,7 C 24,1 km/h (4 Bft)
03.01.2023 17:45 4,8 C 3,9 C 85 % 1029,6 hPa 0,0 l/m 11,8 km/h (2 Bft) S-SW 192 0 min 0,0 UV-I 0 W/m 2,5 C 0,7 C 24,1 km/h (4 Bft)
03.01.2023 17:48 4,8 C 3,9 C 85 % 1029,5 hPa 0,0 l/m 14,9 km/h (3 Bft) S-SW 202 0 min 0,0 UV-I 0 W/m 2,5 C -1,1 C 22,5 km/h (4 Bft)
03.01.2023 17:51 4,8 C 3,9 C 85 % 1029,6 hPa 0,0 l/m 14,8 km/h (3 Bft) S-SW 202 0 min 0,0 UV-I 0 W/m 2,5 C -1,1 C 24,1 km/h (4 Bft)
03.01.2023 17:54 4,8 C 3,9 C 85 % 1029,5 hPa 0,0 l/m 16,5 km/h (3 Bft) SW 223 0 min 0,0 UV-I 0 W/m 2,5 C -1,9 C 25,7 km/h (4 Bft)
03.01.2023 17:57 4,8 C 3,9 C 85 % 1029,6 hPa 0,0 l/m 15,6 km/h (3 Bft) S 175 0 min 0,0 UV-I 0 W/m 2,5 C -1,5 C 27,4 km/h (4 Bft)
03.01.2023 18:00 4,8 C 4,4 C 85 % 1029,5 hPa 0,0 l/m 16,1 km/h (3 Bft) S 184 0 min 0,0 UV-I 0 W/m 2,5 C -1,7 C 27,4 km/h (4 Bft)
03.01.2023 18:03 4,8 C 4,4 C 84 % 1029,5 hPa 0,0 l/m 17,2 km/h (3 Bft) S 172 0 min 0,0 UV-I 0 W/m 2,3 C -2,2 C 27,4 km/h (4 Bft)
03.01.2023 18:06 4,8 C 3,9 C 84 % 1029,5 hPa 0,0 l/m 14,1 km/h (3 Bft) S 172 0 min 0,0 UV-I 0 W/m 2,3 C -0,7 C 20,9 km/h (4 Bft)
03.01.2023 18:09 4,8 C 3,9 C 84 % 1029,6 hPa 0,0 l/m 15,1 km/h (3 Bft) S 171 0 min 0,0 UV-I 0 W/m 2,3 C -1,2 C 25,7 km/h (4 Bft)
03.01.2023 18:12 4,8 C 3,9 C 84 % 1029,5 hPa 0,0 l/m 18,0 km/h (3 Bft) S-SW 196 0 min 0,0 UV-I 0 W/m 2,3 C -2,6 C 27,4 km/h (4 Bft)
03.01.2023 18:15 4,8 C 3,9 C 84 % 1029,6 hPa 0,0 l/m 16,7 km/h (3 Bft) S-SW 210 0 min 0,0 UV-I 0 W/m 2,3 C -2,0 C 30,6 km/h (5 Bft)
03.01.2023 18:18 4,8 C 3,9 C 84 % 1029,5 hPa 0,0 l/m 14,3 km/h (3 Bft) S 169 0 min 0,0 UV-I 0 W/m 2,3 C -0,8 C 22,5 km/h (4 Bft)
03.01.2023 18:21 4,8 C 3,9 C 84 % 1029,6 hPa 0,0 l/m 14,7 km/h (3 Bft) S-SW 204 0 min 0,0 UV-I 0 W/m 2,3 C -1,0 C 22,5 km/h (4 Bft)
03.01.2023 18:24 4,8 C 3,9 C 84 % 1029,6 hPa 0,0 l/m 16,1 km/h (3 Bft) S-SW 196 0 min 0,0 UV-I 0 W/m 2,3 C -1,7 C 24,1 km/h (4 Bft)
03.01.2023 18:27 4,8 C 3,9 C 84 % 1029,6 hPa 0,0 l/m 12,9 km/h (3 Bft) S 182 0 min 0,0 UV-I 0 W/m 2,3 C -0,0 C 19,3 km/h (3 Bft)
03.01.2023 18:30 4,8 C 3,9 C 84 % 1029,6 hPa 0,0 l/m 13,1 km/h (3 Bft) S 174 0 min 0,0 UV-I 0 W/m 2,3 C -0,1 C 19,3 km/h (3 Bft)
03.01.2023 18:33 4,8 C 3,9 C 85 % 1029,6 hPa 0,0 l/m 12,9 km/h (3 Bft) S 185 0 min 0,0 UV-I 0 W/m 2,5 C -0,0 C 22,5 km/h (4 Bft)
03.01.2023 18:36 4,8 C 4,4 C 85 % 1029,5 hPa 0,0 l/m 13,3 km/h (3 Bft) S-SO 158 0 min 0,0 UV-I 0 W/m 2,5 C -0,2 C 20,9 km/h (4 Bft)
03.01.2023 18:39 4,8 C 4,4 C 85 % 1029,5 hPa 0,0 l/m 14,6 km/h (3 Bft) S-SO 165 0 min 0,0 UV-I 0 W/m 2,5 C -1,0 C 25,7 km/h (4 Bft)
03.01.2023 18:42 4,8 C 4,4 C 85 % 1029,6 hPa 0,0 l/m 16,0 km/h (3 Bft) S-SO 159 0 min 0,0 UV-I 0 W/m 2,5 C -1,7 C 27,4 km/h (4 Bft)
03.01.2023 18:45 4,8 C 4,4 C 85 % 1029,7 hPa 0,0 l/m 14,3 km/h (3 Bft) S 175 0 min 0,0 UV-I 0 W/m 2,5 C -0,8 C 33,8 km/h (5 Bft)
03.01.2023 18:48 4,9 C 4,4 C 85 % 1029,7 hPa 0,0 l/m 13,5 km/h (3 Bft) S 178 0 min 0,0 UV-I 0 W/m 2,6 C -0,2 C 20,9 km/h (4 Bft)
03.01.2023 18:51 4,9 C 4,4 C 85 % 1029,6 hPa 0,0 l/m 15,1 km/h (3 Bft) S 173 0 min 0,0 UV-I 0 W/m 2,6 C -1,1 C 27,4 km/h (4 Bft)
03.01.2023 18:54 4,9 C 4,4 C 85 % 1029,7 hPa 0,0 l/m 14,0 km/h (3 Bft) S 173 0 min 0,0 UV-I 0 W/m 2,6 C -0,5 C 20,9 km/h (4 Bft)
03.01.2023 18:57 5,0 C 4,4 C 85 % 1029,6 hPa 0,0 l/m 13,8 km/h (3 Bft) S 177 0 min 0,0 UV-I 0 W/m 2,7 C -0,3 C 22,5 km/h (4 Bft)
03.01.2023 19:00 5,0 C 4,4 C 85 % 1029,6 hPa 0,0 l/m 14,3 km/h (3 Bft) S-SO 148 0 min 0,0 UV-I 0 W/m 2,7 C -0,6 C 22,5 km/h (4 Bft)
03.01.2023 19:03 5,1 C 4,4 C 85 % 1029,7 hPa 0,0 l/m 18,1 km/h (3 Bft) S 182 0 min 0,0 UV-I 0 W/m 2,8 C -2,3 C 32,2 km/h (5 Bft)
03.01.2023 19:06 5,1 C 4,4 C 85 % 1029,6 hPa 0,0 l/m 16,7 km/h (3 Bft) S-SW 200 0 min 0,0 UV-I 0 W/m 2,8 C -1,6 C 22,5 km/h (4 Bft)
03.01.2023 19:09 5,1 C 4,4 C 86 % 1029,6 hPa 0,0 l/m 15,7 km/h (3 Bft) S 177 0 min 0,0 UV-I 0 W/m 3,0 C -1,2 C 27,4 km/h (4 Bft)
03.01.2023 19:12 5,1 C 4,4 C 86 % 1029,7 hPa 0,0 l/m 15,7 km/h (3 Bft) S 187 0 min 0,0 UV-I 0 W/m 3,0 C -1,2 C 30,6 km/h (5 Bft)
03.01.2023 19:15 5,1 C 4,4 C 86 % 1029,7 hPa 0,0 l/m 18,4 km/h (3 Bft) S 180 0 min 0,0 UV-I 0 W/m 3,0 C -2,4 C 29,0 km/h (5 Bft)
03.01.2023 19:18 5,1 C 4,4 C 86 % 1029,8 hPa 0,0 l/m 17,3 km/h (3 Bft) S-SO 165 0 min 0,0 UV-I 0 W/m 3,0 C -1,9 C 29,0 km/h (5 Bft)
03.01.2023 19:21 5,1 C 4,4 C 86 % 1029,8 hPa 0,0 l/m 18,3 km/h (3 Bft) S 173 0 min 0,0 UV-I 0 W/m 3,0 C -2,3 C 29,0 km/h (5 Bft)
03.01.2023 19:24 5,1 C 4,4 C 86 % 1029,7 hPa 0,0 l/m 17,3 km/h (3 Bft) SO 137 0 min 0,0 UV-I 0 W/m 3,0 C -1,9 C 27,4 km/h (4 Bft)
03.01.2023 19:27 5,1 C 4,4 C 86 % 1029,6 hPa 0,0 l/m 17,9 km/h (3 Bft) S 191 0 min 0,0 UV-I 0 W/m 3,0 C -2,2 C 30,6 km/h (5 Bft)
03.01.2023 19:30 5,1 C 4,4 C 86 % 1029,7 hPa 0,0 l/m 15,5 km/h (3 Bft) S-SO 166 0 min 0,0 UV-I 0 W/m 3,0 C -1,1 C 25,7 km/h (4 Bft)
03.01.2023 19:33 5,2 C 4,4 C 86 % 1029,7 hPa 0,0 l/m 14,8 km/h (3 Bft) S 177 0 min 0,0 UV-I 0 W/m 3,1 C -0,6 C 25,7 km/h (4 Bft)
03.01.2023 19:36 5,1 C 4,4 C 86 % 1029,6 hPa 0,0 l/m 16,6 km/h (3 Bft) S 184 0 min 0,0 UV-I 0 W/m 3,0 C -1,6 C 27,4 km/h (4 Bft)
03.01.2023 19:39 5,2 C 4,4 C 86 % 1029,5 hPa 0,0 l/m 13,2 km/h (3 Bft) S 175 0 min 0,0 UV-I 0 W/m 3,1 C 0,3 C 22,5 km/h (4 Bft)
03.01.2023 19:42 5,1 C 4,4 C 86 % 1029,6 hPa 0,0 l/m 13,1 km/h (3 Bft) S 173 0 min 0,0 UV-I 0 W/m 3,0 C 0,2 C 22,5 km/h (4 Bft)
03.01.2023 19:45 5,1 C 4,4 C 87 % 1029,5 hPa 0,0 l/m 12,2 km/h (2 Bft) S 173 0 min 0,0 UV-I 0 W/m 3,1 C 0,8 C 25,7 km/h (4 Bft)
03.01.2023 19:48 5,2 C 4,4 C 87 % 1029,4 hPa 0,0 l/m 12,0 km/h (2 Bft) S 190 0 min 0,0 UV-I 0 W/m 3,2 C 1,0 C 19,3 km/h (3 Bft)
03.01.2023 19:51 5,2 C 4,4 C 87 % 1029,4 hPa 0,0 l/m 13,8 km/h (3 Bft) S-SW 194 0 min 0,0 UV-I 0 W/m 3,2 C -0,0 C 20,9 km/h (4 Bft)
03.01.2023 19:54 5,2 C 4,4 C 87 % 1029,4 hPa 0,0 l/m 16,2 km/h (3 Bft) S-SO 164 0 min 0,0 UV-I 0 W/m 3,2 C -1,3 C 29,0 km/h (5 Bft)
03.01.2023 19:57 5,2 C 5,0 C 87 % 1029,5 hPa 0,0 l/m 17,0 km/h (3 Bft) S 184 0 min 0,0 UV-I 0 W/m 3,2 C -1,6 C 33,8 km/h (5 Bft)
03.01.2023 20:00 5,2 C 5,0 C 87 % 1029,5 hPa 0,0 l/m 15,6 km/h (3 Bft) S-SW 209 0 min 0,0 UV-I 0 W/m 3,2 C -1,0 C 37,0 km/h (5 Bft)
03.01.2023 20:03 5,2 C 5,0 C 87 % 1029,5 hPa 0,0 l/m 19,6 km/h (3 Bft) S 186 0 min 0,0 UV-I 0 W/m 3,2 C -2,8 C 33,8 km/h (5 Bft)
03.01.2023 20:06 5,2 C 5,0 C 87 % 1029,5 hPa 0,0 l/m 15,1 km/h (3 Bft) S 186 0 min 0,0 UV-I 0 W/m 3,2 C -0,7 C 25,7 km/h (4 Bft)
03.01.2023 20:09 5,2 C 5,0 C 87 % 1029,5 hPa 0,0 l/m 14,8 km/h (3 Bft) S 182 0 min 0,0 UV-I 0 W/m 3,2 C -0,6 C 22,5 km/h (4 Bft)
03.01.2023 20:12 5,2 C 5,0 C 87 % 1029,4 hPa 0,0 l/m 21,6 km/h (4 Bft) S 188 0 min 0,0 UV-I 0 W/m 3,2 C -3,5 C 32,2 km/h (5 Bft)
03.01.2023 20:15 5,2 C 5,0 C 87 % 1029,5 hPa 0,0 l/m 17,1 km/h (3 Bft) S-SW 199 0 min 0,0 UV-I 0 W/m 3,2 C -1,7 C 30,6 km/h (5 Bft)
03.01.2023 20:18 5,2 C 4,4 C 87 % 1029,3 hPa 0,0 l/m 15,2 km/h (3 Bft) S 182 0 min 0,0 UV-I 0 W/m 3,2 C -0,8 C 27,4 km/h (4 Bft)
03.01.2023 20:21 5,1 C 4,4 C 87 % 1029,3 hPa 0,0 l/m 16,2 km/h (3 Bft) S-SO 162 0 min 0,0 UV-I 0 W/m 3,1 C -1,4 C 37,0 km/h (5 Bft)
03.01.2023 20:24 5,1 C 4,4 C 87 % 1029,0 hPa 0,0 l/m 17,4 km/h (3 Bft) S 177 0 min 0,0 UV-I 0 W/m 3,1 C -1,9 C 27,4 km/h (4 Bft)
03.01.2023 20:27 5,1 C 4,4 C 87 % 1029,1 hPa 0,0 l/m 21,3 km/h (4 Bft) S 180 0 min 0,0 UV-I 0 W/m 3,1 C -3,5 C 32,2 km/h (5 Bft)
03.01.2023 20:30 5,0 C 4,4 C 87 % 1029,0 hPa 0,0 l/m 18,6 km/h (3 Bft) S 183 0 min 0,0 UV-I 0 W/m 3,0 C -2,6 C 32,2 km/h (5 Bft)
03.01.2023 20:33 5,1 C 4,4 C 87 % 1029,0 hPa 0,0 l/m 22,9 km/h (4 Bft) S 190 0 min 0,0 UV-I 0 W/m 3,1 C -4,1 C 37,0 km/h (5 Bft)
03.01.2023 20:36 5,0 C 4,4 C 87 % 1028,9 hPa 0,0 l/m 19,1 km/h (3 Bft) S-SO 163 0 min 0,0 UV-I 0 W/m 3,0 C -2,8 C 33,8 km/h (5 Bft)
03.01.2023 20:39 5,0 C 4,4 C 87 % 1029,0 hPa 0,0 l/m 18,1 km/h (3 Bft) S-SO 164 0 min 0,0 UV-I 0 W/m 3,0 C -2,4 C 33,8 km/h (5 Bft)
03.01.2023 20:42 5,0 C 4,4 C 87 % 1028,9 hPa 0,0 l/m 20,9 km/h (4 Bft) SW 214 0 min 0,0 UV-I 0 W/m 3,0 C -3,5 C 33,8 km/h (5 Bft)
03.01.2023 20:45 5,0 C 4,4 C 87 % 1029,0 hPa 0,0 l/m 18,8 km/h (3 Bft) S-SW 196 0 min 0,0 UV-I 0 W/m 3,0 C -2,7 C 38,6 km/h (5 Bft)
03.01.2023 20:48 5,0 C 4,4 C 87 % 1029,1 hPa 0,0 l/m 19,2 km/h (3 Bft) S-SO 163 0 min 0,0 UV-I 0 W/m 3,0 C -2,8 C 33,8 km/h (5 Bft)
03.01.2023 20:51 5,0 C 4,4 C 87 % 1028,9 hPa 0,0 l/m 21,7 km/h (4 Bft) S 174 0 min 0,0 UV-I 0 W/m 3,0 C -3,8 C 35,4 km/h (5 Bft)
03.01.2023 20:54 5,0 C 4,4 C 87 % 1028,9 hPa 0,0 l/m 21,2 km/h (4 Bft) S-SW 193 0 min 0,0 UV-I 0 W/m 3,0 C -3,6 C 30,6 km/h (5 Bft)
03.01.2023 20:57 5,0 C 4,4 C 87 % 1029,0 hPa 0,0 l/m 19,3 km/h (3 Bft) S-SO 165 0 min 0,0 UV-I 0 W/m 3,0 C -2,9 C 33,8 km/h (5 Bft)
03.01.2023 21:00 4,9 C 4,4 C 87 % 1029,0 hPa 0,0 l/m 23,9 km/h (4 Bft) S 169 0 min 0,0 UV-I 0 W/m 2,9 C -4,7 C 41,8 km/h (6 Bft)
03.01.2023 21:03 5,0 C 4,4 C 87 % 1028,9 hPa 0,0 l/m 23,2 km/h (4 Bft) S 184 0 min 0,0 UV-I 0 W/m 3,0 C -4,4 C 35,4 km/h (5 Bft)
03.01.2023 21:06 4,9 C 4,4 C 87 % 1029,0 hPa 0,0 l/m 20,1 km/h (4 Bft) S-SW 205 0 min 0,0 UV-I 0 W/m 2,9 C -3,3 C 45,1 km/h (6 Bft)
03.01.2023 21:09 4,9 C 4,4 C 87 % 1028,8 hPa 0,0 l/m 21,8 km/h (4 Bft) S 186 0 min 0,0 UV-I 0 W/m 2,9 C -4,0 C 33,8 km/h (5 Bft)
03.01.2023 21:12 5,0 C 4,4 C 87 % 1028,8 hPa 0,0 l/m 19,1 km/h (3 Bft) S-SW 197 0 min 0,0 UV-I 0 W/m 3,0 C -2,8 C 35,4 km/h (5 Bft)
03.01.2023 21:15 4,9 C 4,4 C 87 % 1028,8 hPa 0,0 l/m 20,0 km/h (4 Bft) S-SO 167 0 min 0,0 UV-I 0 W/m 2,9 C -3,3 C 35,4 km/h (5 Bft)
03.01.2023 21:18 5,0 C 4,4 C 87 % 1028,8 hPa 0,0 l/m 21,5 km/h (4 Bft) S-SW 204 0 min 0,0 UV-I 0 W/m 3,0 C -3,7 C 41,8 km/h (6 Bft)
03.01.2023 21:21 5,0 C 4,4 C 87 % 1028,8 hPa 0,0 l/m 21,6 km/h (4 Bft) S 190 0 min 0,0 UV-I 0 W/m 3,0 C -3,8 C 43,5 km/h (6 Bft)
03.01.2023 21:24 5,0 C 4,4 C 87 % 1028,7 hPa 0,0 l/m 17,5 km/h (3 Bft) S 187 0 min 0,0 UV-I 0 W/m 3,0 C -2,1 C 30,6 km/h (5 Bft)
03.01.2023 21:27 5,0 C 4,4 C 87 % 1028,7 hPa 0,0 l/m 22,3 km/h (4 Bft) SW 217 0 min 0,0 UV-I 0 W/m 3,0 C -4,0 C 37,0 km/h (5 Bft)
03.01.2023 21:30 5,1 C 4,4 C 87 % 1028,8 hPa 0,0 l/m 22,9 km/h (4 Bft) S 185 0 min 0,0 UV-I 0 W/m 3,1 C -4,1 C 33,8 km/h (5 Bft)
03.01.2023 21:33 5,1 C 4,4 C 87 % 1028,7 hPa 0,0 l/m 20,9 km/h (4 Bft) S-SW 202 0 min 0,0 UV-I 0 W/m 3,1 C -3,4 C 30,6 km/h (5 Bft)
03.01.2023 21:36 5,0 C 4,4 C 87 % 1028,8 hPa 0,0 l/m 22,5 km/h (4 Bft) S 183 0 min 0,0 UV-I 0 W/m 3,0 C -4,1 C 35,4 km/h (5 Bft)
03.01.2023 21:39 5,1 C 4,4 C 87 % 1028,9 hPa 0,0 l/m 19,0 km/h (3 Bft) S 179 0 min 0,0 UV-I 0 W/m 3,1 C -2,6 C 27,4 km/h (4 Bft)
03.01.2023 21:42 5,1 C 4,4 C 87 % 1028,7 hPa 0,0 l/m 18,3 km/h (3 Bft) S-SW 206 0 min 0,0 UV-I 0 W/m 3,1 C -2,3 C 25,7 km/h (4 Bft)
03.01.2023 21:45 5,1 C 4,4 C 87 % 1028,5 hPa 0,0 l/m 17,9 km/h (3 Bft) S-SW 208 0 min 0,0 UV-I 0 W/m 3,1 C -2,2 C 30,6 km/h (5 Bft)
03.01.2023 21:48 5,1 C 4,4 C 87 % 1028,6 hPa 0,0 l/m 20,0 km/h (4 Bft) S-SO 168 0 min 0,0 UV-I 0 W/m 3,1 C -3,0 C 32,2 km/h (5 Bft)
03.01.2023 21:51 5,1 C 4,4 C 87 % 1028,5 hPa 0,0 l/m 21,6 km/h (4 Bft) S-SO 163 0 min 0,0 UV-I 0 W/m 3,1 C -3,7 C 33,8 km/h (5 Bft)
03.01.2023 21:54 5,1 C 4,4 C 87 % 1028,6 hPa 0,0 l/m 15,1 km/h (3 Bft) S-SW 200 0 min 0,0 UV-I 0 W/m 3,1 C -0,9 C 24,1 km/h (4 Bft)
03.01.2023 21:57 5,1 C 4,4 C 87 % 1028,5 hPa 0,0 l/m 18,7 km/h (3 Bft) S-SW 204 0 min 0,0 UV-I 0 W/m 3,1 C -2,5 C 29,0 km/h (5 Bft)
03.01.2023 22:00 5,1 C 4,4 C 87 % 1028,5 hPa 0,0 l/m 17,7 km/h (3 Bft) SW 218 0 min 0,0 UV-I 0 W/m 3,1 C -2,1 C 32,2 km/h (5 Bft)
03.01.2023 22:03 5,1 C 4,4 C 87 % 1028,5 hPa 0,0 l/m 22,8 km/h (4 Bft) S 188 0 min 0,0 UV-I 0 W/m 3,1 C -4,1 C 32,2 km/h (5 Bft)
03.01.2023 22:06 5,1 C 4,4 C 87 % 1028,5 hPa 0,0 l/m 18,9 km/h (3 Bft) S-SW 194 0 min 0,0 UV-I 0 W/m 3,1 C -2,6 C 29,0 km/h (5 Bft)
03.01.2023 22:09 5,1 C 4,4 C 87 % 1028,3 hPa 0,0 l/m 19,6 km/h (3 Bft) S 171 0 min 0,0 UV-I 0 W/m 3,1 C -2,9 C 32,2 km/h (5 Bft)
03.01.2023 22:12 5,1 C 4,4 C 87 % 1028,4 hPa 0,0 l/m 17,8 km/h (3 Bft) S-SO 163 0 min 0,0 UV-I 0 W/m 3,1 C -2,1 C 35,4 km/h (5 Bft)
03.01.2023 22:15 5,1 C 4,4 C 87 % 1028,5 hPa 0,0 l/m 18,1 km/h (3 Bft) S-SO 162 0 min 0,0 UV-I 0 W/m 3,1 C -2,3 C 30,6 km/h (5 Bft)
03.01.2023 22:18 5,1 C 4,4 C 87 % 1028,5 hPa 0,0 l/m 20,7 km/h (4 Bft) S-SW 198 0 min 0,0 UV-I 0 W/m 3,1 C -3,3 C 37,0 km/h (5 Bft)
03.01.2023 22:21 5,1 C 4,4 C 87 % 1028,5 hPa 0,0 l/m 17,7 km/h (3 Bft) S 191 0 min 0,0 UV-I 0 W/m 3,1 C -2,1 C 27,4 km/h (4 Bft)
03.01.2023 22:24 5,1 C 4,4 C 87 % 1028,6 hPa 0,0 l/m 17,4 km/h (3 Bft) S 189 0 min 0,0 UV-I 0 W/m 3,1 C -1,9 C 30,6 km/h (5 Bft)
03.01.2023 22:27 5,1 C 4,4 C 87 % 1028,6 hPa 0,0 l/m 19,6 km/h (3 Bft) S-SW 203 0 min 0,0 UV-I 0 W/m 3,1 C -2,9 C 32,2 km/h (5 Bft)
03.01.2023 22:30 5,1 C 4,4 C 87 % 1028,5 hPa 0,0 l/m 20,8 km/h (4 Bft) S 185 0 min 0,0 UV-I 0 W/m 3,1 C -3,4 C 37,0 km/h (5 Bft)
03.01.2023 22:33 5,1 C 4,4 C 87 % 1028,5 hPa 0,0 l/m 21,1 km/h (4 Bft) S-SO 167 0 min 0,0 UV-I 0 W/m 3,1 C -3,5 C 35,4 km/h (5 Bft)
03.01.2023 22:36 5,1 C 4,4 C 87 % 1028,5 hPa 0,0 l/m 22,6 km/h (4 Bft) S 182 0 min 0,0 UV-I 0 W/m 3,1 C -4,0 C 41,8 km/h (6 Bft)
03.01.2023 22:39 5,1 C 4,4 C 87 % 1028,5 hPa 0,0 l/m 18,7 km/h (3 Bft) S 176 0 min 0,0 UV-I 0 W/m 3,1 C -2,5 C 37,0 km/h (5 Bft)
03.01.2023 22:42 5,1 C 4,4 C 87 % 1028,4 hPa 0,0 l/m 15,0 km/h (3 Bft) SW 229 0 min 0,0 UV-I 0 W/m 3,1 C -0,8 C 25,7 km/h (4 Bft)
03.01.2023 22:45 5,1 C 4,4 C 87 % 1028,4 hPa 0,0 l/m 15,8 km/h (3 Bft) S-SW 201 0 min 0,0 UV-I 0 W/m 3,1 C -1,2 C 25,7 km/h (4 Bft)
03.01.2023 22:48 5,1 C 4,4 C 87 % 1028,3 hPa 0,0 l/m 16,2 km/h (3 Bft) S-SW 194 0 min 0,0 UV-I 0 W/m 3,1 C -1,4 C 27,4 km/h (4 Bft)
03.01.2023 22:51 5,1 C 4,4 C 87 % 1028,2 hPa 0,0 l/m 16,0 km/h (3 Bft) S 176 0 min 0,0 UV-I 0 W/m 3,1 C -1,3 C 25,7 km/h (4 Bft)
03.01.2023 22:54 5,1 C 4,4 C 87 % 1028,2 hPa 0,0 l/m 14,6 km/h (3 Bft) S-SW 206 0 min 0,0 UV-I 0 W/m 3,1 C -0,6 C 22,5 km/h (4 Bft)
03.01.2023 22:57 5,1 C 4,4 C 87 % 1028,3 hPa 0,0 l/m 20,5 km/h (4 Bft) S-SW 195 0 min 0,0 UV-I 0 W/m 3,1 C -3,2 C 35,4 km/h (5 Bft)
03.01.2023 23:00 5,1 C 4,4 C 87 % 1028,3 hPa 0,0 l/m 17,8 km/h (3 Bft) S-SO 163 0 min 0,0 UV-I 0 W/m 3,1 C -2,1 C 35,4 km/h (5 Bft)
03.01.2023 23:03 5,1 C 4,4 C 87 % 1028,4 hPa 0,0 l/m 16,7 km/h (3 Bft) S-SW 209 0 min 0,0 UV-I 0 W/m 3,1 C -1,6 C 35,4 km/h (5 Bft)
03.01.2023 23:06 5,1 C 4,4 C 87 % 1028,3 hPa 0,0 l/m 17,7 km/h (3 Bft) S-SO 168 0 min 0,0 UV-I 0 W/m 3,1 C -2,1 C 30,6 km/h (5 Bft)
03.01.2023 23:09 5,1 C 4,4 C 87 % 1028,3 hPa 0,0 l/m 19,2 km/h (3 Bft) SO 133 0 min 0,0 UV-I 0 W/m 3,1 C -2,7 C 29,0 km/h (5 Bft)
03.01.2023 23:12 5,1 C 4,4 C 87 % 1028,3 hPa 0,0 l/m 15,7 km/h (3 Bft) S-SO 167 0 min 0,0 UV-I 0 W/m 3,1 C -1,2 C 24,1 km/h (4 Bft)
03.01.2023 23:15 5,1 C 4,4 C 87 % 1028,1 hPa 0,0 l/m 16,7 km/h (3 Bft) S 170 0 min 0,0 UV-I 0 W/m 3,1 C -1,6 C 25,7 km/h (4 Bft)
03.01.2023 23:18 5,1 C 4,4 C 87 % 1028,0 hPa 0,0 l/m 18,9 km/h (3 Bft) S-SW 205 0 min 0,0 UV-I 0 W/m 3,1 C -2,6 C 41,8 km/h (6 Bft)
03.01.2023 23:21 5,1 C 5,0 C 87 % 1028,0 hPa 0,0 l/m 19,0 km/h (3 Bft) SW 216 0 min 0,0 UV-I 0 W/m 3,1 C -2,6 C 29,0 km/h (5 Bft)
03.01.2023 23:24 5,1 C 4,4 C 87 % 1028,0 hPa 0,0 l/m 18,7 km/h (3 Bft) SW 215 0 min 0,0 UV-I 0 W/m 3,1 C -2,5 C 27,4 km/h (4 Bft)
03.01.2023 23:27 5,2 C 5,0 C 87 % 1027,9 hPa 0,0 l/m 18,2 km/h (3 Bft) S-SO 151 0 min 0,0 UV-I 0 W/m 3,2 C -2,2 C 29,0 km/h (5 Bft)
03.01.2023 23:30 5,2 C 5,0 C 88 % 1027,8 hPa 0,0 l/m 18,6 km/h (3 Bft) S-SO 153 0 min 0,0 UV-I 0 W/m 3,4 C -2,3 C 30,6 km/h (5 Bft)
03.01.2023 23:33 5,2 C 5,0 C 88 % 1027,7 hPa 0,0 l/m 19,9 km/h (4 Bft) S 173 0 min 0,0 UV-I 0 W/m 3,4 C -2,9 C 32,2 km/h (5 Bft)
03.01.2023 23:36 5,2 C 5,0 C 88 % 1027,7 hPa 0,0 l/m 18,1 km/h (3 Bft) S-SO 161 0 min 0,0 UV-I 0 W/m 3,4 C -2,1 C 33,8 km/h (5 Bft)
03.01.2023 23:39 5,2 C 5,0 C 88 % 1027,6 hPa 0,0 l/m 18,2 km/h (3 Bft) SO 146 0 min 0,0 UV-I 0 W/m 3,4 C -2,2 C 32,2 km/h (5 Bft)
03.01.2023 23:42 5,2 C 5,0 C 88 % 1027,6 hPa 0,0 l/m 21,8 km/h (4 Bft) S 191 0 min 0,0 UV-I 0 W/m 3,4 C -3,6 C 40,2 km/h (6 Bft)
03.01.2023 23:45 5,2 C 5,0 C 88 % 1027,6 hPa 0,0 l/m 20,7 km/h (4 Bft) S 172 0 min 0,0 UV-I 0 W/m 3,4 C -3,2 C 30,6 km/h (5 Bft)
03.01.2023 23:48 5,2 C 5,0 C 88 % 1027,4 hPa 0,0 l/m 25,3 km/h (4 Bft) S-SO 155 0 min 0,0 UV-I 0 W/m 3,4 C -4,8 C 43,5 km/h (6 Bft)
03.01.2023 23:51 5,2 C 5,0 C 88 % 1027,5 hPa 0,0 l/m 21,7 km/h (4 Bft) S 189 0 min 0,0 UV-I 0 W/m 3,4 C -3,6 C 37,0 km/h (5 Bft)
03.01.2023 23:54 5,2 C 5,0 C 88 % 1027,4 hPa 0,0 l/m 24,2 km/h (4 Bft) S 184 0 min 0,0 UV-I 0 W/m 3,4 C -4,4 C 40,2 km/h (6 Bft)
03.01.2023 23:57 5,2 C 5,0 C 88 % 1027,3 hPa 0,0 l/m 20,0 km/h (4 Bft) S-SO 166 0 min 0,0 UV-I 0 W/m 3,4 C -2,9 C 37,0 km/h (5 Bft)
03.01.2023 23:58 5,2 C 5,0 C 88 % 1027,4 hPa 0,0 l/m 22,5 km/h (4 Bft) S 180 0 min 0,0 UV-I 0 W/m 3,4 C -3,8 C 41,8 km/h (6 Bft)
03.01.2023 23:59 5,2 C 5,0 C 88 % 1027,4 hPa 0,0 l/m 25,7 km/h (4 Bft) S 180 0 min 0,0 UV-I 0 W/m 3,4 C -4,9 C 41,8 km/h (6 Bft)
_ Min-Zeit 05:03 04:59 14:09 00:00 - 00:43 - - - - - 18:03 23:59 00:44
Minimum _ 4,2 C 3,3 C 81 % 1027,2 hPa - 3,2 km/h (1 Bft) - - - - - 2,3 C -4,9 C 4,8 km/h (1 Bft)
_ Max-Zeit 12:51 11:06 04:45 09:54 00:00 23:59 - - 12:36 12:33 12:36 12:45 00:23 21:06
Maximum _ 6,9 C 10,0 C 91 % 1030,2 hPa 0,0 l/m 25,7 km/h
S (4 Bft)
- - 3 min 0,8 UV-I 289 W/m 4,6 C 5,0 C 45,1 km/h
S-SO (6 Bft)
Durchschnitt _ 5,1 C 4,8 C 88 % 1029,1 hPa #0,0 l/m 13,9 km/h (3 Bft) S - #9 min. 0,5 UV-I 86 W/m 3,3 C 0,2 C 22,4 km/h (4 Bft)